GFSGL_500_temp_000.txt.gz
Temp
-10 -11 -11 -11 -11 -11 -11 -12 -13 -13 -13 -13 -14 -16 -19 -20 -22 -23 -24 -24 -23 -23 -24 -23 -23 -23 -23 -22 -20 -19 -18 -17 -15 -14 -12 -11 -10 -10 -10 -10 -10 -10 -11
-11 -11 -11 -11 -11 -11 -12 -12 -13 -13 -14 -14 -15 -18 -19 -20 -23 -23 -24 -24 -24 -23 -23 -22 -22 -23 -22 -20 -19 -18 -18 -16 -15 -15 -13 -10 -10 -10 -10 -11 -10 -11 -11
-11 -11 -11 -11 -11 -12 -12 -13 -13 -14 -14 -14 -17 -19 -19 -21 -23 -23 -24 -24 -24 -23 -22 -22 -22 -22 -21 -21 -18 -20 -17 -15 -15 -14 -13 -10 -10 -10 -10 -11 -10 -11 -11
-11 -11 -11 -11 -11 -12 -13 -13 -14 -14 -14 -15 -18 -19 -19 -21 -22 -23 -23 -23 -23 -23 -22 -22 -21 -21 -21 -21 -19 -19 -18 -16 -16 -14 -14 -12 -11 -11 -11 -10 -10 -10 -12
-11 -11 -11 -11 -12 -13 -13 -14 -14 -14 -15 -16 -18 -19 -20 -21 -22 -22 -23 -23 -22 -22 -21 -21 -21 -21 -20 -20 -19 -19 -17 -15 -14 -13 -13 -14 -12 -11 -10 -10 -10 -10 -12
-12 -12 -12 -12 -12 -13 -13 -14 -14 -14 -15 -17 -18 -19 -20 -21 -22 -22 -22 -22 -22 -22 -21 -21 -20 -19 -19 -20 -19 -17 -16 -15 -14 -14 -13 -13 -13 -12 -11 -10 -10 -10 -11
-12 -12 -12 -12 -13 -13 -14 -14 -14 -15 -15 -17 -18 -19 -20 -21 -22 -22 -22 -22 -21 -21 -21 -20 -20 -20 -19 -19 -19 -18 -16 -15 -14 -14 -13 -12 -12 -10 -11 -10 -10 -11 -11
-12 -12 -12 -13 -13 -14 -14 -14 -14 -15 -16 -18 -18 -19 -20 -21 -22 -22 -21 -21 -21 -20 -21 -20 -19 -19 -19 -18 -18 -17 -16 -16 -14 -14 -13 -14 -13 -11 -11 -10 -11 -12 -11
-12 -12 -13 -13 -14 -14 -14 -14 -15 -15 -16 -18 -19 -19 -20 -21 -21 -22 -21 -21 -20 -20 -20 -20 -20 -19 -19 -19 -17 -16 -16 -15 -14 -14 -14 -13 -12 -11 -11 -11 -11 -11 -11
-13 -13 -13 -14 -14 -14 -14 -14 -15 -15 -16 -18 -19 -19 -20 -21 -22 -23 -21 -20 -20 -20 -20 -20 -19 -19 -19 -18 -17 -16 -15 -15 -15 -14 -14 -13 -12 -12 -12 -11 -11 -11 -11
-13 -13 -13 -14 -14 -14 -14 -15 -15 -16 -16 -18 -19 -19 -21 -21 -22 -23 -21 -20 -20 -20 -20 -20 -19 -19 -18 -17 -16 -15 -15 -15 -15 -14 -13 -12 -12 -12 -12 -12 -12 -12 -11
-13 -13 -14 -14 -14 -15 -15 -15 -15 -16 -17 -19 -19 -20 -21 -22 -23 -23 -21 -20 -20 -20 -20 -19 -19 -18 -18 -17 -16 -16 -15 -15 -14 -13 -13 -12 -12 -11 -11 -12 -12 -13 -12
-14 -14 -14 -14 -15 -14 -15 -15 -16 -16 -17 -19 -19 -20 -21 -21 -23 -23 -20 -20 -20 -20 -20 -19 -18 -18 -17 -17 -16 -16 -14 -14 -14 -13 -13 -12 -12 -11 -11 -12 -13 -13 -12
-14 -14 -14 -15 -14 -15 -15 -15 -16 -16 -18 -19 -19 -20 -21 -21 -23 -23 -21 -20 -20 -20 -20 -19 -18 -18 -17 -16 -16 -15 -14 -14 -14 -13 -13 -12 -12 -12 -12 -13 -12 -12 -12
-14 -14 -15 -15 -15 -15 -15 -16 -16 -17 -19 -19 -19 -20 -21 -22 -23 -24 -21 -21 -20 -20 -19 -19 -18 -18 -16 -16 -15 -14 -14 -14 -13 -13 -13 -12 -12 -12 -12 -13 -13 -12 -12
-14 -15 -15 -15 -15 -15 -16 -16 -16 -18 -19 -19 -20 -21 -21 -22 -24 -24 -21 -20 -20 -20 -19 -19 -18 -18 -16 -16 -14 -14 -14 -14 -13 -13 -12 -12 -12 -12 -12 -13 -12 -12 -12
-15 -15 -15 -15 -15 -15 -16 -16 -16 -19 -20 -20 -21 -21 -22 -22 -23 -23 -21 -20 -20 -20 -19 -19 -18 -17 -17 -16 -14 -14 -13 -13 -13 -12 -12 -12 -12 -12 -12 -13 -12 -12 -12
-15 -15 -15 -15 -15 -16 -16 -16 -17 -19 -20 -21 -22 -22 -22 -23 -24 -24 -21 -20 -20 -20 -19 -19 -18 -17 -17 -15 -15 -13 -13 -13 -12 -12 -12 -12 -12 -12 -11 -13 -13 -12 -12
-15 -15 -15 -15 -16 -16 -16 -17 -19 -20 -20 -20 -22 -23 -22 -23 -24 -24 -21 -20 -20 -20 -19 -19 -18 -17 -16 -16 -15 -14 -13 -13 -12 -12 -12 -12 -12 -12 -12 -12 -12 -13 -13
-16 -15 -15 -16 -16 -16 -16 -18 -20 -20 -20 -21 -22 -22 -23 -23 -24 -23 -21 -20 -20 -20 -19 -18 -18 -17 -17 -16 -14 -13 -13 -12 -12 -12 -12 -12 -12 -12 -12 -12 -12 -13 -13
-16 -16 -16 -16 -16 -16 -17 -19 -20 -20 -20 -21 -22 -22 -23 -23 -24 -24 -22 -21 -20 -20 -19 -19 -18 -17 -16 -16 -16 -14 -13 -13 -13 -12 -12 -12 -12 -12 -12 -12 -12 -12 -13
-16 -16 -16 -16 -16 -16 -18 -20 -20 -20 -21 -22 -22 -22 -23 -23 -24 -24 -22 -21 -21 -20 -19 -19 -18 -17 -17 -16 -15 -14 -14 -13 -13 -13 -12 -12 -12 -12 -12 -12 -12 -12 -12
-16 -16 -16 -16 -16 -17 -19 -20 -20 -21 -21 -22 -22 -23 -23 -23 -24 -24 -22 -21 -20 -20 -19 -19 -18 -17 -17 -16 -15 -15 -14 -14 -13 -13 -13 -12 -12 -12 -12 -12 -11 -11 -12
-16 -16 -16 -16 -16 -18 -19 -20 -21 -21 -22 -22 -23 -23 -23 -23 -24 -24 -23 -21 -20 -20 -19 -19 -19 -18 -17 -16 -15 -15 -14 -13 -13 -12 -12 -12 -12 -12 -12 -12 -12 -12 -12
-16 -16 -16 -16 -17 -19 -20 -20 -20 -21 -22 -23 -24 -24 -24 -24 -25 -24 -23 -21 -20 -20 -20 -19 -19 -18 -17 -16 -15 -14 -14 -12 -12 -13 -13 -12 -12 -12 -12 -12 -12 -12 -12
-16 -16 -16 -16 -18 -19 -19 -20 -20 -21 -23 -24 -24 -24 -25 -25 -25 -25 -23 -21 -20 -20 -20 -19 -19 -18 -17 -16 -15 -15 -13 -14 -13 -12 -12 -12 -12 -12 -12 -12 -12 -12 -12

GFSGL_500_temp_003.txt.gz
Temp
-10 -11 -11 -11 -11 -11 -11 -11 -11 -11 -12 -13 -13 -14 -13 -14 -15 -18 -19 -20 -22 -23 -23 -22 -23 -23 -23 -23 -23 -23 -22 -20 -18 -18 -18 -16 -14 -13 -12 -12 -11 -11 -11
-11 -11 -11 -11 -11 -11 -12 -12 -12 -12 -13 -13 -14 -14 -14 -14 -16 -18 -19 -21 -22 -22 -23 -22 -22 -22 -22 -22 -22 -22 -21 -19 -17 -18 -16 -16 -15 -13 -12 -12 -11 -11 -11
-11 -11 -11 -11 -11 -11 -12 -12 -12 -12 -13 -14 -14 -14 -14 -15 -17 -18 -19 -21 -22 -22 -22 -22 -22 -22 -22 -22 -22 -21 -19 -18 -19 -16 -16 -16 -14 -13 -12 -12 -11 -11 -11
-11 -11 -11 -12 -12 -12 -12 -12 -12 -13 -13 -14 -14 -14 -14 -15 -18 -18 -19 -21 -22 -22 -22 -22 -22 -22 -22 -21 -21 -20 -20 -20 -18 -17 -15 -16 -14 -13 -13 -12 -11 -11 -11
-12 -12 -11 -12 -12 -12 -12 -12 -13 -13 -14 -14 -14 -14 -15 -16 -18 -18 -19 -21 -21 -22 -21 -22 -21 -21 -21 -21 -20 -20 -20 -19 -18 -16 -16 -16 -15 -13 -12 -12 -11 -11 -11
-12 -12 -12 -12 -12 -12 -12 -13 -13 -13 -14 -14 -14 -15 -15 -16 -18 -18 -19 -20 -21 -21 -21 -21 -21 -21 -21 -21 -20 -20 -19 -19 -17 -16 -16 -15 -14 -13 -12 -11 -11 -10 -11
-12 -12 -12 -12 -12 -12 -13 -13 -13 -14 -14 -15 -15 -15 -16 -17 -19 -18 -19 -20 -21 -21 -21 -21 -21 -20 -20 -20 -20 -19 -18 -18 -17 -16 -15 -15 -14 -13 -12 -11 -11 -10 -11
-12 -12 -12 -12 -13 -13 -13 -13 -13 -14 -14 -15 -15 -15 -16 -18 -19 -18 -19 -20 -21 -20 -20 -20 -20 -20 -20 -20 -19 -19 -19 -18 -17 -16 -15 -15 -15 -12 -12 -11 -11 -12 -11
-12 -12 -12 -12 -13 -13 -13 -14 -14 -14 -15 -15 -15 -15 -16 -19 -19 -19 -19 -20 -21 -20 -20 -20 -20 -20 -19 -20 -20 -18 -19 -17 -16 -16 -15 -15 -14 -14 -12 -13 -12 -11 -11
-13 -12 -12 -12 -13 -13 -14 -14 -15 -15 -15 -15 -15 -15 -16 -19 -19 -19 -20 -21 -21 -20 -20 -20 -20 -20 -19 -19 -19 -18 -18 -18 -16 -16 -14 -14 -14 -14 -13 -12 -12 -11 -11
-13 -13 -13 -13 -14 -14 -14 -14 -15 -15 -15 -15 -15 -15 -18 -19 -19 -19 -20 -21 -21 -20 -20 -20 -20 -20 -19 -19 -18 -17 -17 -17 -16 -15 -14 -14 -14 -13 -12 -12 -12 -11 -11
-13 -13 -13 -14 -14 -14 -14 -15 -15 -15 -15 -15 -15 -16 -19 -19 -19 -19 -20 -21 -21 -21 -20 -20 -20 -20 -19 -19 -18 -17 -16 -16 -15 -15 -14 -13 -14 -12 -12 -12 -11 -11 -11
-13 -13 -14 -14 -14 -14 -14 -15 -15 -15 -15 -15 -15 -17 -19 -19 -19 -20 -20 -21 -21 -21 -20 -19 -19 -19 -19 -19 -18 -17 -17 -17 -15 -15 -14 -14 -14 -12 -11 -12 -12 -12 -12
-14 -14 -14 -14 -14 -14 -15 -15 -15 -15 -15 -15 -16 -18 -19 -19 -19 -20 -21 -22 -21 -21 -20 -20 -19 -19 -19 -18 -17 -16 -16 -16 -14 -14 -14 -13 -14 -11 -12 -12 -12 -11 -11
-14 -14 -14 -14 -14 -14 -15 -15 -15 -15 -15 -15 -17 -19 -19 -19 -20 -20 -21 -21 -20 -20 -20 -20 -19 -19 -18 -17 -16 -16 -16 -16 -15 -14 -14 -14 -12 -12 -12 -12 -12 -11 -11
-14 -14 -14 -14 -15 -15 -15 -15 -15 -15 -15 -16 -18 -19 -19 -19 -20 -20 -21 -21 -20 -20 -20 -19 -19 -19 -19 -18 -17 -16 -16 -14 -14 -14 -14 -14 -13 -12 -13 -12 -12 -12 -12
-14 -14 -15 -15 -15 -15 -15 -15 -15 -16 -15 -17 -18 -19 -20 -20 -20 -21 -21 -21 -20 -20 -20 -20 -19 -19 -18 -17 -16 -16 -16 -15 -14 -13 -14 -13 -13 -13 -12 -12 -12 -12 -12
-14 -15 -15 -15 -15 -15 -15 -15 -15 -15 -16 -19 -19 -19 -20 -21 -21 -21 -21 -21 -20 -20 -20 -19 -19 -18 -18 -17 -16 -16 -15 -14 -14 -14 -14 -13 -12 -11 -11 -12 -12 -12 -12
-14 -15 -15 -15 -15 -15 -15 -16 -15 -15 -16 -19 -19 -20 -20 -21 -21 -21 -21 -21 -20 -20 -20 -19 -19 -18 -17 -17 -16 -15 -15 -15 -14 -13 -14 -13 -12 -12 -12 -12 -12 -13 -12
-15 -15 -15 -15 -15 -15 -16 -16 -15 -15 -17 -19 -20 -20 -21 -21 -22 -22 -22 -21 -20 -20 -20 -19 -19 -18 -17 -17 -17 -15 -15 -14 -14 -14 -13 -13 -13 -12 -12 -12 -12 -12 -12
-15 -16 -16 -16 -16 -16 -16 -16 -15 -16 -18 -19 -20 -20 -21 -21 -22 -22 -22 -20 -20 -20 -20 -19 -19 -18 -17 -16 -16 -15 -15 -14 -14 -13 -13 -13 -12 -12 -12 -12 -12 -13 -13
-16 -16 -16 -16 -16 -16 -16 -16 -16 -17 -19 -19 -20 -20 -21 -22 -22 -22 -22 -21 -20 -20 -20 -20 -19 -18 -17 -16 -16 -15 -14 -14 -14 -13 -13 -13 -12 -12 -12 -12 -13 -14 -13
-16 -16 -16 -16 -16 -16 -16 -16 -16 -18 -19 -20 -20 -21 -22 -22 -22 -22 -22 -21 -20 -20 -20 -20 -19 -18 -17 -17 -17 -15 -14 -14 -13 -13 -13 -13 -13 -12 -12 -12 -12 -13 -13
-17 -16 -16 -16 -16 -16 -16 -16 -18 -19 -20 -20 -20 -21 -22 -22 -23 -22 -22 -21 -20 -20 -20 -20 -19 -18 -17 -16 -16 -16 -14 -13 -13 -13 -13 -12 -12 -12 -12 -12 -12 -12 -14
-17 -16 -16 -16 -16 -16 -16 -17 -19 -20 -20 -20 -21 -22 -22 -23 -23 -23 -23 -22 -21 -20 -20 -20 -19 -19 -17 -17 -16 -15 -15 -14 -14 -13 -13 -13 -12 -12 -12 -12 -12 -13 -13
-17 -17 -16 -16 -16 -16 -17 -18 -19 -20 -20 -21 -21 -22 -23 -23 -24 -24 -24 -23 -21 -21 -20 -20 -20 -19 -18 -17 -16 -16 -15 -14 -14 -13 -13 -13 -12 -12 -12 -12 -12 -12 -12

GFSGL_500_temp_006.txt.gz
Temp
-11 -11 -11 -11 -11 -11 -11 -11 -11 -11 -12 -12 -12 -12 -13 -13 -14 -14 -14 -15 -16 -18 -18 -19 -21 -22 -22 -22 -22 -22 -22 -23 -23 -23 -20 -19 -18 -18 -16 -14 -13 -12 -11
-11 -11 -11 -11 -11 -11 -11 -11 -12 -12 -12 -12 -12 -12 -13 -13 -14 -14 -14 -15 -17 -18 -19 -20 -21 -22 -22 -22 -21 -22 -22 -23 -23 -22 -20 -19 -18 -17 -17 -14 -14 -12 -12
-11 -11 -11 -12 -11 -12 -11 -11 -12 -12 -12 -12 -12 -13 -13 -14 -14 -14 -14 -15 -18 -19 -19 -20 -21 -21 -21 -21 -22 -22 -22 -22 -21 -21 -20 -19 -19 -17 -16 -14 -14 -13 -12
-11 -11 -12 -12 -12 -12 -12 -12 -12 -12 -12 -12 -13 -13 -13 -14 -14 -14 -14 -16 -18 -19 -20 -20 -21 -21 -21 -21 -21 -21 -21 -22 -21 -20 -20 -19 -18 -18 -16 -16 -14 -13 -12
-12 -12 -12 -12 -12 -12 -12 -12 -12 -12 -13 -13 -13 -13 -14 -15 -14 -14 -14 -16 -18 -19 -20 -20 -21 -21 -21 -21 -21 -21 -21 -22 -21 -20 -19 -19 -18 -17 -16 -15 -14 -14 -12
-12 -12 -12 -12 -12 -12 -12 -12 -12 -13 -13 -13 -13 -14 -15 -14 -14 -14 -14 -16 -18 -19 -20 -20 -21 -21 -21 -21 -21 -21 -20 -20 -20 -20 -19 -18 -18 -17 -16 -15 -15 -13 -11
-12 -12 -12 -12 -12 -12 -12 -12 -12 -13 -13 -13 -14 -14 -15 -14 -14 -14 -15 -18 -19 -19 -20 -20 -21 -20 -20 -20 -20 -20 -20 -19 -19 -19 -19 -18 -17 -17 -16 -15 -15 -14 -11
-12 -12 -12 -12 -12 -13 -12 -12 -13 -13 -13 -13 -14 -15 -14 -14 -14 -14 -15 -18 -19 -19 -20 -20 -21 -20 -20 -20 -20 -20 -19 -19 -19 -19 -17 -17 -17 -16 -15 -15 -14 -13 -12
-13 -13 -13 -13 -13 -13 -13 -13 -13 -13 -14 -14 -15 -15 -14 -14 -14 -15 -16 -18 -19 -20 -20 -20 -20 -20 -20 -20 -20 -19 -19 -19 -19 -18 -18 -17 -16 -15 -15 -14 -14 -12 -12
-13 -13 -13 -13 -13 -13 -13 -13 -13 -14 -14 -14 -15 -15 -15 -14 -14 -15 -18 -18 -19 -20 -20 -20 -21 -20 -20 -20 -20 -19 -18 -18 -18 -18 -18 -16 -16 -16 -14 -14 -13 -12 -11
-13 -13 -13 -13 -13 -13 -13 -13 -14 -14 -14 -15 -15 -15 -15 -14 -15 -17 -18 -18 -19 -19 -21 -20 -20 -20 -20 -20 -20 -18 -18 -18 -17 -17 -17 -16 -16 -15 -14 -14 -13 -12 -11
-14 -14 -13 -13 -13 -13 -13 -14 -14 -14 -14 -15 -15 -15 -15 -14 -16 -18 -18 -19 -19 -20 -21 -21 -20 -20 -20 -20 -20 -19 -17 -17 -17 -17 -17 -16 -16 -15 -13 -13 -13 -12 -11
-14 -14 -14 -14 -13 -13 -14 -14 -14 -14 -15 -15 -15 -15 -15 -15 -17 -18 -19 -19 -19 -20 -22 -21 -20 -20 -20 -20 -19 -19 -18 -17 -17 -16 -16 -16 -15 -14 -13 -12 -12 -12 -12
-14 -14 -14 -14 -13 -14 -14 -15 -15 -15 -15 -15 -15 -15 -15 -15 -17 -19 -19 -19 -20 -20 -21 -21 -20 -20 -20 -20 -19 -19 -17 -16 -16 -16 -16 -15 -15 -14 -13 -12 -12 -12 -12
-14 -14 -14 -14 -14 -14 -14 -15 -15 -15 -15 -15 -15 -15 -15 -16 -18 -18 -19 -20 -20 -21 -21 -20 -20 -20 -20 -19 -19 -18 -17 -16 -16 -16 -15 -15 -15 -14 -13 -12 -12 -11 -12
-14 -14 -14 -14 -14 -14 -15 -15 -15 -15 -15 -15 -15 -15 -16 -17 -18 -19 -19 -20 -20 -21 -21 -20 -20 -20 -19 -19 -19 -18 -17 -17 -16 -16 -15 -15 -15 -14 -13 -12 -12 -12 -12
-14 -14 -14 -14 -14 -15 -15 -15 -15 -16 -15 -15 -15 -15 -16 -18 -18 -19 -20 -20 -20 -21 -21 -20 -20 -20 -19 -19 -18 -17 -17 -15 -16 -16 -15 -14 -14 -14 -13 -12 -12 -12 -12
-14 -14 -14 -15 -15 -15 -15 -15 -16 -16 -16 -16 -15 -15 -17 -18 -18 -19 -20 -21 -21 -21 -20 -20 -20 -20 -19 -19 -18 -17 -16 -15 -15 -15 -15 -14 -14 -13 -12 -12 -12 -12 -12
-15 -15 -15 -15 -15 -15 -15 -16 -16 -16 -16 -15 -15 -16 -17 -18 -19 -19 -20 -21 -21 -20 -20 -20 -19 -19 -19 -19 -18 -17 -16 -15 -14 -14 -15 -15 -15 -14 -12 -12 -12 -12 -12
-15 -15 -15 -15 -15 -15 -16 -16 -16 -16 -16 -15 -15 -16 -18 -19 -19 -19 -20 -21 -22 -20 -20 -20 -19 -19 -19 -18 -18 -17 -16 -15 -14 -14 -14 -14 -15 -13 -13 -12 -13 -12 -12
-15 -15 -15 -15 -15 -16 -16 -16 -16 -16 -16 -15 -15 -17 -18 -19 -19 -20 -21 -21 -21 -20 -20 -20 -19 -19 -19 -18 -17 -17 -16 -16 -14 -14 -14 -14 -15 -14 -13 -13 -14 -14 -13
-15 -15 -15 -15 -16 -16 -16 -16 -16 -16 -16 -15 -16 -18 -19 -19 -19 -20 -20 -21 -21 -20 -20 -20 -19 -19 -19 -18 -17 -17 -16 -16 -15 -14 -14 -14 -14 -13 -13 -13 -14 -13 -14
-16 -16 -16 -16 -17 -16 -16 -16 -16 -16 -16 -16 -17 -19 -19 -20 -20 -20 -20 -21 -21 -20 -20 -20 -20 -19 -19 -18 -17 -17 -16 -16 -15 -14 -14 -14 -13 -13 -13 -12 -12 -13 -14
-16 -16 -16 -17 -17 -16 -16 -16 -16 -16 -16 -16 -18 -20 -20 -20 -20 -21 -21 -22 -21 -20 -20 -20 -20 -19 -19 -18 -17 -17 -16 -15 -14 -14 -14 -13 -14 -13 -12 -12 -12 -12 -13
-16 -16 -17 -17 -16 -16 -17 -17 -16 -16 -16 -18 -20 -20 -20 -20 -20 -21 -21 -22 -22 -20 -20 -20 -20 -19 -19 -18 -17 -17 -16 -15 -15 -15 -14 -14 -14 -14 -13 -12 -12 -13 -13
-17 -17 -18 -17 -17 -17 -17 -16 -16 -16 -17 -20 -20 -20 -20 -20 -21 -22 -22 -22 -22 -21 -20 -20 -20 -20 -19 -18 -17 -17 -16 -15 -15 -15 -14 -14 -14 -14 -13 -12 -12 -12 -14

GFSGL_500_temp_009.txt.gz
Temp
-11 -11 -11 -11 -11 -11 -11 -11 -11 -11 -11 -11 -11 -12 -12 -12 -12 -12 -13 -13 -14 -14 -14 -14 -16 -18 -18 -19 -21 -21 -21 -21 -22 -22 -22 -22 -22 -21 -19 -17 -15 -15 -13
-11 -11 -11 -11 -11 -11 -11 -12 -12 -12 -11 -11 -12 -12 -12 -12 -12 -13 -13 -14 -14 -14 -14 -15 -17 -19 -19 -20 -21 -21 -21 -22 -21 -21 -22 -21 -21 -20 -19 -17 -17 -15 -14
-11 -11 -11 -12 -12 -12 -12 -12 -12 -12 -12 -12 -12 -12 -13 -13 -13 -13 -13 -14 -14 -14 -14 -15 -17 -19 -19 -20 -21 -21 -21 -21 -21 -22 -22 -21 -21 -19 -18 -17 -16 -14 -14
-12 -12 -12 -12 -12 -12 -12 -12 -12 -12 -12 -12 -12 -13 -13 -13 -13 -13 -13 -14 -14 -14 -15 -16 -18 -19 -19 -20 -21 -21 -21 -21 -21 -22 -21 -21 -20 -19 -17 -16 -15 -15 -14
-12 -12 -12 -12 -12 -12 -12 -12 -12 -12 -12 -12 -13 -13 -13 -13 -13 -13 -14 -14 -14 -14 -15 -17 -18 -19 -20 -20 -20 -21 -21 -21 -21 -21 -21 -21 -19 -18 -17 -18 -16 -15 -14
-12 -12 -12 -13 -13 -13 -13 -12 -12 -12 -12 -12 -13 -13 -13 -13 -13 -13 -14 -14 -14 -14 -16 -18 -19 -19 -20 -20 -20 -21 -20 -21 -21 -20 -21 -20 -19 -18 -17 -17 -16 -16 -15
-13 -13 -13 -13 -13 -13 -13 -13 -13 -12 -13 -13 -13 -13 -13 -13 -13 -14 -14 -14 -14 -14 -16 -18 -19 -20 -20 -20 -20 -21 -20 -20 -20 -20 -20 -19 -19 -19 -18 -16 -17 -16 -14
-13 -13 -13 -13 -13 -13 -13 -13 -13 -13 -13 -13 -13 -13 -13 -13 -14 -14 -14 -14 -14 -15 -17 -18 -19 -20 -20 -20 -20 -20 -20 -20 -19 -20 -20 -19 -19 -19 -17 -17 -15 -14 -14
-14 -14 -14 -13 -13 -14 -14 -13 -13 -13 -13 -13 -13 -14 -13 -14 -14 -14 -14 -14 -14 -15 -17 -18 -19 -20 -21 -20 -20 -20 -20 -20 -19 -19 -19 -18 -19 -18 -17 -16 -16 -14 -13
-14 -14 -13 -13 -14 -14 -14 -13 -13 -13 -13 -13 -14 -14 -14 -14 -14 -14 -14 -14 -14 -16 -17 -19 -19 -20 -21 -20 -20 -20 -20 -19 -19 -19 -19 -19 -18 -18 -17 -16 -16 -15 -14
-14 -13 -13 -14 -14 -14 -14 -14 -14 -13 -13 -14 -14 -14 -14 -14 -14 -14 -14 -15 -15 -16 -18 -18 -19 -21 -22 -20 -20 -20 -19 -19 -18 -18 -18 -18 -18 -17 -17 -16 -15 -14 -13
-13 -13 -14 -14 -14 -14 -14 -14 -14 -14 -14 -14 -14 -14 -14 -15 -14 -14 -14 -15 -16 -17 -18 -19 -20 -21 -21 -20 -20 -20 -19 -18 -18 -18 -17 -18 -18 -17 -17 -16 -15 -15 -14
-14 -14 -14 -14 -14 -14 -14 -14 -14 -14 -14 -14 -14 -14 -15 -15 -14 -14 -14 -15 -17 -17 -19 -19 -20 -20 -20 -20 -20 -20 -19 -18 -18 -18 -18 -17 -17 -17 -16 -16 -16 -15 -14
-15 -15 -15 -15 -15 -15 -14 -14 -14 -14 -14 -14 -14 -15 -15 -15 -14 -14 -14 -16 -17 -18 -19 -19 -20 -20 -20 -20 -20 -20 -19 -19 -18 -18 -17 -17 -17 -16 -15 -15 -15 -14 -14
-15 -15 -15 -15 -15 -14 -14 -14 -14 -14 -14 -14 -15 -15 -15 -15 -15 -14 -15 -17 -18 -18 -19 -20 -20 -20 -20 -20 -20 -19 -20 -17 -17 -17 -17 -17 -16 -16 -16 -15 -15 -14 -13
-15 -15 -15 -15 -15 -14 -14 -14 -14 -14 -14 -15 -15 -15 -15 -15 -15 -14 -16 -17 -18 -18 -19 -20 -20 -20 -20 -20 -20 -19 -19 -17 -17 -17 -17 -16 -16 -16 -15 -15 -14 -13 -12
-15 -15 -15 -15 -15 -14 -14 -14 -15 -14 -15 -15 -15 -15 -15 -15 -14 -14 -16 -18 -18 -18 -20 -20 -20 -20 -20 -20 -19 -19 -19 -18 -17 -17 -16 -16 -16 -16 -16 -15 -14 -12 -12
-15 -14 -14 -15 -15 -15 -15 -15 -15 -15 -15 -15 -15 -15 -15 -15 -14 -14 -17 -18 -19 -18 -20 -20 -20 -20 -20 -20 -19 -19 -19 -17 -17 -16 -16 -16 -15 -16 -15 -13 -13 -12 -12
-15 -15 -15 -15 -15 -15 -15 -15 -15 -15 -15 -16 -16 -15 -15 -15 -14 -15 -17 -18 -18 -18 -20 -21 -20 -20 -20 -20 -19 -19 -19 -17 -17 -16 -16 -16 -15 -15 -15 -12 -12 -12 -12
-15 -15 -15 -15 -15 -15 -15 -15 -15 -15 -15 -16 -16 -15 -15 -15 -15 -16 -18 -18 -18 -18 -19 -20 -20 -20 -20 -20 -19 -19 -18 -16 -16 -16 -15 -16 -15 -15 -15 -12 -12 -12 -12
-15 -15 -15 -15 -15 -15 -15 -15 -15 -16 -16 -16 -15 -15 -15 -15 -15 -17 -18 -18 -19 -18 -19 -20 -19 -20 -20 -19 -19 -18 -17 -17 -16 -16 -16 -15 -15 -15 -14 -13 -12 -12 -12
-16 -16 -16 -16 -15 -16 -16 -16 -16 -16 -16 -16 -16 -15 -15 -15 -17 -18 -19 -19 -19 -18 -19 -20 -19 -20 -19 -19 -19 -19 -18 -17 -17 -15 -16 -15 -15 -14 -14 -13 -12 -13 -12
-16 -16 -16 -16 -16 -16 -16 -16 -16 -16 -16 -16 -15 -15 -15 -16 -17 -19 -19 -19 -19 -18 -20 -20 -19 -19 -19 -19 -19 -18 -18 -17 -17 -16 -16 -16 -16 -15 -14 -13 -13 -13 -13
-17 -17 -17 -16 -16 -16 -16 -17 -16 -16 -16 -16 -15 -15 -16 -17 -18 -19 -20 -19 -18 -19 -20 -20 -19 -19 -19 -19 -19 -18 -17 -17 -17 -16 -15 -15 -15 -15 -14 -13 -14 -13 -13
-16 -16 -16 -16 -17 -16 -17 -17 -16 -16 -16 -16 -15 -16 -17 -18 -19 -20 -20 -19 -19 -20 -21 -20 -19 -19 -19 -19 -19 -18 -17 -17 -16 -15 -16 -16 -15 -15 -14 -14 -14 -13 -13
-17 -17 -17 -17 -17 -17 -17 -17 -17 -16 -16 -16 -16 -17 -18 -19 -20 -20 -20 -19 -20 -21 -21 -20 -19 -19 -19 -19 -19 -18 -17 -16 -16 -16 -16 -15 -14 -15 -14 -13 -13 -13 -13

GFSGL_500_temp_012.txt.gz
Temp
-12 -12 -12 -11 -11 -11 -11 -11 -11 -11 -12 -12 -12 -12 -12 -12 -12 -12 -12 -13 -13 -13 -13 -13 -14 -14 -13 -13 -15 -17 -18 -19 -19 -20 -21 -21 -21 -21 -22 -21 -21 -19 -17
-13 -13 -12 -12 -12 -12 -12 -12 -12 -12 -12 -12 -12 -12 -12 -12 -12 -12 -12 -13 -13 -13 -14 -14 -14 -13 -13 -14 -16 -18 -19 -20 -20 -20 -20 -21 -21 -22 -22 -22 -20 -19 -18
-14 -14 -13 -13 -12 -13 -12 -12 -12 -12 -12 -12 -13 -12 -12 -12 -12 -12 -13 -13 -13 -14 -14 -14 -14 -13 -14 -15 -18 -18 -19 -20 -21 -20 -20 -21 -21 -22 -21 -21 -19 -18 -17
-15 -14 -13 -13 -13 -13 -13 -12 -12 -12 -13 -13 -13 -12 -12 -12 -12 -12 -13 -13 -14 -14 -14 -14 -14 -13 -14 -16 -18 -19 -20 -20 -21 -21 -20 -21 -21 -22 -21 -20 -19 -18 -16
-14 -14 -14 -14 -13 -13 -13 -13 -13 -13 -13 -13 -13 -13 -13 -12 -12 -13 -13 -14 -14 -14 -14 -14 -13 -13 -14 -16 -18 -19 -19 -20 -20 -20 -20 -21 -21 -22 -21 -20 -18 -17 -16
-15 -14 -14 -14 -14 -13 -13 -13 -13 -13 -13 -13 -13 -13 -13 -13 -13 -13 -13 -13 -14 -14 -14 -13 -13 -13 -15 -16 -19 -20 -20 -20 -20 -20 -21 -21 -21 -21 -20 -19 -18 -17 -17
-14 -15 -14 -14 -14 -14 -13 -13 -13 -13 -13 -13 -13 -13 -13 -13 -13 -13 -14 -14 -14 -14 -13 -13 -13 -14 -16 -16 -18 -19 -20 -20 -20 -20 -20 -21 -21 -21 -20 -19 -17 -17 -17
-14 -13 -14 -14 -14 -14 -14 -13 -13 -13 -14 -14 -13 -13 -13 -13 -13 -14 -14 -14 -14 -14 -13 -13 -13 -14 -16 -15 -18 -19 -20 -20 -20 -20 -20 -20 -20 -20 -19 -17 -17 -16 -15
-13 -13 -13 -15 -14 -14 -14 -14 -14 -14 -14 -14 -14 -14 -13 -13 -13 -14 -14 -14 -14 -14 -14 -14 -13 -16 -16 -16 -19 -20 -20 -19 -20 -20 -20 -20 -20 -18 -18 -18 -18 -17 -15
-15 -14 -14 -14 -14 -15 -14 -14 -14 -14 -14 -14 -14 -14 -13 -13 -14 -14 -14 -14 -14 -14 -14 -14 -15 -16 -16 -18 -20 -20 -19 -19 -20 -20 -20 -20 -18 -18 -18 -16 -16 -15 -14
-15 -15 -15 -14 -14 -15 -14 -14 -14 -14 -14 -14 -14 -14 -14 -13 -14 -14 -14 -14 -14 -14 -14 -14 -16 -17 -18 -19 -20 -20 -19 -19 -20 -19 -19 -19 -18 -19 -18 -17 -16 -15 -15
-15 -15 -15 -15 -14 -14 -14 -14 -14 -14 -14 -14 -14 -14 -14 -14 -14 -14 -14 -14 -14 -14 -14 -15 -17 -17 -18 -19 -19 -19 -19 -19 -19 -19 -18 -18 -18 -18 -17 -16 -17 -16 -15
-15 -15 -14 -15 -14 -14 -14 -14 -14 -14 -15 -14 -14 -14 -14 -14 -14 -14 -14 -14 -14 -14 -14 -15 -17 -17 -19 -19 -19 -19 -19 -19 -19 -18 -18 -18 -18 -19 -17 -16 -15 -14 -14
-15 -15 -15 -15 -15 -15 -14 -15 -15 -15 -15 -15 -14 -14 -14 -14 -14 -14 -14 -15 -14 -14 -15 -16 -17 -18 -19 -19 -19 -19 -19 -18 -18 -18 -17 -16 -17 -17 -17 -16 -16 -15 -15
-16 -15 -15 -15 -15 -15 -15 -15 -15 -15 -15 -15 -14 -15 -14 -14 -14 -15 -15 -15 -14 -14 -15 -17 -18 -18 -19 -19 -19 -20 -20 -19 -18 -18 -18 -16 -17 -17 -17 -17 -16 -16 -15
-15 -15 -14 -15 -15 -15 -15 -15 -15 -15 -15 -15 -15 -15 -15 -15 -15 -15 -15 -15 -14 -14 -16 -18 -18 -18 -19 -19 -19 -19 -19 -19 -18 -18 -18 -18 -17 -16 -17 -17 -17 -16 -14
-15 -15 -15 -15 -15 -15 -15 -15 -15 -15 -15 -15 -15 -15 -15 -15 -15 -15 -15 -15 -14 -15 -16 -18 -18 -18 -19 -20 -19 -19 -19 -19 -18 -18 -17 -18 -17 -16 -16 -17 -16 -16 -15
-15 -16 -16 -15 -15 -15 -15 -15 -15 -15 -15 -15 -15 -15 -15 -16 -15 -15 -15 -14 -14 -15 -17 -18 -18 -19 -20 -20 -19 -19 -19 -18 -18 -18 -18 -17 -17 -17 -16 -16 -16 -16 -15
-16 -16 -15 -15 -15 -15 -15 -15 -15 -15 -15 -15 -15 -15 -15 -15 -15 -15 -15 -14 -14 -15 -17 -18 -18 -19 -20 -20 -19 -19 -19 -18 -18 -18 -18 -17 -17 -17 -15 -15 -15 -15 -15
-15 -15 -16 -16 -15 -16 -15 -15 -15 -15 -15 -15 -15 -15 -15 -15 -15 -15 -15 -15 -15 -16 -18 -18 -18 -18 -20 -20 -19 -19 -19 -19 -18 -17 -17 -17 -17 -17 -16 -15 -15 -15 -14
-16 -15 -16 -16 -16 -16 -15 -15 -15 -15 -15 -15 -15 -16 -16 -15 -15 -15 -15 -15 -15 -16 -18 -18 -18 -19 -20 -19 -19 -19 -19 -19 -18 -17 -17 -17 -16 -16 -16 -15 -14 -14 -14
-16 -16 -16 -16 -16 -16 -16 -16 -16 -15 -15 -16 -16 -16 -16 -15 -15 -15 -15 -15 -16 -18 -18 -18 -18 -19 -20 -19 -19 -19 -19 -18 -18 -17 -17 -17 -16 -16 -16 -15 -14 -14 -13
-16 -16 -15 -15 -16 -16 -16 -16 -16 -16 -16 -16 -16 -16 -16 -15 -15 -15 -15 -16 -18 -19 -19 -18 -18 -19 -20 -19 -19 -19 -18 -18 -17 -17 -17 -17 -16 -16 -16 -15 -14 -13 -13
-16 -16 -16 -16 -16 -17 -17 -17 -16 -16 -16 -16 -16 -16 -15 -15 -15 -15 -16 -17 -19 -19 -19 -18 -18 -19 -20 -19 -19 -19 -19 -18 -17 -17 -16 -16 -15 -15 -15 -15 -14 -13 -13
-16 -16 -17 -17 -17 -17 -17 -17 -17 -17 -17 -16 -16 -16 -15 -15 -15 -16 -17 -19 -19 -19 -19 -19 -19 -20 -20 -19 -19 -19 -19 -18 -17 -16 -16 -16 -15 -15 -15 -15 -14 -13 -13
-17 -17 -17 -17 -17 -17 -17 -17 -17 -17 -17 -16 -16 -16 -16 -15 -16 -16 -19 -20 -20 -19 -19 -19 -20 -21 -20 -19 -19 -19 -19 -18 -17 -17 -16 -16 -16 -15 -15 -15 -15 -14 -12

GFSGL_500_temp_015.txt.gz
Temp
-11 -12 -12 -12 -12 -12 -12 -12 -11 -11 -12 -12 -12 -12 -12 -12 -12 -12 -12 -12 -12 -12 -12 -12 -12 -12 -13 -13 -13 -13 -13 -12 -13 -16 -17 -19 -20 -20 -21 -21 -21 -21 -21
-12 -12 -13 -13 -12 -12 -12 -12 -12 -12 -12 -12 -12 -12 -12 -12 -12 -12 -12 -12 -12 -12 -12 -12 -12 -13 -13 -13 -13 -13 -13 -13 -15 -16 -19 -20 -20 -21 -21 -20 -21 -21 -21
-12 -13 -13 -13 -13 -13 -13 -12 -12 -12 -12 -12 -12 -12 -12 -12 -12 -12 -12 -12 -12 -12 -13 -13 -13 -13 -13 -13 -13 -13 -13 -14 -16 -18 -20 -20 -21 -20 -20 -21 -21 -22 -21
-14 -14 -13 -13 -14 -14 -13 -13 -13 -13 -13 -13 -13 -13 -12 -13 -13 -13 -13 -13 -13 -13 -13 -13 -13 -13 -13 -13 -13 -13 -13 -15 -16 -19 -20 -20 -20 -21 -20 -21 -21 -21 -19
-14 -14 -14 -14 -14 -14 -14 -13 -13 -13 -13 -13 -13 -13 -13 -13 -13 -13 -13 -13 -13 -13 -13 -13 -13 -13 -13 -13 -13 -13 -13 -14 -16 -19 -20 -20 -20 -20 -20 -21 -21 -19 -18
-15 -15 -15 -15 -15 -14 -14 -14 -13 -13 -13 -13 -13 -13 -13 -13 -13 -13 -13 -13 -13 -13 -13 -13 -14 -14 -14 -13 -13 -13 -14 -15 -18 -20 -20 -20 -20 -21 -21 -21 -20 -19 -17
-16 -15 -15 -15 -14 -14 -14 -14 -14 -14 -14 -14 -13 -13 -13 -13 -13 -13 -13 -13 -13 -13 -13 -13 -14 -14 -14 -13 -14 -14 -15 -18 -20 -20 -20 -20 -20 -20 -20 -21 -19 -17 -16
-15 -15 -15 -15 -15 -14 -14 -14 -14 -14 -14 -14 -14 -14 -14 -13 -13 -13 -13 -13 -13 -13 -13 -13 -14 -14 -13 -13 -14 -15 -17 -19 -19 -19 -19 -19 -20 -20 -20 -19 -18 -16 -16
-15 -15 -15 -15 -15 -15 -14 -14 -14 -14 -14 -14 -14 -14 -14 -14 -14 -14 -14 -14 -13 -14 -13 -14 -14 -13 -14 -14 -14 -16 -19 -19 -19 -19 -20 -20 -20 -20 -20 -18 -17 -16 -17
-15 -15 -15 -15 -15 -15 -15 -15 -15 -14 -14 -14 -14 -14 -14 -14 -14 -14 -14 -14 -14 -14 -14 -14 -14 -14 -14 -14 -15 -17 -19 -19 -19 -19 -19 -20 -20 -21 -19 -17 -15 -16 -16
-16 -15 -15 -15 -15 -15 -15 -15 -15 -15 -14 -14 -14 -14 -14 -14 -14 -14 -14 -14 -14 -14 -14 -14 -14 -14 -14 -14 -16 -18 -19 -19 -19 -19 -19 -20 -20 -20 -19 -17 -16 -17 -16
-16 -16 -16 -15 -15 -15 -15 -15 -15 -15 -14 -14 -14 -14 -14 -14 -14 -14 -14 -14 -14 -14 -14 -14 -14 -14 -15 -15 -16 -19 -19 -19 -19 -20 -19 -20 -20 -19 -19 -18 -17 -16 -16
-17 -16 -15 -15 -15 -15 -15 -15 -15 -15 -15 -14 -14 -14 -14 -14 -15 -14 -14 -14 -14 -15 -14 -14 -14 -14 -15 -16 -16 -19 -19 -19 -19 -19 -19 -19 -19 -19 -19 -17 -18 -17 -17
-16 -16 -16 -15 -15 -15 -15 -15 -15 -15 -15 -14 -14 -14 -15 -15 -15 -14 -14 -14 -14 -15 -14 -14 -14 -14 -15 -16 -16 -19 -19 -19 -18 -19 -19 -19 -19 -18 -17 -16 -16 -16 -16
-16 -16 -16 -15 -16 -16 -16 -15 -15 -15 -15 -15 -15 -15 -15 -15 -15 -14 -14 -14 -14 -15 -14 -14 -14 -14 -15 -17 -17 -19 -19 -19 -18 -18 -18 -18 -18 -18 -17 -15 -16 -16 -15
-17 -16 -16 -16 -16 -16 -16 -15 -15 -15 -15 -15 -15 -15 -15 -15 -15 -15 -15 -15 -14 -15 -15 -15 -14 -15 -16 -17 -17 -19 -19 -19 -18 -18 -18 -18 -18 -18 -17 -17 -17 -16 -15
-17 -16 -16 -16 -15 -15 -15 -15 -15 -15 -15 -15 -15 -15 -15 -15 -15 -15 -15 -15 -15 -15 -15 -15 -14 -15 -16 -17 -17 -19 -18 -19 -18 -18 -17 -17 -17 -17 -17 -16 -16 -15 -15
-16 -16 -16 -15 -16 -16 -16 -16 -15 -15 -15 -14 -14 -14 -15 -15 -15 -15 -15 -15 -15 -15 -15 -15 -15 -15 -17 -18 -18 -19 -18 -18 -18 -17 -17 -17 -17 -16 -16 -16 -16 -15 -16
-16 -16 -16 -16 -16 -16 -16 -16 -16 -15 -15 -15 -14 -15 -15 -15 -15 -15 -15 -15 -15 -15 -15 -15 -15 -16 -17 -18 -17 -19 -19 -18 -18 -18 -17 -17 -17 -17 -16 -16 -16 -15 -15
-16 -16 -16 -16 -16 -16 -16 -16 -16 -15 -15 -15 -15 -15 -15 -15 -15 -15 -14 -15 -15 -15 -15 -15 -15 -16 -17 -18 -17 -19 -19 -19 -19 -18 -17 -17 -17 -17 -16 -16 -16 -16 -16
-16 -17 -17 -16 -16 -16 -16 -16 -16 -16 -15 -15 -15 -15 -15 -15 -15 -15 -15 -15 -15 -15 -15 -14 -14 -17 -18 -18 -18 -19 -19 -19 -19 -18 -17 -17 -17 -17 -16 -15 -16 -17 -17
-18 -17 -17 -16 -16 -16 -16 -16 -16 -15 -15 -15 -15 -15 -16 -15 -15 -15 -15 -15 -15 -15 -14 -14 -15 -18 -18 -18 -18 -19 -19 -19 -18 -18 -18 -17 -17 -17 -17 -16 -15 -16 -16
-17 -17 -17 -17 -16 -16 -16 -16 -16 -15 -16 -16 -16 -16 -16 -16 -15 -15 -15 -15 -15 -14 -14 -14 -17 -18 -18 -18 -19 -19 -19 -18 -18 -18 -17 -17 -17 -17 -17 -16 -16 -16 -15
-18 -17 -17 -16 -16 -16 -16 -16 -16 -16 -16 -16 -16 -16 -17 -16 -16 -16 -16 -15 -15 -14 -14 -15 -18 -18 -18 -18 -19 -19 -19 -19 -19 -18 -18 -17 -17 -17 -17 -17 -16 -15 -15
-18 -17 -16 -16 -16 -16 -16 -16 -17 -17 -17 -17 -17 -17 -17 -16 -16 -16 -15 -15 -15 -14 -15 -17 -18 -18 -18 -18 -19 -19 -19 -19 -19 -19 -18 -17 -17 -17 -17 -17 -16 -15 -15
-17 -17 -16 -16 -16 -17 -17 -17 -17 -17 -17 -18 -17 -17 -16 -16 -16 -16 -15 -15 -15 -15 -17 -18 -18 -18 -18 -18 -19 -19 -19 -19 -19 -18 -18 -17 -16 -16 -16 -16 -16 -15 -14

GFSGL_500_temp_021.txt.gz
Temp
-15 -14 -13 -11 -11 -12 -12 -11 -11 -11 -10 -10 -10 -10 -11 -11 -12 -12 -12 -12 -12 -12 -12 -11 -12 -12 -12 -12 -12 -11 -11 -11 -11 -11 -11 -12 -12 -12 -11 -12 -12 -13 -15
-17 -17 -17 -15 -14 -13 -13 -12 -11 -11 -11 -11 -11 -11 -12 -12 -12 -12 -12 -12 -12 -12 -12 -12 -12 -12 -12 -12 -12 -12 -12 -12 -12 -11 -12 -12 -12 -12 -12 -13 -16 -18 -19
-17 -18 -17 -16 -15 -15 -14 -13 -12 -12 -12 -12 -12 -12 -12 -12 -13 -13 -12 -12 -12 -12 -12 -12 -12 -12 -12 -12 -12 -12 -12 -12 -12 -12 -12 -12 -12 -13 -14 -18 -18 -19 -19
-19 -18 -17 -17 -16 -15 -15 -14 -14 -13 -13 -13 -13 -13 -13 -13 -13 -13 -13 -13 -13 -13 -12 -12 -13 -13 -12 -12 -12 -12 -12 -12 -12 -12 -13 -13 -13 -15 -17 -18 -18 -19 -19
-21 -19 -17 -17 -16 -15 -15 -14 -14 -14 -13 -14 -13 -13 -13 -13 -13 -14 -13 -13 -13 -13 -13 -13 -13 -13 -12 -12 -13 -13 -13 -12 -12 -12 -12 -13 -14 -17 -19 -19 -18 -18 -19
-23 -19 -18 -16 -16 -16 -15 -15 -14 -14 -14 -14 -14 -14 -14 -14 -14 -14 -14 -13 -13 -13 -13 -13 -13 -13 -13 -13 -13 -13 -13 -13 -12 -12 -13 -13 -16 -19 -19 -19 -18 -19 -19
-24 -22 -18 -16 -16 -16 -15 -15 -15 -14 -14 -15 -15 -15 -15 -15 -14 -14 -14 -13 -13 -13 -13 -13 -13 -13 -13 -13 -13 -13 -13 -13 -13 -12 -13 -15 -18 -19 -19 -18 -18 -19 -20
-24 -23 -21 -17 -16 -16 -15 -15 -15 -15 -15 -15 -15 -15 -15 -15 -14 -14 -14 -14 -14 -13 -13 -13 -13 -13 -13 -13 -13 -13 -13 -13 -13 -13 -13 -15 -19 -19 -18 -18 -19 -20 -21
-24 -24 -23 -19 -18 -17 -16 -15 -15 -15 -15 -15 -15 -15 -15 -15 -15 -14 -14 -14 -14 -14 -13 -13 -13 -13 -13 -13 -13 -13 -13 -13 -13 -13 -14 -17 -19 -19 -19 -19 -20 -20 -20
-24 -24 -24 -21 -19 -17 -17 -16 -15 -15 -16 -15 -15 -15 -15 -15 -15 -15 -15 -14 -14 -14 -14 -14 -14 -14 -13 -13 -13 -13 -13 -13 -13 -13 -15 -19 -19 -19 -19 -20 -20 -20 -18
-24 -24 -23 -23 -20 -18 -16 -16 -15 -15 -16 -16 -16 -16 -16 -15 -15 -15 -15 -15 -14 -14 -14 -14 -14 -14 -13 -13 -13 -13 -13 -13 -13 -14 -16 -19 -19 -18 -20 -20 -21 -19 -17
-23 -23 -23 -23 -20 -18 -17 -16 -16 -15 -16 -16 -16 -16 -15 -15 -16 -15 -15 -15 -15 -14 -14 -14 -14 -14 -13 -13 -13 -13 -13 -13 -13 -14 -18 -19 -18 -19 -19 -20 -19 -17 -16
-23 -23 -22 -22 -20 -18 -17 -16 -16 -16 -16 -16 -15 -14 -15 -15 -15 -15 -15 -15 -14 -14 -14 -15 -14 -14 -14 -13 -14 -13 -13 -13 -13 -15 -18 -18 -18 -19 -19 -19 -18 -17 -15
-23 -22 -22 -22 -20 -18 -17 -16 -16 -16 -16 -16 -15 -15 -15 -15 -15 -15 -15 -14 -14 -15 -15 -15 -14 -14 -14 -14 -14 -13 -13 -13 -13 -16 -18 -18 -18 -19 -19 -19 -18 -18 -15
-23 -22 -21 -21 -19 -17 -17 -17 -16 -16 -16 -16 -15 -16 -16 -15 -15 -15 -15 -15 -15 -15 -15 -15 -15 -14 -14 -14 -14 -14 -14 -13 -13 -16 -18 -17 -18 -18 -18 -19 -18 -16 -15
-23 -21 -21 -21 -19 -17 -17 -16 -16 -16 -17 -15 -16 -16 -15 -15 -15 -15 -15 -15 -15 -15 -15 -15 -15 -14 -14 -14 -14 -14 -14 -14 -13 -16 -18 -17 -18 -18 -17 -17 -17 -17 -14
-23 -21 -21 -20 -18 -17 -16 -16 -15 -16 -15 -15 -15 -15 -15 -15 -15 -15 -15 -15 -15 -15 -15 -15 -15 -14 -14 -14 -14 -14 -14 -14 -13 -16 -17 -17 -17 -17 -18 -17 -16 -15 -14
-22 -20 -21 -19 -18 -16 -15 -16 -15 -15 -15 -15 -14 -15 -16 -15 -15 -15 -15 -15 -15 -15 -15 -15 -15 -14 -14 -14 -14 -14 -14 -14 -14 -15 -17 -17 -16 -16 -15 -15 -15 -14 -14
-20 -20 -19 -18 -17 -17 -16 -15 -15 -15 -15 -16 -16 -16 -16 -16 -16 -15 -15 -15 -15 -15 -15 -15 -15 -15 -14 -14 -14 -14 -14 -14 -14 -15 -17 -17 -17 -16 -16 -16 -16 -16 -15
-19 -19 -18 -17 -17 -17 -16 -15 -16 -16 -16 -16 -16 -16 -16 -16 -16 -16 -15 -15 -15 -15 -15 -15 -15 -15 -14 -14 -14 -14 -14 -14 -13 -15 -17 -17 -16 -16 -15 -16 -16 -16 -15
-19 -18 -17 -17 -17 -17 -16 -17 -16 -16 -16 -16 -16 -16 -16 -16 -16 -15 -15 -15 -15 -15 -15 -15 -15 -15 -15 -14 -14 -14 -14 -14 -14 -15 -16 -17 -17 -16 -15 -16 -16 -16 -15
-20 -19 -18 -17 -17 -16 -16 -17 -16 -16 -16 -16 -16 -16 -16 -16 -16 -15 -15 -15 -15 -15 -15 -15 -16 -15 -15 -14 -14 -14 -14 -14 -14 -14 -15 -17 -17 -17 -16 -15 -16 -15 -15
-19 -19 -19 -19 -18 -17 -16 -16 -17 -16 -16 -16 -16 -16 -16 -16 -16 -16 -15 -16 -15 -15 -16 -16 -15 -15 -15 -15 -15 -14 -14 -14 -15 -15 -14 -17 -17 -17 -16 -16 -16 -15 -15
-19 -18 -17 -17 -17 -16 -16 -16 -16 -16 -16 -16 -16 -16 -16 -16 -16 -16 -16 -16 -16 -17 -17 -16 -15 -15 -15 -15 -14 -14 -14 -15 -15 -15 -15 -17 -18 -17 -17 -17 -16 -15 -16
-18 -18 -18 -17 -17 -17 -17 -16 -17 -16 -16 -16 -16 -16 -16 -16 -16 -16 -16 -17 -18 -17 -16 -16 -15 -15 -15 -15 -15 -15 -15 -16 -17 -17 -16 -17 -18 -18 -17 -17 -16 -16 -16
-18 -18 -17 -17 -17 -17 -17 -16 -16 -16 -16 -17 -17 -17 -17 -17 -17 -18 -18 -17 -17 -16 -16 -16 -16 -15 -15 -15 -15 -15 -15 -17 -18 -18 -18 -18 -19 -18 -17 -17 -17 -16 -16

GFSGL_500_temp_024.txt.gz
Temp
-20 -19 -19 -18 -16 -15 -15 -14 -13 -12 -11 -10 -12 -12 -10 -10 -11 -11 -12 -12 -12 -12 -12 -12 -12 -12 -12 -12 -12 -12 -12 -12 -11 -12 -12 -12 -12 -12 -11 -11 -11 -11 -11
-24 -24 -22 -20 -19 -17 -16 -15 -13 -12 -11 -10 -12 -13 -11 -10 -12 -12 -12 -12 -12 -12 -12 -12 -12 -12 -12 -12 -12 -12 -12 -12 -12 -12 -12 -12 -12 -12 -12 -12 -11 -11 -12
-24 -24 -24 -22 -19 -19 -18 -17 -16 -15 -15 -11 -12 -13 -13 -11 -12 -13 -13 -13 -13 -13 -13 -13 -13 -12 -12 -12 -12 -12 -12 -12 -12 -12 -12 -12 -12 -12 -12 -12 -12 -12 -14
-25 -25 -24 -24 -21 -18 -18 -17 -17 -17 -17 -14 -13 -13 -13 -12 -13 -13 -14 -13 -13 -13 -13 -13 -13 -13 -13 -13 -13 -13 -13 -12 -12 -12 -12 -12 -12 -12 -12 -12 -13 -15 -17
-25 -25 -25 -24 -23 -22 -18 -17 -17 -16 -16 -15 -14 -13 -13 -13 -14 -14 -14 -14 -14 -14 -13 -13 -13 -13 -13 -13 -13 -13 -13 -12 -13 -12 -12 -12 -13 -13 -13 -13 -15 -17 -19
-25 -25 -25 -24 -24 -23 -19 -18 -17 -17 -16 -16 -14 -14 -14 -14 -14 -14 -14 -14 -14 -14 -14 -13 -13 -13 -13 -13 -13 -13 -13 -13 -13 -13 -12 -12 -13 -13 -13 -15 -17 -19 -19
-26 -25 -25 -24 -24 -23 -20 -19 -18 -17 -16 -16 -15 -15 -14 -14 -15 -15 -15 -15 -14 -14 -14 -14 -14 -13 -14 -14 -14 -13 -13 -13 -13 -12 -12 -13 -13 -13 -14 -16 -19 -19 -20
-26 -25 -25 -25 -24 -23 -21 -19 -19 -17 -16 -16 -15 -15 -15 -15 -15 -16 -15 -15 -15 -14 -14 -14 -14 -14 -14 -14 -14 -14 -13 -13 -13 -13 -12 -13 -13 -13 -15 -18 -19 -20 -21
-26 -26 -25 -26 -24 -24 -21 -20 -19 -17 -16 -16 -15 -15 -15 -15 -16 -16 -15 -15 -15 -15 -15 -14 -14 -14 -14 -14 -14 -14 -14 -13 -13 -13 -12 -13 -13 -14 -17 -18 -19 -19 -20
-26 -26 -25 -26 -24 -24 -22 -20 -19 -17 -16 -16 -16 -16 -16 -16 -16 -16 -16 -15 -15 -15 -15 -15 -15 -14 -14 -14 -14 -14 -14 -14 -13 -13 -13 -13 -13 -17 -18 -19 -18 -20 -19
-27 -26 -25 -25 -25 -24 -22 -20 -18 -17 -17 -16 -16 -16 -16 -16 -16 -16 -15 -15 -15 -15 -15 -15 -15 -15 -14 -14 -14 -14 -14 -14 -13 -13 -13 -13 -15 -17 -18 -17 -19 -19 -19
-27 -26 -25 -24 -24 -24 -23 -19 -17 -18 -17 -16 -16 -15 -16 -16 -17 -16 -16 -15 -15 -15 -15 -15 -15 -15 -15 -14 -14 -14 -14 -13 -13 -13 -13 -13 -15 -18 -18 -18 -17 -18 -17
-27 -26 -25 -24 -23 -23 -22 -19 -18 -18 -17 -16 -15 -15 -16 -16 -16 -16 -16 -15 -16 -15 -15 -15 -15 -15 -15 -15 -14 -14 -14 -13 -13 -13 -13 -14 -16 -17 -17 -18 -16 -16 -16
-27 -26 -25 -24 -23 -23 -23 -20 -18 -18 -17 -17 -17 -16 -16 -16 -16 -16 -15 -15 -16 -15 -15 -15 -15 -15 -15 -15 -14 -14 -14 -13 -13 -13 -13 -14 -16 -16 -17 -18 -16 -15 -15
-27 -26 -24 -23 -23 -22 -22 -20 -18 -17 -17 -17 -16 -16 -16 -17 -17 -16 -15 -15 -15 -15 -15 -15 -15 -14 -15 -15 -14 -14 -14 -13 -13 -13 -13 -14 -15 -16 -17 -17 -16 -15 -15
-26 -25 -24 -23 -22 -22 -22 -20 -18 -17 -17 -17 -16 -17 -17 -16 -16 -15 -15 -15 -15 -15 -15 -15 -15 -15 -15 -15 -14 -14 -14 -14 -13 -13 -13 -14 -15 -16 -17 -16 -16 -15 -15
-25 -24 -24 -23 -21 -21 -21 -19 -18 -17 -17 -17 -16 -16 -16 -16 -15 -15 -15 -15 -15 -16 -15 -15 -15 -15 -15 -15 -15 -14 -14 -14 -13 -13 -13 -14 -15 -16 -16 -16 -16 -15 -15
-24 -24 -23 -22 -21 -21 -21 -19 -18 -18 -17 -15 -16 -16 -16 -15 -15 -15 -15 -15 -16 -16 -16 -15 -15 -15 -15 -15 -15 -14 -14 -14 -13 -13 -13 -14 -15 -15 -15 -15 -15 -15 -15
-24 -24 -23 -22 -21 -21 -20 -18 -17 -17 -16 -16 -16 -15 -15 -15 -16 -16 -16 -16 -16 -16 -15 -15 -15 -15 -15 -15 -15 -14 -14 -14 -13 -13 -13 -14 -14 -15 -14 -15 -15 -15 -15
-24 -23 -21 -21 -20 -20 -19 -18 -17 -16 -16 -16 -16 -16 -17 -16 -16 -16 -16 -16 -16 -16 -15 -15 -15 -15 -15 -15 -15 -14 -14 -14 -13 -13 -13 -13 -14 -15 -14 -15 -15 -16 -14
-22 -21 -21 -21 -19 -19 -18 -17 -17 -17 -16 -16 -16 -16 -16 -16 -16 -16 -16 -16 -16 -15 -15 -15 -15 -15 -15 -15 -15 -14 -14 -14 -13 -14 -13 -13 -14 -15 -14 -15 -15 -14 -15
-21 -20 -19 -19 -19 -18 -18 -17 -16 -16 -16 -16 -16 -16 -16 -16 -16 -16 -16 -15 -15 -15 -15 -15 -15 -15 -15 -15 -14 -14 -14 -14 -13 -13 -14 -13 -14 -14 -15 -14 -15 -15 -15
-20 -20 -19 -19 -18 -18 -17 -16 -16 -16 -17 -16 -17 -16 -16 -16 -17 -16 -16 -16 -16 -16 -16 -16 -16 -16 -15 -15 -15 -15 -14 -14 -14 -14 -14 -13 -13 -14 -14 -14 -14 -14 -15
-21 -20 -20 -20 -19 -18 -18 -17 -17 -17 -17 -16 -16 -16 -17 -16 -16 -16 -16 -16 -16 -16 -16 -16 -16 -16 -16 -15 -15 -15 -15 -14 -14 -14 -14 -14 -13 -13 -15 -14 -14 -14 -15
-20 -19 -19 -19 -18 -18 -17 -17 -17 -17 -16 -17 -16 -16 -16 -16 -16 -16 -16 -16 -16 -17 -16 -16 -16 -16 -16 -15 -15 -15 -15 -15 -14 -14 -14 -14 -14 -13 -14 -15 -16 -14 -15
-19 -19 -19 -18 -18 -17 -17 -17 -17 -17 -16 -16 -16 -16 -16 -16 -16 -16 -16 -17 -17 -17 -17 -17 -16 -16 -15 -15 -15 -15 -15 -15 -15 -14 -14 -14 -14 -14 -14 -16 -16 -16 -14

GFSGL_500_temp_030.txt.gz
Temp
-19 -20 -22 -23 -24 -24 -24 -22 -21 -21 -19 -18 -17 -15 -14 -13 -13 -13 -13 -13 -12 -12 -12 -12 -12 -12 -12 -12 -12 -12 -12 -12 -13 -13 -13 -13 -13 -13 -13 -13 -13 -13 -13
-23 -24 -25 -26 -26 -26 -26 -26 -25 -24 -23 -22 -20 -17 -15 -15 -14 -14 -14 -13 -13 -13 -13 -13 -13 -13 -13 -13 -12 -12 -13 -12 -13 -13 -13 -13 -13 -13 -13 -13 -13 -13 -13
-26 -27 -27 -27 -26 -26 -26 -26 -26 -26 -26 -25 -24 -23 -20 -19 -18 -16 -16 -15 -13 -14 -14 -14 -13 -13 -13 -13 -13 -13 -13 -13 -13 -13 -13 -14 -14 -13 -13 -13 -13 -13 -13
-27 -27 -27 -27 -27 -27 -27 -27 -27 -26 -26 -25 -25 -24 -23 -23 -22 -20 -18 -16 -14 -16 -16 -15 -14 -14 -14 -14 -13 -13 -13 -13 -13 -13 -13 -14 -14 -14 -14 -14 -14 -14 -13
-27 -27 -27 -27 -27 -27 -27 -27 -27 -27 -26 -25 -25 -25 -24 -24 -23 -22 -21 -17 -17 -16 -17 -16 -15 -15 -14 -14 -14 -14 -13 -13 -13 -13 -13 -14 -14 -14 -14 -14 -13 -13 -13
-27 -27 -27 -27 -27 -27 -27 -27 -27 -27 -26 -25 -25 -25 -24 -24 -23 -22 -21 -19 -19 -18 -17 -16 -15 -15 -15 -14 -14 -14 -14 -13 -14 -14 -14 -14 -14 -14 -14 -13 -13 -13 -14
-27 -28 -28 -27 -28 -27 -28 -28 -27 -27 -26 -26 -25 -24 -24 -24 -23 -22 -22 -20 -19 -18 -17 -16 -16 -16 -15 -14 -14 -14 -14 -14 -14 -14 -14 -14 -14 -14 -14 -13 -14 -13 -14
-27 -28 -28 -28 -28 -28 -28 -28 -27 -27 -26 -26 -25 -25 -23 -23 -22 -22 -20 -19 -18 -17 -17 -17 -16 -16 -15 -15 -14 -14 -14 -14 -14 -14 -14 -14 -14 -14 -13 -13 -14 -13 -14
-27 -28 -29 -28 -28 -28 -28 -28 -27 -27 -26 -26 -24 -24 -24 -22 -22 -21 -20 -18 -18 -17 -17 -17 -16 -16 -15 -15 -15 -14 -14 -14 -14 -14 -14 -14 -14 -13 -13 -13 -13 -13 -15
-27 -28 -28 -29 -28 -28 -28 -28 -27 -27 -26 -25 -24 -24 -22 -21 -21 -21 -19 -18 -18 -17 -17 -16 -16 -16 -15 -15 -15 -15 -15 -14 -14 -14 -14 -14 -13 -13 -13 -13 -13 -15 -16
-27 -27 -28 -28 -28 -28 -28 -27 -27 -26 -26 -25 -24 -22 -21 -21 -20 -20 -18 -18 -18 -17 -17 -16 -16 -16 -16 -15 -15 -15 -15 -15 -14 -14 -14 -13 -13 -13 -13 -13 -16 -16 -16
-27 -27 -27 -28 -28 -28 -28 -27 -27 -26 -25 -24 -22 -21 -21 -20 -20 -19 -17 -17 -17 -16 -17 -16 -16 -16 -16 -16 -15 -15 -15 -14 -14 -14 -13 -13 -13 -13 -13 -15 -16 -16 -16
-26 -27 -28 -28 -28 -28 -28 -27 -27 -25 -25 -24 -22 -21 -20 -20 -19 -18 -17 -17 -17 -17 -17 -17 -16 -16 -16 -15 -15 -15 -15 -14 -14 -13 -14 -13 -13 -13 -14 -15 -16 -16 -16
-26 -27 -28 -28 -28 -28 -27 -27 -25 -25 -24 -23 -21 -20 -20 -20 -18 -18 -17 -17 -17 -17 -16 -16 -16 -16 -16 -15 -15 -15 -15 -14 -14 -14 -13 -13 -13 -13 -14 -15 -15 -16 -16
-27 -28 -28 -27 -28 -27 -27 -26 -24 -25 -24 -22 -20 -20 -20 -19 -18 -17 -17 -16 -16 -16 -16 -16 -16 -16 -16 -16 -15 -15 -14 -14 -14 -14 -13 -13 -13 -14 -14 -14 -14 -15 -17
-27 -27 -27 -27 -27 -27 -26 -25 -24 -24 -22 -21 -20 -20 -19 -18 -18 -17 -18 -17 -16 -16 -16 -16 -16 -16 -16 -16 -15 -15 -14 -14 -14 -14 -13 -13 -13 -14 -14 -14 -14 -15 -16
-26 -27 -27 -27 -27 -26 -24 -24 -25 -24 -21 -20 -20 -19 -18 -17 -17 -17 -16 -16 -16 -16 -16 -16 -16 -16 -16 -15 -15 -15 -14 -14 -14 -14 -13 -13 -13 -14 -14 -15 -14 -15 -14
-26 -26 -26 -26 -25 -24 -24 -24 -24 -22 -20 -19 -20 -18 -17 -17 -17 -17 -16 -16 -16 -16 -16 -16 -16 -16 -15 -15 -15 -15 -14 -14 -14 -14 -14 -13 -13 -14 -14 -14 -14 -14 -14
-25 -25 -24 -24 -23 -23 -23 -24 -22 -20 -19 -19 -19 -17 -17 -17 -17 -16 -16 -16 -16 -16 -17 -17 -16 -16 -15 -15 -15 -15 -14 -14 -14 -14 -14 -13 -14 -15 -15 -15 -14 -14 -14
-24 -24 -23 -23 -23 -22 -23 -22 -20 -19 -19 -19 -17 -17 -17 -17 -17 -16 -16 -16 -16 -16 -17 -17 -16 -16 -15 -15 -15 -15 -15 -14 -14 -14 -14 -14 -14 -15 -15 -15 -15 -14 -14
-23 -22 -23 -22 -22 -22 -22 -20 -20 -19 -19 -18 -17 -17 -17 -17 -17 -17 -16 -16 -17 -17 -16 -16 -16 -16 -15 -15 -15 -15 -15 -14 -14 -14 -14 -14 -14 -15 -15 -15 -14 -14 -14
-23 -22 -22 -21 -21 -22 -20 -20 -20 -19 -18 -17 -17 -17 -17 -17 -17 -16 -16 -17 -17 -17 -17 -16 -16 -15 -15 -15 -15 -15 -15 -14 -14 -14 -14 -14 -14 -15 -16 -15 -15 -14 -14
-23 -22 -21 -21 -21 -20 -20 -19 -19 -19 -18 -18 -18 -18 -17 -17 -17 -17 -16 -16 -17 -17 -16 -16 -16 -15 -15 -15 -15 -15 -15 -14 -14 -14 -14 -14 -14 -14 -15 -15 -15 -15 -15
-22 -22 -21 -21 -21 -19 -19 -18 -18 -18 -18 -18 -18 -18 -18 -17 -17 -17 -17 -17 -17 -16 -16 -16 -16 -15 -15 -15 -15 -15 -15 -15 -15 -15 -14 -14 -14 -14 -14 -15 -15 -16 -15
-21 -22 -22 -21 -20 -19 -19 -18 -18 -18 -18 -18 -18 -18 -17 -17 -17 -17 -17 -17 -17 -16 -16 -16 -16 -16 -15 -15 -15 -15 -15 -15 -15 -15 -15 -14 -14 -14 -14 -14 -14 -15 -15
-20 -20 -20 -20 -19 -19 -18 -18 -17 -17 -17 -18 -18 -18 -17 -17 -17 -17 -17 -17 -16 -16 -16 -16 -16 -16 -16 -16 -16 -16 -16 -15 -15 -15 -15 -15 -15 -14 -14 -14 -14 -14 -15

GFSGL_500_temp_033.txt.gz
Temp
-17 -17 -18 -18 -19 -20 -21 -22 -22 -22 -21 -20 -18 -18 -17 -16 -16 -15 -14 -14 -14 -14 -14 -13 -13 -13 -13 -13 -13 -12 -13 -13 -12 -12 -12 -12 -12 -12 -12 -12 -12 -12 -12
-19 -20 -21 -21 -22 -22 -22 -23 -25 -26 -26 -25 -24 -23 -22 -19 -17 -16 -15 -15 -14 -14 -14 -14 -13 -14 -13 -13 -13 -13 -13 -13 -13 -13 -12 -13 -12 -12 -12 -12 -12 -12 -13
-22 -23 -22 -22 -23 -23 -23 -25 -26 -27 -27 -26 -26 -25 -24 -23 -21 -19 -18 -17 -15 -15 -15 -14 -13 -13 -13 -13 -14 -14 -14 -13 -13 -13 -13 -13 -13 -13 -13 -13 -13 -13 -13
-23 -23 -23 -23 -24 -24 -25 -26 -27 -27 -27 -27 -27 -26 -27 -26 -25 -24 -23 -22 -19 -17 -16 -15 -14 -13 -16 -15 -14 -15 -14 -13 -14 -13 -13 -14 -13 -13 -13 -13 -13 -13 -13
-23 -23 -23 -24 -25 -25 -26 -27 -28 -27 -27 -27 -27 -27 -27 -27 -26 -26 -25 -25 -23 -22 -20 -18 -17 -14 -16 -17 -15 -15 -14 -14 -14 -13 -14 -14 -14 -13 -13 -13 -13 -13 -14
-24 -24 -24 -24 -25 -25 -26 -27 -28 -27 -28 -27 -28 -27 -27 -27 -26 -26 -25 -25 -25 -24 -22 -20 -18 -17 -16 -17 -16 -16 -15 -15 -14 -14 -14 -14 -14 -14 -13 -13 -13 -13 -13
-25 -25 -25 -26 -26 -26 -27 -27 -28 -28 -28 -28 -28 -27 -27 -26 -26 -26 -25 -25 -24 -24 -22 -20 -19 -18 -17 -17 -17 -16 -16 -15 -14 -14 -14 -14 -14 -14 -14 -14 -14 -13 -14
-26 -26 -26 -27 -27 -27 -27 -28 -28 -28 -28 -28 -28 -27 -26 -26 -26 -25 -25 -24 -25 -22 -20 -21 -19 -19 -18 -17 -17 -16 -16 -15 -15 -14 -14 -14 -14 -14 -14 -13 -14 -14 -14
-26 -27 -26 -26 -27 -27 -27 -28 -28 -28 -28 -28 -28 -27 -26 -26 -26 -25 -25 -24 -24 -23 -21 -21 -21 -20 -19 -17 -16 -16 -16 -15 -15 -14 -14 -14 -14 -14 -14 -13 -14 -14 -14
-27 -27 -27 -27 -27 -27 -27 -28 -28 -28 -28 -28 -27 -27 -26 -26 -25 -24 -24 -23 -22 -22 -22 -20 -20 -19 -18 -17 -17 -16 -16 -15 -15 -15 -14 -14 -14 -14 -13 -14 -14 -13 -13
-26 -26 -27 -27 -27 -27 -27 -28 -28 -28 -28 -27 -27 -26 -26 -25 -24 -23 -22 -22 -21 -21 -20 -20 -19 -18 -17 -17 -16 -16 -16 -16 -15 -15 -14 -14 -14 -14 -14 -13 -13 -13 -13
-26 -26 -26 -27 -27 -27 -27 -28 -28 -28 -28 -27 -27 -26 -25 -23 -23 -22 -22 -21 -21 -20 -20 -19 -19 -17 -17 -17 -16 -16 -16 -16 -15 -15 -14 -14 -14 -14 -13 -13 -13 -14 -15
-26 -26 -26 -26 -27 -27 -27 -28 -28 -28 -27 -27 -26 -25 -23 -22 -21 -21 -21 -21 -20 -20 -19 -19 -18 -17 -16 -16 -16 -16 -16 -15 -15 -14 -14 -14 -14 -13 -13 -13 -14 -15 -16
-26 -26 -27 -27 -27 -27 -27 -28 -28 -27 -27 -26 -25 -24 -22 -21 -21 -21 -21 -21 -20 -19 -18 -18 -17 -16 -16 -16 -17 -16 -16 -15 -15 -14 -14 -14 -13 -13 -13 -14 -15 -16 -17
-26 -27 -27 -28 -28 -28 -27 -28 -27 -27 -26 -25 -24 -22 -21 -21 -21 -22 -21 -20 -19 -19 -18 -17 -16 -16 -16 -16 -16 -16 -16 -15 -15 -15 -14 -14 -13 -13 -14 -14 -14 -15 -16
-26 -26 -27 -27 -27 -27 -27 -27 -26 -25 -25 -24 -23 -22 -21 -21 -22 -21 -20 -19 -18 -17 -17 -17 -16 -16 -16 -16 -16 -16 -16 -15 -15 -15 -14 -14 -13 -13 -14 -13 -14 -16 -17
-25 -26 -26 -27 -27 -27 -26 -25 -24 -25 -24 -23 -22 -22 -21 -22 -22 -20 -19 -19 -18 -17 -17 -16 -16 -16 -16 -16 -16 -16 -16 -15 -15 -14 -14 -14 -13 -13 -14 -13 -14 -14 -17
-25 -25 -26 -26 -26 -25 -24 -24 -24 -23 -22 -22 -21 -21 -21 -21 -20 -19 -19 -18 -17 -17 -17 -17 -16 -16 -16 -16 -16 -16 -15 -15 -15 -14 -14 -13 -13 -14 -14 -14 -14 -13 -15
-25 -25 -25 -25 -24 -24 -24 -24 -23 -22 -21 -21 -21 -21 -20 -19 -19 -19 -18 -17 -17 -17 -16 -17 -16 -16 -16 -16 -16 -16 -16 -15 -14 -14 -14 -13 -13 -15 -14 -14 -14 -14 -13
-24 -24 -24 -23 -23 -23 -24 -22 -21 -21 -21 -21 -21 -20 -19 -19 -19 -18 -17 -17 -16 -16 -17 -17 -16 -16 -16 -16 -16 -16 -15 -15 -14 -14 -14 -13 -14 -15 -15 -14 -14 -14 -14
-23 -23 -23 -23 -23 -23 -23 -21 -21 -21 -21 -20 -20 -19 -19 -19 -18 -17 -17 -16 -16 -17 -17 -16 -16 -16 -16 -16 -16 -16 -15 -14 -14 -14 -14 -14 -14 -15 -15 -15 -14 -14 -14
-22 -22 -22 -22 -22 -22 -21 -21 -21 -20 -20 -19 -19 -19 -18 -18 -18 -17 -17 -16 -16 -17 -17 -17 -16 -16 -16 -16 -16 -15 -15 -14 -14 -14 -14 -14 -15 -15 -15 -15 -15 -15 -15
-22 -22 -22 -22 -21 -21 -21 -20 -20 -20 -19 -18 -18 -18 -18 -18 -17 -17 -16 -16 -17 -17 -17 -17 -16 -16 -16 -15 -16 -15 -15 -15 -15 -15 -14 -14 -14 -15 -15 -15 -15 -15 -15
-21 -21 -22 -22 -21 -20 -20 -20 -19 -19 -18 -18 -18 -18 -18 -18 -17 -17 -17 -17 -17 -17 -17 -16 -16 -16 -16 -16 -15 -15 -15 -15 -15 -15 -14 -14 -14 -15 -15 -15 -15 -15 -15
-22 -21 -22 -21 -21 -21 -20 -19 -18 -18 -18 -18 -17 -17 -17 -17 -17 -17 -17 -17 -17 -17 -17 -16 -16 -16 -16 -16 -15 -15 -15 -15 -15 -15 -15 -14 -14 -14 -14 -14 -16 -15 -15
-22 -21 -20 -20 -20 -19 -19 -18 -18 -18 -18 -18 -18 -18 -18 -18 -17 -17 -17 -17 -17 -16 -16 -16 -16 -16 -16 -16 -16 -16 -15 -15 -15 -15 -15 -15 -15 -15 -14 -14 -14 -15 -15

GFSGL_500_temp_036.txt.gz
Temp
-17 -18 -18 -19 -19 -19 -20 -20 -20 -21 -21 -21 -21 -21 -20 -20 -19 -18 -17 -17 -16 -16 -15 -15 -15 -15 -14 -14 -14 -14 -14 -13 -13 -14 -13 -12 -12 -12 -12 -12 -12 -12 -12
-19 -19 -19 -19 -20 -21 -22 -22 -22 -22 -23 -22 -22 -22 -22 -21 -21 -21 -20 -19 -17 -17 -16 -15 -15 -15 -15 -14 -14 -14 -14 -14 -13 -14 -13 -12 -13 -12 -12 -12 -12 -12 -12
-20 -21 -21 -22 -22 -23 -23 -23 -23 -23 -24 -24 -24 -23 -24 -24 -25 -25 -23 -23 -21 -19 -17 -16 -16 -15 -15 -15 -14 -14 -14 -15 -14 -15 -14 -13 -13 -12 -12 -12 -12 -13 -13
-21 -23 -23 -23 -24 -24 -24 -24 -24 -24 -23 -24 -25 -25 -26 -26 -27 -27 -26 -25 -25 -23 -21 -19 -17 -16 -15 -16 -15 -14 -14 -15 -14 -15 -14 -13 -13 -12 -12 -13 -13 -13 -13
-23 -24 -25 -26 -25 -25 -25 -25 -25 -24 -24 -25 -25 -26 -27 -27 -27 -27 -27 -27 -27 -26 -25 -24 -21 -18 -16 -16 -16 -15 -14 -15 -14 -14 -15 -14 -14 -13 -13 -12 -13 -13 -13
-24 -25 -26 -27 -27 -27 -26 -26 -26 -26 -26 -27 -27 -27 -27 -27 -27 -28 -28 -27 -27 -27 -26 -26 -25 -23 -17 -17 -17 -15 -15 -15 -15 -15 -16 -14 -14 -13 -13 -13 -13 -13 -13
-23 -25 -26 -26 -27 -27 -27 -27 -27 -27 -27 -27 -28 -27 -28 -27 -28 -28 -27 -27 -27 -26 -26 -26 -25 -24 -22 -19 -18 -18 -15 -14 -15 -16 -16 -15 -14 -14 -14 -14 -13 -13 -14
-23 -24 -26 -26 -27 -27 -27 -27 -27 -27 -27 -28 -28 -28 -28 -28 -28 -28 -27 -27 -27 -26 -26 -25 -25 -24 -22 -20 -19 -19 -16 -16 -16 -17 -16 -15 -14 -14 -14 -14 -13 -13 -14
-24 -24 -25 -26 -26 -26 -27 -27 -27 -27 -27 -27 -28 -28 -28 -28 -28 -28 -27 -27 -26 -26 -25 -25 -25 -23 -20 -20 -20 -19 -17 -17 -17 -17 -15 -15 -15 -14 -14 -14 -14 -14 -14
-24 -25 -25 -25 -26 -26 -26 -27 -27 -27 -27 -27 -28 -28 -28 -28 -28 -28 -27 -26 -26 -25 -25 -25 -24 -23 -21 -21 -19 -20 -19 -18 -17 -16 -15 -15 -15 -14 -14 -15 -15 -14 -14
-25 -25 -25 -26 -26 -26 -26 -26 -27 -27 -27 -27 -28 -28 -28 -28 -27 -27 -26 -26 -25 -25 -24 -24 -23 -21 -21 -20 -20 -19 -18 -18 -17 -15 -15 -15 -14 -15 -15 -15 -14 -14 -14
-25 -25 -26 -26 -26 -27 -27 -26 -27 -27 -27 -27 -27 -27 -27 -27 -26 -26 -25 -24 -24 -24 -23 -23 -23 -21 -20 -20 -19 -18 -17 -16 -16 -15 -15 -15 -16 -15 -15 -15 -14 -13 -13
-25 -25 -26 -26 -27 -27 -27 -27 -26 -27 -27 -27 -27 -27 -27 -27 -25 -24 -23 -23 -22 -23 -23 -22 -21 -21 -20 -19 -18 -17 -17 -16 -16 -15 -16 -16 -15 -15 -15 -14 -13 -13 -13
-25 -26 -26 -27 -27 -27 -27 -27 -27 -27 -27 -27 -27 -26 -26 -24 -23 -23 -22 -22 -22 -21 -21 -21 -20 -20 -20 -19 -18 -18 -17 -16 -16 -16 -16 -16 -15 -14 -14 -13 -14 -14 -14
-25 -25 -26 -27 -27 -27 -27 -27 -27 -27 -26 -26 -25 -24 -24 -23 -22 -22 -21 -21 -21 -20 -20 -21 -21 -20 -19 -19 -18 -17 -17 -17 -16 -16 -16 -15 -14 -14 -13 -14 -14 -14 -16
-26 -26 -26 -27 -27 -27 -27 -27 -26 -26 -25 -24 -23 -23 -23 -22 -21 -21 -21 -21 -21 -20 -20 -20 -19 -19 -18 -18 -17 -17 -17 -17 -16 -16 -16 -14 -14 -13 -14 -14 -14 -16 -18
-26 -26 -26 -26 -26 -26 -26 -25 -24 -24 -24 -23 -22 -22 -22 -21 -21 -21 -21 -21 -21 -20 -19 -19 -19 -18 -18 -18 -17 -17 -17 -16 -16 -16 -15 -14 -14 -13 -14 -14 -16 -18 -20
-25 -26 -26 -25 -25 -24 -24 -24 -24 -23 -23 -22 -22 -22 -22 -22 -22 -22 -21 -20 -20 -19 -19 -18 -17 -18 -17 -17 -17 -17 -16 -16 -16 -15 -14 -13 -13 -14 -14 -15 -16 -17 -20
-25 -24 -24 -23 -24 -24 -24 -23 -23 -22 -22 -22 -22 -22 -22 -22 -21 -20 -20 -20 -19 -19 -17 -17 -17 -17 -17 -17 -16 -16 -16 -16 -15 -14 -14 -13 -14 -15 -14 -15 -15 -16 -18
-23 -23 -23 -23 -24 -24 -23 -22 -22 -21 -21 -21 -22 -22 -22 -20 -19 -19 -19 -19 -19 -17 -17 -17 -17 -17 -16 -16 -16 -16 -16 -15 -14 -14 -13 -13 -15 -15 -15 -15 -15 -14 -15
-23 -23 -23 -23 -23 -22 -22 -22 -21 -21 -21 -21 -21 -21 -20 -20 -19 -19 -19 -19 -18 -17 -17 -17 -17 -16 -16 -16 -16 -16 -15 -15 -14 -14 -13 -14 -15 -15 -15 -15 -14 -12 -13
-22 -23 -23 -22 -22 -22 -21 -21 -21 -21 -22 -21 -20 -20 -20 -19 -19 -19 -18 -17 -17 -17 -17 -17 -17 -16 -16 -16 -16 -15 -15 -15 -14 -14 -13 -14 -15 -15 -15 -15 -15 -14 -14
-22 -23 -22 -22 -21 -21 -20 -21 -21 -22 -21 -20 -20 -19 -19 -19 -19 -18 -17 -17 -17 -17 -17 -16 -16 -16 -16 -16 -16 -15 -15 -15 -14 -14 -14 -14 -15 -15 -15 -15 -16 -15 -15
-22 -22 -22 -22 -21 -21 -21 -21 -21 -20 -20 -19 -19 -18 -18 -18 -18 -17 -17 -17 -17 -17 -17 -16 -16 -16 -16 -16 -16 -15 -15 -15 -14 -14 -14 -14 -15 -15 -15 -15 -15 -15 -15
-22 -22 -21 -21 -21 -20 -20 -20 -19 -19 -19 -19 -18 -18 -18 -18 -18 -17 -17 -17 -17 -17 -17 -16 -16 -16 -16 -16 -16 -15 -15 -15 -14 -14 -14 -15 -15 -16 -15 -15 -15 -15 -15
-21 -21 -21 -20 -20 -20 -20 -19 -18 -19 -19 -19 -18 -18 -18 -18 -18 -17 -17 -17 -17 -17 -16 -16 -16 -16 -16 -16 -16 -15 -15 -15 -15 -15 -15 -15 -15 -14 -15 -15 -15 -15 -15

GFSGL_500_temp_042.txt.gz
Temp
-17 -17 -18 -18 -18 -18 -19 -19 -20 -21 -21 -21 -21 -22 -22 -22 -22 -22 -24 -24 -24 -23 -22 -21 -20 -20 -19 -19 -18 -18 -17 -16 -15 -16 -16 -16 -15 -15 -14 -14 -13 -13 -12
-18 -18 -18 -19 -19 -19 -20 -20 -21 -22 -22 -22 -22 -23 -23 -23 -23 -25 -25 -25 -26 -25 -24 -24 -23 -21 -20 -19 -19 -18 -18 -17 -16 -15 -16 -15 -16 -15 -15 -14 -14 -13 -13
-18 -19 -19 -19 -20 -20 -21 -22 -22 -22 -22 -23 -23 -23 -24 -24 -24 -26 -26 -26 -26 -26 -26 -25 -25 -24 -22 -20 -20 -19 -18 -18 -17 -16 -17 -16 -16 -16 -15 -15 -14 -14 -14
-19 -19 -19 -20 -20 -21 -22 -22 -22 -22 -22 -23 -24 -24 -24 -24 -26 -27 -27 -27 -26 -27 -26 -27 -26 -25 -24 -22 -22 -20 -19 -19 -18 -17 -16 -17 -15 -15 -15 -15 -15 -14 -14
-19 -20 -20 -20 -21 -22 -22 -22 -22 -23 -23 -24 -24 -25 -25 -26 -26 -27 -27 -27 -27 -27 -27 -27 -26 -25 -24 -23 -22 -21 -21 -20 -19 -18 -17 -17 -16 -15 -15 -15 -16 -15 -15
-20 -20 -20 -21 -22 -22 -22 -23 -23 -23 -24 -24 -25 -25 -26 -26 -27 -27 -28 -27 -27 -27 -27 -27 -27 -26 -24 -23 -22 -22 -21 -21 -20 -19 -17 -17 -16 -16 -16 -15 -16 -16 -15
-20 -21 -21 -22 -22 -22 -23 -23 -23 -24 -25 -25 -26 -26 -26 -26 -27 -28 -28 -28 -27 -27 -27 -27 -27 -26 -25 -23 -22 -22 -22 -21 -21 -20 -19 -17 -17 -17 -16 -16 -15 -16 -15
-21 -21 -22 -23 -23 -23 -23 -24 -24 -25 -25 -26 -26 -26 -26 -26 -27 -27 -27 -28 -28 -28 -28 -28 -28 -28 -25 -25 -24 -24 -23 -22 -21 -20 -19 -18 -17 -17 -17 -16 -16 -15 -15
-21 -22 -23 -23 -23 -23 -24 -24 -25 -26 -26 -26 -27 -27 -27 -27 -28 -27 -27 -27 -28 -27 -28 -28 -28 -28 -27 -26 -26 -25 -25 -24 -22 -21 -20 -19 -18 -18 -18 -17 -15 -15 -15
-22 -23 -23 -23 -24 -24 -25 -26 -26 -26 -27 -27 -27 -27 -26 -27 -28 -28 -27 -27 -27 -28 -28 -28 -28 -28 -27 -27 -27 -27 -27 -26 -24 -23 -21 -19 -19 -18 -18 -16 -16 -15 -15
-23 -23 -23 -24 -25 -25 -26 -26 -27 -27 -27 -27 -27 -26 -26 -27 -27 -27 -27 -27 -28 -28 -28 -28 -28 -28 -27 -27 -27 -27 -27 -27 -26 -24 -21 -20 -19 -18 -17 -17 -16 -16 -15
-23 -23 -24 -25 -26 -26 -27 -27 -27 -27 -27 -27 -26 -26 -26 -27 -27 -27 -27 -27 -28 -28 -28 -28 -28 -28 -27 -27 -27 -26 -26 -26 -26 -24 -21 -19 -19 -18 -17 -17 -16 -16 -15
-23 -24 -24 -26 -26 -27 -27 -27 -27 -27 -27 -26 -26 -26 -26 -26 -26 -27 -27 -27 -28 -28 -28 -28 -28 -27 -27 -27 -26 -26 -26 -26 -25 -22 -20 -19 -19 -18 -17 -16 -16 -16 -16
-23 -23 -24 -25 -25 -26 -26 -27 -27 -26 -26 -26 -26 -26 -26 -26 -26 -27 -26 -26 -26 -26 -25 -26 -26 -26 -26 -26 -26 -26 -25 -25 -23 -21 -20 -19 -19 -17 -17 -17 -17 -16 -15
-23 -23 -23 -23 -24 -24 -25 -26 -26 -26 -25 -25 -25 -25 -25 -24 -24 -24 -24 -24 -24 -24 -24 -24 -24 -25 -25 -25 -25 -25 -24 -22 -20 -20 -19 -19 -18 -18 -17 -17 -16 -16 -16
-23 -24 -23 -23 -23 -24 -24 -24 -24 -24 -24 -24 -23 -23 -23 -23 -23 -23 -23 -23 -23 -23 -24 -24 -24 -25 -25 -25 -24 -23 -21 -20 -20 -19 -18 -18 -18 -18 -17 -17 -17 -17 -16
-23 -24 -24 -24 -23 -23 -23 -22 -23 -22 -22 -23 -23 -22 -23 -22 -22 -23 -22 -23 -23 -24 -24 -24 -23 -23 -23 -22 -21 -20 -20 -19 -19 -19 -19 -18 -18 -18 -18 -17 -17 -17 -16
-23 -23 -23 -23 -22 -22 -22 -22 -22 -22 -22 -22 -22 -22 -22 -21 -21 -22 -22 -22 -22 -22 -22 -22 -22 -22 -21 -20 -20 -19 -19 -19 -18 -18 -18 -18 -17 -17 -17 -17 -17 -18 -18
-23 -23 -22 -22 -22 -22 -22 -22 -22 -22 -22 -22 -22 -22 -22 -21 -21 -21 -20 -21 -20 -21 -21 -21 -20 -20 -20 -19 -19 -19 -18 -18 -18 -17 -17 -16 -17 -17 -18 -18 -19 -19 -20
-23 -22 -22 -22 -22 -22 -22 -22 -22 -22 -22 -22 -21 -21 -21 -21 -21 -20 -20 -20 -19 -20 -20 -20 -19 -19 -19 -18 -18 -18 -17 -17 -17 -16 -17 -16 -17 -17 -18 -20 -20 -21 -21
-22 -22 -21 -22 -22 -22 -22 -22 -22 -22 -22 -21 -21 -20 -20 -20 -20 -20 -20 -20 -20 -20 -19 -19 -18 -18 -18 -18 -17 -17 -17 -16 -17 -17 -17 -17 -17 -18 -19 -20 -20 -21 -20
-22 -22 -23 -23 -22 -22 -22 -22 -22 -22 -21 -20 -20 -19 -19 -19 -19 -19 -19 -19 -19 -19 -18 -18 -18 -18 -17 -17 -17 -16 -17 -17 -17 -17 -17 -17 -17 -17 -18 -19 -19 -19 -18
-22 -22 -23 -23 -22 -22 -21 -21 -21 -21 -20 -20 -20 -19 -19 -19 -19 -19 -18 -18 -19 -19 -18 -18 -17 -17 -16 -16 -17 -17 -17 -17 -17 -17 -17 -17 -17 -19 -18 -18 -18 -17 -17
-22 -21 -21 -22 -22 -21 -21 -20 -20 -20 -20 -20 -19 -19 -20 -20 -20 -19 -19 -19 -18 -18 -18 -17 -16 -16 -16 -16 -16 -17 -17 -17 -17 -17 -16 -16 -16 -17 -17 -16 -16 -16 -16
-21 -21 -20 -20 -20 -20 -21 -20 -19 -20 -20 -19 -19 -19 -19 -20 -20 -19 -18 -17 -17 -17 -17 -17 -16 -16 -15 -16 -16 -17 -17 -17 -17 -16 -17 -16 -16 -16 -16 -16 -16 -16 -16
-21 -20 -20 -20 -20 -19 -19 -19 -19 -19 -19 -19 -18 -19 -19 -19 -19 -18 -17 -17 -17 -17 -17 -16 -15 -15 -15 -16 -17 -17 -17 -17 -17 -16 -17 -16 -16 -16 -16 -16 -16 -16 -16

GFSGL_500_temp_048.txt.gz
Temp
-15 -15 -16 -16 -17 -17 -17 -18 -19 -19 -19 -20 -20 -20 -20 -20 -21 -21 -21 -22 -22 -22 -22 -22 -22 -22 -22 -22 -22 -22 -21 -21 -20 -19 -19 -19 -18 -17 -17 -16 -17 -16 -16
-16 -16 -17 -17 -17 -18 -18 -19 -20 -20 -20 -20 -20 -21 -21 -21 -22 -22 -22 -23 -22 -23 -22 -22 -22 -23 -22 -23 -22 -22 -22 -21 -21 -21 -20 -19 -18 -18 -18 -17 -18 -17 -17
-17 -17 -18 -18 -19 -19 -20 -20 -20 -20 -20 -20 -20 -21 -21 -22 -22 -23 -23 -23 -23 -23 -23 -23 -24 -24 -24 -23 -23 -23 -23 -23 -22 -21 -21 -20 -20 -18 -19 -18 -17 -17 -17
-18 -19 -19 -19 -20 -20 -20 -20 -20 -20 -21 -21 -22 -22 -22 -23 -23 -24 -24 -24 -24 -24 -25 -25 -25 -25 -25 -25 -25 -24 -24 -24 -23 -23 -22 -21 -20 -20 -20 -18 -18 -17 -17
-19 -19 -20 -20 -20 -20 -20 -20 -21 -22 -22 -23 -23 -24 -25 -25 -25 -25 -26 -26 -26 -25 -25 -25 -25 -26 -25 -26 -26 -25 -25 -25 -25 -24 -24 -23 -22 -21 -20 -19 -18 -18 -17
-20 -20 -20 -21 -21 -20 -21 -21 -22 -23 -23 -24 -25 -27 -26 -26 -26 -27 -27 -27 -27 -27 -26 -26 -26 -27 -27 -27 -26 -26 -25 -26 -27 -26 -25 -24 -24 -22 -20 -19 -18 -18 -18
-20 -21 -21 -21 -21 -21 -21 -22 -23 -23 -23 -25 -27 -27 -27 -28 -28 -27 -27 -27 -27 -27 -26 -26 -27 -27 -27 -27 -28 -27 -27 -27 -27 -27 -26 -25 -24 -23 -21 -20 -18 -17 -18
-21 -21 -21 -21 -21 -21 -22 -23 -23 -23 -23 -25 -26 -27 -27 -28 -28 -28 -28 -28 -27 -27 -28 -28 -27 -27 -28 -27 -27 -27 -27 -27 -28 -27 -26 -25 -25 -24 -22 -21 -19 -18 -18
-21 -21 -21 -21 -21 -22 -22 -23 -23 -23 -24 -25 -26 -26 -26 -27 -27 -27 -27 -28 -28 -28 -28 -28 -28 -27 -27 -27 -27 -28 -28 -28 -28 -28 -27 -26 -25 -25 -23 -21 -20 -19 -17
-21 -21 -21 -22 -22 -22 -23 -22 -23 -23 -23 -24 -25 -26 -26 -26 -26 -27 -27 -27 -27 -28 -28 -28 -28 -28 -28 -28 -28 -28 -28 -28 -28 -28 -28 -27 -26 -25 -23 -21 -20 -19 -18
-21 -21 -22 -22 -23 -23 -22 -22 -23 -23 -24 -24 -24 -24 -25 -26 -26 -27 -27 -27 -27 -27 -28 -28 -28 -27 -27 -28 -28 -28 -28 -28 -28 -28 -28 -27 -26 -25 -23 -21 -20 -19 -19
-22 -22 -22 -23 -23 -22 -22 -22 -23 -23 -23 -23 -24 -24 -25 -25 -25 -26 -27 -27 -27 -27 -28 -28 -28 -28 -28 -28 -28 -28 -28 -28 -28 -28 -27 -26 -24 -24 -23 -22 -21 -19 -19
-22 -22 -22 -23 -22 -22 -22 -22 -23 -22 -23 -23 -23 -24 -24 -25 -25 -25 -26 -26 -27 -27 -27 -28 -28 -28 -28 -28 -28 -28 -29 -28 -28 -27 -26 -25 -24 -23 -22 -21 -21 -20 -19
-23 -22 -22 -22 -22 -22 -22 -22 -22 -22 -23 -23 -23 -24 -24 -25 -25 -25 -25 -26 -26 -27 -27 -27 -28 -28 -28 -28 -28 -28 -28 -28 -27 -27 -26 -25 -23 -23 -22 -21 -21 -20 -19
-23 -22 -23 -22 -21 -21 -22 -22 -23 -23 -22 -22 -23 -23 -24 -24 -24 -24 -25 -25 -26 -26 -27 -27 -28 -28 -28 -28 -28 -28 -28 -28 -27 -27 -26 -24 -23 -22 -22 -21 -20 -20 -19
-23 -23 -23 -22 -21 -22 -22 -22 -23 -23 -22 -22 -22 -23 -23 -24 -24 -24 -24 -24 -25 -26 -26 -27 -28 -28 -28 -28 -28 -28 -28 -27 -27 -27 -27 -26 -25 -23 -21 -21 -20 -20 -20
-23 -23 -23 -22 -22 -22 -22 -22 -23 -23 -22 -22 -22 -22 -23 -23 -24 -24 -25 -24 -24 -25 -25 -26 -27 -27 -27 -27 -27 -27 -27 -26 -26 -26 -26 -26 -25 -24 -22 -20 -20 -20 -20
-23 -23 -23 -22 -22 -22 -22 -22 -22 -22 -22 -22 -21 -21 -22 -23 -23 -24 -24 -24 -25 -25 -25 -25 -25 -25 -26 -26 -26 -26 -26 -26 -26 -26 -25 -24 -24 -23 -22 -21 -20 -21 -20
-23 -23 -23 -23 -23 -23 -23 -22 -22 -22 -21 -22 -21 -21 -21 -21 -22 -22 -23 -23 -23 -23 -24 -24 -24 -24 -24 -25 -24 -24 -24 -24 -24 -23 -23 -23 -23 -21 -21 -20 -20 -20 -20
-23 -23 -24 -23 -23 -23 -23 -22 -22 -22 -21 -21 -21 -21 -21 -21 -21 -20 -21 -21 -21 -22 -22 -23 -23 -23 -23 -23 -23 -23 -23 -23 -22 -22 -22 -21 -20 -20 -20 -19 -19 -19 -19
-23 -23 -23 -23 -24 -23 -23 -22 -22 -22 -21 -21 -21 -20 -20 -20 -20 -20 -20 -20 -20 -20 -20 -21 -21 -21 -21 -21 -21 -21 -21 -21 -20 -20 -20 -20 -20 -20 -20 -19 -19 -19 -19
-23 -23 -23 -23 -23 -22 -22 -22 -21 -21 -21 -20 -19 -19 -19 -19 -19 -19 -19 -19 -20 -20 -19 -19 -19 -19 -19 -19 -20 -20 -20 -20 -20 -20 -20 -21 -20 -20 -20 -20 -20 -21 -21
-23 -23 -22 -23 -22 -22 -22 -21 -21 -20 -20 -20 -20 -19 -19 -19 -19 -19 -19 -19 -19 -19 -19 -19 -19 -19 -19 -19 -20 -20 -20 -20 -20 -20 -21 -21 -22 -22 -22 -22 -21 -21 -21
-22 -22 -22 -22 -22 -21 -21 -21 -20 -20 -20 -19 -19 -18 -18 -18 -18 -18 -18 -18 -18 -18 -18 -18 -19 -19 -19 -19 -20 -20 -20 -20 -20 -21 -21 -22 -22 -22 -22 -22 -21 -21 -20
-22 -22 -22 -22 -22 -20 -20 -20 -20 -20 -20 -19 -18 -18 -18 -18 -18 -18 -18 -18 -18 -18 -18 -18 -19 -19 -19 -19 -19 -19 -20 -20 -20 -21 -21 -21 -21 -21 -21 -20 -20 -19 -19
-22 -22 -22 -21 -21 -20 -20 -20 -20 -20 -20 -19 -18 -18 -18 -18 -17 -17 -17 -18 -18 -19 -18 -18 -19 -18 -19 -18 -18 -18 -18 -18 -19 -19 -20 -19 -19 -19 -19 -19 -18 -18 -18

GFSGL_500_temp_051.txt.gz
Temp
-16 -16 -16 -16 -16 -16 -16 -16 -17 -18 -18 -19 -20 -20 -20 -20 -20 -21 -21 -21 -21 -21 -22 -22 -22 -22 -22 -23 -23 -23 -22 -21 -21 -21 -21 -21 -20 -19 -18 -18 -17 -17 -16
-16 -16 -16 -16 -17 -17 -17 -18 -19 -19 -20 -20 -20 -20 -20 -21 -22 -22 -22 -23 -23 -23 -23 -23 -23 -23 -23 -23 -23 -23 -22 -22 -22 -21 -21 -21 -21 -20 -19 -18 -18 -18 -15
-17 -17 -17 -17 -17 -18 -19 -19 -20 -21 -21 -21 -21 -21 -22 -23 -23 -23 -24 -25 -25 -25 -25 -24 -24 -24 -24 -24 -23 -23 -23 -23 -22 -22 -22 -22 -22 -21 -19 -19 -18 -18 -17
-18 -18 -18 -18 -19 -19 -20 -21 -21 -21 -21 -21 -22 -23 -23 -23 -23 -25 -26 -27 -27 -27 -27 -26 -26 -25 -25 -25 -24 -24 -24 -23 -23 -22 -23 -22 -22 -22 -21 -19 -19 -18 -17
-18 -18 -19 -20 -20 -21 -21 -21 -21 -21 -21 -22 -23 -23 -23 -23 -24 -26 -26 -27 -28 -27 -27 -27 -27 -26 -26 -26 -25 -25 -25 -24 -24 -23 -23 -23 -23 -22 -21 -21 -19 -19 -19
-19 -20 -20 -21 -21 -22 -21 -21 -21 -22 -22 -23 -23 -23 -23 -23 -24 -25 -26 -27 -28 -28 -28 -28 -28 -27 -27 -27 -26 -26 -25 -25 -24 -24 -23 -24 -23 -23 -22 -21 -21 -19 -18
-21 -21 -22 -22 -22 -22 -21 -21 -22 -22 -23 -23 -22 -22 -23 -24 -24 -25 -26 -26 -27 -28 -28 -28 -28 -28 -28 -27 -27 -27 -26 -26 -26 -26 -25 -25 -26 -24 -24 -22 -21 -20 -19
-22 -22 -22 -22 -22 -22 -21 -22 -23 -23 -22 -22 -22 -23 -23 -24 -24 -25 -25 -26 -27 -27 -28 -28 -27 -27 -27 -27 -27 -27 -26 -26 -26 -27 -25 -26 -26 -26 -24 -23 -22 -21 -20
-23 -23 -22 -22 -22 -22 -22 -23 -23 -22 -22 -22 -22 -22 -23 -24 -25 -25 -25 -26 -26 -27 -27 -28 -28 -28 -28 -27 -28 -27 -27 -27 -27 -27 -27 -27 -26 -27 -26 -25 -24 -22 -21
-23 -23 -22 -22 -22 -22 -22 -23 -22 -22 -22 -22 -23 -23 -23 -24 -25 -25 -25 -26 -26 -26 -27 -27 -28 -28 -28 -27 -27 -27 -27 -28 -28 -27 -27 -27 -27 -27 -27 -26 -25 -24 -22
-23 -23 -22 -22 -22 -22 -23 -22 -21 -22 -22 -22 -23 -23 -24 -24 -25 -25 -25 -26 -26 -26 -27 -27 -28 -28 -28 -27 -27 -27 -27 -28 -28 -28 -28 -27 -27 -27 -27 -26 -25 -24 -22
-23 -23 -23 -23 -23 -22 -22 -22 -22 -22 -22 -22 -23 -23 -24 -24 -25 -25 -25 -26 -26 -26 -27 -27 -28 -28 -28 -28 -28 -28 -28 -28 -27 -28 -28 -28 -27 -27 -27 -26 -25 -24 -23
-23 -23 -23 -23 -23 -22 -22 -22 -22 -22 -22 -23 -23 -23 -23 -24 -24 -25 -25 -25 -26 -26 -27 -28 -28 -28 -28 -28 -28 -28 -28 -28 -28 -28 -28 -28 -28 -28 -28 -27 -25 -24 -22
-23 -23 -23 -23 -23 -23 -22 -22 -21 -22 -22 -23 -22 -23 -23 -24 -24 -24 -25 -25 -26 -26 -27 -27 -28 -28 -28 -28 -28 -28 -28 -28 -28 -28 -28 -28 -28 -27 -27 -26 -25 -23 -21
-23 -23 -23 -23 -23 -23 -22 -22 -22 -22 -22 -22 -22 -22 -23 -24 -24 -25 -25 -25 -25 -26 -27 -27 -28 -28 -28 -27 -27 -28 -28 -28 -28 -28 -28 -27 -27 -27 -26 -25 -24 -22 -21
-24 -23 -23 -23 -23 -23 -23 -23 -23 -23 -23 -22 -22 -22 -23 -24 -23 -24 -24 -25 -25 -26 -27 -27 -28 -28 -28 -28 -28 -28 -28 -28 -28 -28 -27 -27 -26 -26 -25 -24 -23 -22 -22
-24 -23 -23 -23 -23 -24 -24 -23 -23 -22 -22 -21 -21 -22 -22 -23 -23 -24 -24 -25 -25 -25 -26 -27 -27 -28 -28 -28 -28 -28 -28 -28 -28 -27 -27 -27 -26 -25 -24 -23 -22 -22 -21
-24 -23 -23 -24 -24 -24 -23 -23 -23 -22 -22 -21 -21 -21 -21 -22 -22 -24 -24 -25 -25 -25 -26 -26 -26 -27 -27 -27 -28 -28 -27 -27 -27 -27 -27 -26 -25 -24 -23 -22 -22 -21 -21
-23 -23 -24 -24 -24 -23 -23 -23 -23 -22 -22 -21 -21 -21 -20 -21 -21 -21 -22 -24 -24 -25 -25 -25 -25 -25 -25 -26 -26 -27 -27 -27 -27 -27 -27 -26 -25 -24 -22 -22 -21 -21 -21
-23 -23 -24 -23 -23 -23 -23 -23 -23 -22 -22 -21 -21 -21 -20 -20 -21 -20 -21 -21 -21 -22 -23 -24 -24 -25 -25 -25 -25 -25 -26 -26 -26 -25 -25 -25 -25 -24 -23 -21 -21 -21 -21
-23 -23 -23 -23 -23 -23 -23 -23 -22 -22 -21 -21 -20 -20 -20 -20 -20 -20 -20 -20 -20 -20 -21 -22 -22 -22 -23 -23 -24 -24 -24 -24 -24 -24 -24 -24 -24 -23 -22 -21 -21 -21 -21
-23 -23 -23 -23 -23 -23 -22 -22 -22 -22 -21 -20 -20 -20 -20 -20 -19 -19 -19 -19 -20 -20 -20 -20 -20 -21 -21 -21 -21 -22 -22 -22 -22 -22 -22 -22 -21 -21 -21 -21 -21 -20 -20
-23 -23 -23 -22 -22 -22 -22 -22 -21 -21 -21 -19 -19 -19 -19 -19 -19 -19 -19 -19 -20 -20 -20 -20 -20 -20 -20 -20 -21 -21 -20 -20 -21 -20 -21 -21 -21 -21 -21 -20 -20 -20 -20
-23 -22 -22 -22 -22 -22 -22 -21 -21 -21 -20 -19 -19 -19 -19 -19 -19 -19 -19 -19 -19 -20 -20 -20 -20 -20 -20 -20 -20 -20 -21 -21 -21 -21 -21 -21 -21 -21 -20 -21 -21 -21 -21
-22 -22 -21 -21 -22 -21 -21 -21 -21 -21 -20 -19 -19 -18 -18 -19 -19 -19 -19 -19 -19 -19 -19 -20 -20 -20 -21 -21 -21 -22 -22 -21 -21 -21 -21 -22 -22 -22 -22 -22 -21 -21 -20
-22 -22 -21 -21 -21 -21 -21 -21 -21 -20 -20 -19 -18 -19 -19 -19 -19 -19 -19 -19 -19 -19 -19 -20 -19 -19 -20 -21 -21 -21 -22 -22 -22 -22 -22 -22 -22 -21 -20 -19 -19 -20 -20

GFSGL_500_temp_054.txt.gz
Temp
-15 -15 -16 -16 -17 -17 -18 -18 -18 -18 -18 -18 -19 -19 -20 -21 -21 -21 -21 -21 -21 -22 -22 -23 -23 -23 -23 -23 -23 -23 -22 -22 -21 -20 -21 -22 -21 -20 -19 -20 -19 -19 -19
-16 -16 -17 -17 -18 -18 -18 -18 -18 -19 -19 -20 -21 -21 -21 -21 -21 -21 -22 -22 -22 -23 -22 -22 -22 -24 -25 -25 -24 -24 -24 -23 -23 -21 -22 -23 -22 -21 -20 -20 -20 -19 -19
-17 -18 -18 -19 -19 -19 -19 -19 -19 -20 -21 -21 -22 -21 -21 -21 -22 -22 -23 -23 -22 -22 -23 -22 -24 -26 -27 -27 -27 -26 -25 -24 -24 -23 -23 -23 -23 -22 -21 -21 -21 -20 -19
-18 -18 -19 -19 -19 -19 -20 -20 -21 -22 -22 -22 -21 -21 -22 -22 -23 -23 -22 -22 -23 -23 -23 -24 -25 -27 -27 -27 -28 -27 -26 -25 -25 -24 -24 -23 -23 -23 -22 -22 -21 -20 -19
-19 -19 -19 -19 -20 -20 -21 -22 -22 -22 -22 -22 -22 -22 -22 -22 -22 -22 -22 -22 -23 -24 -24 -25 -26 -27 -28 -27 -27 -27 -27 -26 -25 -25 -24 -24 -24 -23 -22 -22 -21 -21 -19
-19 -19 -20 -20 -21 -22 -23 -23 -22 -22 -22 -22 -22 -22 -22 -22 -23 -22 -22 -23 -23 -24 -24 -25 -26 -27 -28 -28 -28 -28 -27 -27 -26 -25 -24 -25 -24 -23 -23 -23 -22 -21 -20
-20 -20 -21 -22 -23 -23 -23 -22 -22 -22 -22 -22 -22 -22 -22 -22 -23 -23 -23 -24 -24 -25 -24 -25 -26 -27 -28 -28 -28 -28 -27 -27 -27 -25 -25 -25 -24 -24 -24 -23 -23 -21 -21
-21 -22 -23 -23 -23 -23 -22 -22 -22 -22 -22 -22 -22 -22 -22 -23 -23 -23 -24 -24 -25 -25 -25 -25 -26 -27 -27 -28 -28 -28 -27 -27 -27 -26 -25 -25 -25 -25 -24 -24 -23 -22 -21
-23 -24 -23 -23 -23 -22 -22 -22 -23 -22 -22 -22 -22 -22 -23 -23 -23 -23 -24 -25 -25 -26 -25 -26 -26 -27 -27 -27 -28 -28 -27 -27 -26 -26 -27 -26 -26 -26 -25 -24 -23 -23 -22
-24 -23 -23 -23 -22 -22 -23 -22 -23 -22 -22 -21 -22 -23 -23 -23 -23 -24 -24 -25 -26 -26 -26 -26 -27 -27 -27 -27 -28 -28 -27 -27 -27 -27 -27 -27 -27 -26 -26 -25 -24 -23 -22
-23 -23 -23 -23 -22 -23 -23 -23 -22 -22 -22 -22 -22 -22 -23 -23 -24 -24 -25 -25 -26 -26 -26 -26 -27 -27 -28 -28 -28 -28 -28 -27 -27 -27 -27 -27 -27 -27 -26 -26 -24 -23 -23
-23 -23 -23 -23 -23 -23 -23 -23 -22 -22 -23 -22 -23 -23 -23 -23 -24 -24 -25 -25 -26 -26 -26 -27 -27 -27 -28 -28 -29 -28 -28 -28 -27 -27 -27 -27 -27 -26 -26 -26 -25 -24 -23
-23 -23 -23 -23 -23 -23 -23 -22 -23 -23 -22 -22 -22 -22 -22 -23 -24 -25 -25 -25 -25 -26 -26 -27 -27 -28 -28 -28 -28 -28 -28 -28 -27 -28 -27 -27 -26 -26 -26 -26 -26 -25 -25
-23 -23 -23 -23 -23 -23 -23 -23 -23 -23 -22 -22 -21 -22 -22 -23 -24 -25 -25 -25 -25 -26 -27 -27 -28 -28 -28 -28 -28 -28 -28 -28 -28 -28 -27 -27 -27 -27 -26 -26 -26 -26 -26
-23 -23 -23 -23 -23 -24 -24 -23 -23 -23 -22 -21 -21 -22 -22 -23 -24 -24 -25 -25 -26 -26 -27 -27 -28 -28 -28 -28 -28 -28 -28 -28 -28 -28 -27 -27 -28 -28 -28 -28 -27 -27 -26
-23 -23 -23 -23 -24 -24 -24 -24 -23 -22 -22 -22 -22 -22 -22 -23 -24 -24 -24 -25 -26 -27 -27 -28 -28 -28 -28 -28 -27 -28 -28 -28 -27 -28 -28 -28 -28 -28 -28 -28 -28 -27 -26
-23 -24 -23 -24 -24 -24 -24 -23 -23 -23 -22 -22 -22 -22 -22 -23 -24 -24 -25 -25 -25 -26 -27 -27 -28 -28 -28 -28 -28 -28 -27 -27 -28 -28 -28 -28 -28 -28 -27 -27 -27 -27 -26
-24 -23 -23 -24 -24 -24 -23 -23 -22 -22 -22 -22 -22 -22 -22 -22 -23 -23 -24 -25 -25 -25 -26 -27 -27 -27 -27 -27 -27 -27 -27 -28 -28 -28 -28 -28 -28 -28 -28 -27 -27 -26 -25
-24 -23 -24 -24 -23 -23 -23 -22 -22 -23 -23 -23 -22 -22 -22 -22 -22 -22 -22 -23 -25 -25 -25 -25 -25 -26 -27 -27 -27 -27 -28 -28 -28 -28 -28 -27 -27 -27 -26 -26 -25 -25 -25
-23 -23 -23 -23 -23 -23 -23 -23 -23 -22 -22 -22 -22 -22 -21 -21 -21 -21 -22 -22 -23 -23 -24 -25 -25 -25 -25 -26 -26 -27 -27 -27 -27 -27 -27 -27 -26 -26 -25 -25 -24 -23 -23
-23 -23 -23 -23 -22 -22 -23 -22 -22 -22 -22 -22 -21 -21 -21 -20 -20 -20 -20 -21 -21 -22 -23 -23 -24 -24 -25 -25 -25 -26 -26 -26 -26 -26 -26 -25 -25 -24 -24 -23 -23 -22 -22
-23 -23 -23 -22 -22 -22 -22 -22 -22 -22 -22 -21 -21 -21 -21 -20 -20 -20 -20 -21 -21 -21 -22 -22 -23 -23 -23 -23 -24 -25 -25 -25 -25 -25 -25 -24 -23 -23 -22 -22 -22 -22 -22
-23 -23 -22 -22 -22 -22 -22 -22 -22 -22 -21 -21 -21 -21 -21 -20 -20 -20 -20 -21 -21 -21 -21 -21 -22 -22 -22 -22 -22 -23 -23 -24 -24 -24 -25 -24 -23 -23 -22 -22 -22 -22 -22
-23 -23 -22 -21 -21 -22 -22 -22 -21 -21 -20 -21 -20 -21 -20 -20 -20 -20 -20 -20 -20 -21 -21 -21 -21 -21 -21 -21 -21 -21 -21 -22 -22 -22 -22 -22 -22 -22 -22 -21 -21 -21 -21
-23 -22 -22 -21 -21 -21 -21 -21 -21 -21 -20 -20 -20 -20 -20 -20 -20 -19 -20 -20 -20 -21 -21 -22 -22 -22 -22 -21 -21 -21 -21 -21 -21 -21 -21 -21 -21 -21 -21 -21 -21 -21 -21
-23 -23 -22 -21 -21 -21 -21 -21 -21 -20 -20 -20 -20 -21 -20 -19 -19 -19 -20 -20 -20 -20 -21 -22 -22 -22 -22 -22 -22 -22 -21 -21 -21 -21 -21 -21 -21 -21 -21 -22 -22 -22 -22

GFSGL_500_temp_057.txt.gz
Temp
-16 -16 -16 -16 -16 -16 -16 -16 -17 -17 -18 -18 -19 -19 -19 -20 -21 -21 -21 -22 -21 -21 -21 -21 -22 -22 -22 -22 -23 -23 -22 -22 -22 -21 -21 -21 -21 -22 -21 -21 -20 -20 -20
-16 -16 -17 -17 -17 -17 -17 -18 -18 -18 -19 -19 -20 -21 -21 -22 -22 -22 -22 -21 -21 -22 -22 -22 -22 -23 -22 -22 -23 -23 -23 -23 -22 -22 -22 -23 -22 -22 -22 -21 -21 -20 -20
-17 -17 -18 -18 -18 -18 -18 -18 -19 -19 -20 -21 -22 -22 -22 -22 -22 -22 -22 -22 -22 -22 -22 -22 -22 -22 -23 -23 -23 -23 -23 -24 -24 -25 -24 -25 -23 -23 -24 -23 -21 -21 -20
-18 -18 -18 -18 -19 -19 -19 -19 -20 -21 -22 -22 -23 -22 -22 -22 -22 -22 -22 -22 -22 -22 -22 -22 -23 -23 -23 -23 -24 -24 -24 -25 -27 -27 -27 -26 -25 -25 -25 -23 -22 -21 -21
-18 -19 -19 -20 -19 -19 -20 -21 -22 -23 -23 -23 -22 -22 -22 -22 -22 -22 -22 -22 -22 -22 -23 -23 -23 -24 -24 -24 -24 -25 -26 -27 -28 -28 -28 -27 -26 -26 -25 -24 -23 -23 -22
-19 -20 -20 -20 -20 -21 -22 -23 -23 -23 -22 -22 -22 -22 -22 -22 -22 -22 -22 -22 -23 -23 -23 -24 -24 -25 -25 -25 -25 -26 -27 -28 -28 -28 -27 -27 -27 -26 -25 -25 -24 -23 -23
-20 -20 -20 -21 -21 -23 -23 -23 -23 -22 -22 -22 -22 -22 -22 -22 -22 -22 -23 -23 -23 -23 -24 -24 -25 -25 -25 -25 -26 -27 -28 -28 -28 -27 -27 -27 -27 -26 -26 -25 -24 -24 -23
-21 -21 -22 -23 -23 -23 -23 -23 -22 -22 -23 -23 -22 -22 -22 -22 -22 -23 -23 -23 -24 -24 -25 -25 -25 -26 -26 -26 -27 -27 -28 -28 -28 -27 -27 -27 -27 -26 -25 -25 -25 -24 -23
-21 -22 -23 -23 -23 -23 -23 -22 -22 -23 -23 -23 -22 -22 -22 -22 -23 -23 -23 -23 -24 -25 -25 -25 -26 -26 -26 -26 -27 -27 -28 -28 -28 -27 -27 -27 -26 -26 -26 -26 -25 -24 -23
-23 -24 -24 -23 -23 -23 -23 -23 -23 -23 -23 -22 -22 -22 -22 -23 -23 -23 -24 -24 -25 -25 -26 -26 -26 -26 -27 -27 -27 -28 -28 -27 -28 -28 -27 -27 -27 -26 -25 -25 -25 -25 -24
-24 -24 -24 -23 -23 -23 -23 -23 -23 -23 -23 -22 -22 -22 -23 -23 -23 -23 -24 -24 -25 -26 -26 -26 -27 -27 -27 -27 -28 -28 -28 -28 -27 -27 -27 -27 -27 -26 -26 -26 -26 -25 -24
-24 -24 -24 -23 -23 -23 -23 -23 -23 -23 -23 -23 -22 -23 -23 -22 -23 -24 -24 -25 -26 -25 -26 -27 -27 -27 -27 -28 -28 -29 -28 -28 -27 -27 -27 -27 -27 -26 -26 -26 -25 -25 -24
-24 -24 -24 -23 -23 -24 -23 -23 -24 -24 -23 -23 -22 -22 -22 -22 -23 -24 -25 -25 -26 -26 -27 -27 -27 -27 -27 -28 -29 -29 -28 -28 -27 -27 -27 -27 -27 -27 -27 -26 -26 -25 -24
-24 -24 -24 -23 -24 -24 -24 -24 -24 -23 -23 -22 -21 -22 -22 -22 -23 -24 -24 -25 -26 -26 -27 -27 -27 -28 -28 -28 -28 -28 -28 -28 -27 -27 -27 -27 -27 -27 -27 -26 -26 -26 -25
-24 -24 -24 -24 -24 -24 -24 -24 -24 -24 -22 -22 -22 -22 -22 -22 -23 -24 -24 -25 -25 -27 -27 -27 -28 -28 -28 -28 -28 -28 -28 -28 -28 -27 -27 -27 -27 -27 -27 -27 -26 -26 -26
-24 -24 -24 -24 -24 -24 -24 -24 -24 -23 -23 -22 -22 -22 -22 -23 -23 -24 -24 -25 -25 -26 -27 -28 -28 -28 -28 -29 -28 -28 -28 -28 -28 -28 -27 -27 -27 -27 -26 -26 -26 -26 -26
-24 -24 -24 -24 -24 -24 -24 -24 -24 -23 -23 -22 -23 -22 -22 -23 -23 -23 -24 -25 -25 -26 -27 -27 -28 -28 -28 -28 -28 -28 -28 -28 -28 -28 -27 -27 -27 -27 -27 -26 -26 -26 -26
-24 -24 -24 -23 -24 -24 -24 -23 -23 -22 -23 -23 -22 -22 -21 -22 -23 -23 -23 -24 -25 -25 -26 -27 -27 -27 -28 -28 -28 -27 -28 -28 -28 -28 -27 -28 -28 -28 -28 -28 -27 -27 -26
-25 -24 -24 -24 -24 -23 -23 -23 -22 -23 -23 -22 -22 -21 -21 -21 -22 -22 -22 -23 -24 -25 -25 -26 -26 -27 -27 -27 -27 -27 -27 -27 -27 -27 -27 -28 -28 -28 -28 -28 -28 -28 -27
-25 -24 -24 -23 -23 -23 -23 -22 -22 -22 -22 -22 -21 -21 -21 -21 -21 -21 -22 -22 -23 -24 -24 -25 -25 -26 -26 -26 -27 -27 -27 -27 -27 -28 -28 -28 -28 -28 -28 -28 -27 -27 -27
-24 -24 -24 -23 -23 -22 -22 -22 -22 -22 -22 -21 -21 -21 -21 -21 -21 -21 -22 -22 -23 -23 -24 -24 -25 -25 -25 -26 -26 -26 -26 -27 -27 -27 -27 -27 -28 -28 -28 -27 -27 -27 -27
-24 -24 -23 -23 -22 -22 -22 -22 -22 -22 -21 -21 -21 -21 -21 -21 -22 -22 -22 -22 -23 -23 -23 -24 -24 -25 -25 -25 -25 -25 -25 -25 -26 -26 -26 -27 -27 -27 -27 -27 -27 -27 -26
-24 -23 -23 -22 -22 -22 -22 -22 -22 -22 -21 -21 -21 -21 -21 -21 -21 -22 -22 -22 -22 -23 -23 -23 -23 -23 -23 -24 -24 -25 -24 -25 -25 -25 -26 -26 -27 -26 -26 -26 -25 -25 -25
-24 -23 -23 -22 -22 -22 -22 -22 -22 -21 -21 -21 -21 -21 -21 -21 -21 -22 -22 -22 -23 -23 -22 -22 -22 -22 -22 -22 -23 -24 -24 -25 -25 -24 -24 -24 -25 -24 -24 -24 -24 -24 -24
-24 -23 -23 -22 -22 -21 -22 -22 -22 -21 -21 -21 -21 -21 -20 -20 -20 -21 -21 -22 -22 -23 -23 -22 -22 -22 -21 -21 -22 -22 -23 -24 -24 -23 -23 -23 -23 -23 -23 -23 -24 -23 -23
-24 -23 -22 -22 -22 -21 -22 -22 -21 -21 -22 -21 -21 -20 -20 -20 -20 -21 -21 -21 -22 -22 -23 -22 -22 -22 -22 -22 -21 -21 -21 -21 -22 -22 -22 -22 -22 -22 -22 -22 -22 -22 -22

GFSGL_500_temp_060.txt.gz
Temp
-17 -17 -17 -17 -17 -17 -17 -17 -17 -17 -17 -17 -17 -17 -17 -18 -19 -20 -21 -22 -22 -22 -22 -22 -22 -22 -22 -22 -22 -22 -22 -22 -22 -21 -21 -21 -21 -21 -21 -21 -21 -21 -20
-18 -18 -18 -18 -18 -18 -17 -17 -17 -17 -18 -18 -18 -19 -20 -21 -22 -23 -22 -22 -22 -22 -22 -22 -22 -23 -23 -23 -23 -23 -23 -22 -22 -22 -22 -22 -22 -22 -22 -22 -22 -21 -21
-18 -18 -18 -18 -18 -18 -18 -18 -19 -18 -19 -20 -20 -22 -23 -23 -22 -22 -22 -22 -22 -22 -22 -22 -22 -22 -22 -22 -22 -23 -23 -23 -23 -22 -22 -22 -22 -22 -22 -23 -22 -22 -21
-18 -18 -18 -19 -19 -19 -19 -20 -20 -20 -20 -22 -23 -23 -22 -22 -22 -22 -22 -22 -21 -21 -22 -22 -22 -23 -23 -23 -23 -23 -23 -23 -23 -23 -23 -23 -23 -23 -23 -23 -23 -23 -22
-19 -19 -19 -19 -20 -20 -21 -21 -21 -22 -23 -23 -23 -22 -22 -22 -22 -22 -22 -21 -22 -22 -22 -23 -23 -23 -23 -23 -23 -24 -24 -24 -25 -25 -24 -24 -24 -25 -25 -26 -26 -25 -24
-19 -20 -20 -21 -21 -21 -21 -22 -23 -23 -23 -23 -22 -22 -22 -23 -23 -22 -22 -22 -22 -22 -22 -23 -23 -24 -24 -24 -24 -24 -25 -25 -25 -25 -25 -25 -26 -28 -28 -28 -27 -26 -24
-20 -21 -21 -21 -21 -22 -22 -23 -23 -23 -23 -23 -23 -23 -23 -23 -22 -22 -22 -22 -22 -23 -23 -24 -24 -25 -25 -25 -25 -26 -26 -26 -26 -26 -27 -28 -28 -28 -28 -28 -27 -26 -25
-21 -21 -22 -22 -22 -23 -24 -24 -23 -23 -23 -23 -23 -23 -23 -23 -22 -22 -22 -22 -23 -23 -24 -25 -25 -25 -25 -26 -26 -26 -26 -26 -26 -27 -27 -28 -28 -28 -28 -27 -27 -26 -26
-22 -22 -22 -23 -24 -24 -24 -24 -23 -23 -23 -23 -23 -23 -23 -23 -22 -23 -23 -22 -22 -24 -25 -25 -26 -26 -26 -26 -26 -27 -26 -27 -27 -27 -28 -28 -28 -28 -27 -27 -26 -25 -26
-23 -23 -24 -24 -24 -24 -24 -24 -23 -23 -24 -23 -24 -23 -23 -23 -23 -22 -22 -23 -23 -24 -25 -26 -26 -26 -26 -27 -27 -27 -27 -27 -28 -28 -28 -28 -28 -27 -27 -27 -26 -26 -26
-24 -24 -24 -25 -24 -24 -24 -24 -24 -24 -24 -24 -24 -23 -23 -23 -23 -22 -23 -23 -24 -25 -25 -26 -26 -26 -27 -27 -27 -27 -27 -28 -28 -28 -28 -28 -27 -27 -27 -26 -26 -26 -26
-25 -25 -25 -25 -25 -24 -24 -24 -24 -24 -24 -24 -23 -23 -23 -23 -22 -22 -23 -24 -24 -25 -25 -27 -27 -27 -27 -27 -27 -28 -29 -28 -28 -28 -28 -27 -27 -27 -27 -26 -26 -25 -26
-26 -25 -25 -25 -24 -24 -24 -24 -24 -24 -24 -23 -23 -23 -23 -22 -22 -22 -23 -24 -24 -25 -26 -27 -27 -27 -27 -28 -28 -29 -29 -29 -28 -28 -28 -28 -27 -27 -26 -27 -26 -26 -26
-26 -25 -25 -25 -24 -24 -24 -24 -24 -24 -24 -23 -23 -22 -22 -22 -22 -23 -23 -24 -24 -25 -26 -27 -27 -28 -28 -28 -29 -29 -29 -29 -29 -28 -28 -27 -27 -27 -26 -26 -26 -26 -26
-26 -25 -25 -24 -24 -24 -24 -24 -24 -24 -24 -23 -22 -22 -22 -22 -22 -22 -23 -24 -24 -25 -26 -27 -28 -28 -28 -28 -28 -28 -28 -28 -28 -27 -27 -28 -27 -27 -27 -27 -26 -26 -26
-26 -25 -25 -24 -24 -24 -24 -24 -24 -24 -23 -23 -22 -22 -22 -22 -22 -23 -23 -24 -25 -25 -25 -26 -27 -28 -28 -28 -28 -28 -28 -28 -28 -28 -27 -27 -27 -27 -27 -27 -27 -27 -27
-25 -25 -25 -25 -24 -24 -24 -24 -24 -24 -23 -23 -23 -23 -22 -22 -22 -22 -23 -24 -25 -25 -25 -26 -27 -28 -28 -28 -28 -28 -28 -28 -28 -28 -27 -27 -27 -27 -27 -27 -27 -26 -26
-25 -25 -25 -24 -24 -24 -24 -23 -23 -22 -22 -23 -23 -22 -22 -22 -22 -22 -23 -23 -24 -25 -25 -25 -27 -27 -28 -28 -28 -28 -28 -28 -28 -28 -28 -28 -28 -27 -27 -27 -27 -27 -26
-25 -25 -25 -24 -24 -24 -23 -23 -22 -22 -22 -22 -23 -22 -22 -22 -22 -22 -22 -23 -24 -24 -25 -25 -26 -27 -27 -28 -27 -28 -28 -28 -28 -28 -28 -27 -27 -27 -27 -27 -26 -26 -26
-25 -25 -24 -24 -23 -23 -23 -23 -22 -22 -22 -22 -22 -22 -22 -22 -22 -22 -23 -23 -23 -24 -25 -25 -25 -26 -27 -27 -27 -27 -27 -27 -27 -28 -28 -27 -28 -28 -27 -27 -26 -26 -26
-25 -25 -24 -24 -23 -23 -23 -22 -22 -22 -22 -22 -21 -21 -22 -22 -22 -22 -23 -23 -23 -23 -24 -25 -25 -25 -26 -26 -26 -27 -27 -27 -27 -27 -28 -28 -28 -28 -28 -28 -28 -28 -27
-25 -25 -24 -23 -23 -23 -23 -22 -22 -22 -22 -22 -21 -21 -22 -22 -22 -23 -23 -23 -22 -22 -23 -24 -24 -25 -25 -25 -25 -25 -25 -26 -27 -27 -28 -28 -28 -28 -28 -28 -28 -28 -28
-25 -25 -24 -23 -23 -23 -22 -22 -22 -22 -22 -22 -21 -21 -21 -22 -22 -22 -23 -23 -23 -23 -23 -23 -23 -24 -24 -25 -24 -24 -25 -25 -26 -27 -28 -28 -28 -28 -28 -28 -28 -28 -28
-25 -24 -23 -23 -23 -22 -22 -22 -22 -22 -22 -21 -20 -20 -21 -21 -22 -22 -23 -23 -23 -23 -22 -22 -22 -23 -24 -24 -24 -24 -24 -25 -26 -26 -27 -27 -28 -27 -28 -28 -28 -28 -27
-25 -24 -23 -23 -22 -22 -22 -22 -22 -22 -22 -21 -20 -21 -21 -21 -22 -22 -22 -23 -23 -23 -22 -22 -22 -22 -22 -24 -24 -24 -24 -24 -24 -25 -26 -26 -27 -27 -27 -27 -27 -27 -27
-25 -24 -23 -23 -22 -22 -22 -22 -22 -22 -21 -20 -20 -20 -21 -21 -21 -21 -22 -23 -23 -23 -22 -22 -22 -22 -22 -22 -22 -22 -23 -23 -24 -24 -24 -25 -25 -25 -25 -25 -25 -25 -25

GFSGL_500_temp_063.txt.gz
Temp
-17 -18 -18 -18 -18 -18 -18 -18 -18 -18 -18 -18 -18 -18 -18 -18 -18 -19 -19 -20 -21 -22 -22 -22 -22 -22 -22 -22 -22 -22 -22 -22 -22 -22 -22 -22 -22 -22 -22 -21 -21 -21 -20
-18 -18 -18 -18 -18 -18 -18 -18 -19 -19 -19 -19 -19 -20 -20 -20 -20 -21 -22 -22 -22 -22 -22 -22 -22 -22 -22 -22 -22 -22 -22 -22 -22 -22 -22 -22 -22 -23 -22 -22 -22 -21 -21
-18 -19 -19 -19 -19 -19 -19 -19 -20 -20 -20 -21 -21 -21 -21 -22 -23 -23 -22 -22 -22 -22 -22 -22 -22 -22 -22 -22 -22 -22 -22 -23 -22 -22 -22 -22 -22 -22 -22 -23 -23 -22 -22
-19 -19 -19 -19 -20 -20 -20 -20 -20 -21 -21 -22 -22 -22 -23 -23 -23 -22 -22 -22 -22 -22 -22 -22 -21 -22 -22 -22 -23 -23 -23 -23 -23 -23 -22 -23 -23 -22 -22 -22 -22 -22 -22
-19 -19 -20 -20 -20 -20 -20 -21 -21 -22 -22 -23 -24 -24 -24 -23 -23 -22 -23 -23 -22 -22 -22 -22 -23 -23 -23 -23 -23 -23 -23 -23 -24 -24 -23 -23 -23 -23 -23 -23 -22 -23 -22
-20 -20 -20 -20 -20 -21 -21 -22 -22 -22 -23 -24 -24 -24 -23 -23 -23 -23 -23 -22 -22 -22 -22 -22 -22 -23 -23 -24 -24 -25 -25 -25 -24 -24 -24 -24 -24 -25 -24 -24 -24 -24 -23
-20 -20 -21 -21 -21 -22 -22 -23 -23 -24 -24 -24 -24 -24 -23 -23 -23 -23 -23 -22 -22 -22 -22 -22 -22 -23 -24 -24 -25 -25 -26 -25 -25 -25 -25 -26 -26 -26 -25 -25 -25 -24 -24
-21 -21 -21 -22 -22 -23 -23 -24 -24 -25 -24 -24 -24 -23 -24 -24 -24 -24 -23 -23 -22 -22 -22 -22 -23 -24 -25 -25 -26 -26 -26 -26 -26 -26 -26 -26 -26 -27 -27 -26 -26 -26 -25
-22 -22 -23 -23 -23 -24 -25 -25 -25 -25 -24 -24 -24 -24 -24 -24 -24 -23 -23 -22 -22 -22 -23 -24 -24 -25 -25 -27 -27 -26 -27 -27 -27 -27 -26 -26 -27 -27 -28 -28 -28 -27 -27
-23 -23 -24 -25 -25 -26 -25 -25 -25 -24 -24 -24 -24 -24 -24 -23 -23 -23 -23 -22 -22 -23 -24 -25 -25 -25 -26 -27 -27 -27 -27 -27 -27 -27 -27 -27 -27 -28 -28 -28 -28 -27 -27
-24 -25 -25 -26 -26 -26 -25 -25 -24 -24 -24 -24 -24 -24 -24 -23 -23 -23 -23 -23 -23 -23 -24 -25 -24 -26 -27 -27 -27 -27 -27 -27 -27 -27 -27 -28 -28 -28 -27 -27 -27 -27 -27
-25 -26 -26 -26 -26 -25 -25 -24 -24 -24 -24 -24 -24 -24 -23 -24 -23 -23 -23 -23 -23 -24 -25 -25 -25 -26 -27 -27 -27 -28 -28 -28 -28 -28 -28 -28 -28 -27 -27 -27 -27 -26 -26
-26 -26 -26 -26 -25 -25 -24 -24 -24 -24 -24 -24 -23 -23 -24 -24 -23 -23 -23 -23 -24 -25 -25 -25 -25 -26 -27 -27 -28 -28 -28 -29 -29 -28 -28 -28 -28 -27 -27 -27 -26 -26 -26
-27 -26 -26 -25 -25 -25 -25 -24 -24 -24 -24 -24 -24 -23 -22 -22 -22 -23 -23 -24 -24 -25 -25 -25 -25 -27 -27 -28 -29 -29 -29 -29 -28 -28 -28 -27 -27 -27 -27 -26 -26 -26 -26
-26 -26 -25 -25 -25 -25 -25 -24 -24 -24 -24 -24 -23 -23 -23 -23 -23 -23 -23 -24 -24 -25 -26 -25 -26 -27 -28 -28 -29 -29 -29 -29 -28 -28 -28 -27 -27 -27 -26 -26 -26 -26 -26
-26 -26 -25 -25 -25 -25 -24 -24 -24 -24 -24 -24 -24 -23 -23 -23 -23 -23 -23 -23 -24 -26 -26 -26 -26 -27 -28 -28 -29 -28 -28 -28 -28 -28 -27 -27 -27 -27 -27 -26 -26 -26 -26
-26 -26 -25 -25 -25 -24 -24 -24 -24 -24 -24 -23 -23 -23 -23 -23 -23 -23 -23 -23 -24 -25 -26 -26 -26 -27 -28 -28 -28 -28 -28 -28 -28 -28 -27 -27 -27 -27 -27 -26 -26 -26 -26
-26 -26 -25 -25 -25 -24 -24 -24 -23 -23 -23 -23 -23 -23 -23 -23 -23 -23 -23 -23 -24 -25 -25 -26 -26 -27 -28 -28 -28 -28 -28 -28 -28 -28 -27 -27 -27 -27 -27 -27 -26 -27 -26
-26 -26 -25 -25 -24 -24 -24 -23 -23 -23 -23 -23 -22 -23 -23 -23 -22 -23 -23 -23 -24 -24 -25 -26 -26 -27 -27 -28 -28 -28 -28 -28 -28 -28 -28 -27 -27 -27 -27 -27 -27 -27 -27
-26 -26 -25 -25 -24 -24 -23 -23 -23 -23 -23 -22 -22 -22 -23 -23 -23 -23 -23 -23 -23 -24 -25 -25 -26 -27 -27 -27 -28 -28 -28 -28 -28 -28 -28 -28 -27 -27 -27 -27 -27 -27 -26
-26 -25 -25 -24 -24 -23 -23 -23 -23 -23 -22 -22 -22 -22 -22 -23 -23 -23 -23 -23 -23 -24 -24 -25 -26 -26 -27 -27 -28 -27 -28 -28 -28 -28 -28 -27 -27 -27 -27 -27 -27 -27 -27
-26 -26 -25 -24 -24 -23 -23 -23 -23 -23 -23 -22 -22 -21 -22 -22 -23 -23 -23 -23 -23 -23 -24 -24 -25 -25 -25 -26 -27 -27 -27 -27 -27 -27 -28 -28 -28 -28 -27 -27 -27 -26 -26
-26 -25 -25 -24 -24 -23 -23 -23 -23 -23 -23 -21 -21 -22 -22 -22 -23 -23 -23 -23 -23 -23 -23 -23 -24 -24 -24 -24 -25 -25 -26 -26 -27 -27 -28 -28 -28 -28 -28 -28 -28 -27 -26
-26 -25 -24 -24 -23 -23 -23 -23 -22 -23 -22 -21 -21 -22 -22 -22 -22 -23 -23 -23 -23 -23 -23 -23 -24 -24 -24 -24 -24 -24 -25 -26 -26 -27 -28 -28 -28 -28 -28 -28 -28 -28 -27
-26 -25 -24 -24 -23 -23 -23 -23 -22 -22 -22 -21 -21 -21 -21 -22 -22 -22 -23 -23 -23 -23 -23 -23 -23 -23 -24 -23 -23 -24 -24 -25 -26 -27 -28 -28 -28 -28 -28 -28 -28 -28 -27
-26 -25 -24 -23 -23 -23 -22 -22 -22 -22 -21 -21 -21 -21 -21 -21 -22 -22 -23 -23 -23 -23 -23 -23 -23 -22 -22 -23 -23 -23 -24 -25 -26 -27 -27 -27 -27 -28 -28 -28 -27 -27 -27

GFSGL_500_temp_069.txt.gz
Temp
-18 -18 -18 -18 -18 -18 -19 -19 -19 -19 -19 -19 -19 -19 -19 -20 -20 -20 -20 -20 -20 -21 -21 -21 -21 -22 -23 -23 -23 -23 -23 -22 -22 -21 -22 -22 -21 -21 -21 -21 -21 -21 -21
-18 -18 -18 -19 -19 -19 -19 -19 -19 -19 -19 -20 -20 -20 -20 -20 -20 -20 -21 -21 -22 -22 -22 -22 -23 -24 -23 -23 -23 -23 -23 -23 -22 -22 -22 -22 -21 -21 -22 -21 -21 -22 -21
-18 -18 -19 -19 -19 -19 -20 -20 -20 -20 -20 -20 -20 -21 -21 -21 -21 -21 -22 -22 -23 -23 -24 -24 -24 -24 -23 -23 -23 -23 -23 -23 -22 -21 -21 -21 -21 -21 -22 -22 -21 -21 -22
-19 -19 -19 -20 -20 -20 -20 -21 -21 -21 -21 -21 -21 -21 -21 -22 -22 -23 -23 -24 -24 -24 -24 -24 -24 -24 -24 -23 -23 -23 -23 -22 -22 -21 -21 -21 -21 -22 -21 -21 -22 -22 -22
-19 -20 -20 -20 -21 -21 -21 -21 -21 -21 -21 -21 -22 -22 -22 -23 -24 -25 -25 -25 -25 -24 -24 -24 -24 -24 -24 -23 -23 -23 -23 -22 -22 -22 -22 -22 -21 -22 -22 -22 -22 -22 -22
-21 -21 -21 -21 -21 -21 -21 -22 -22 -22 -22 -23 -23 -24 -24 -25 -25 -25 -25 -25 -24 -24 -24 -24 -24 -24 -24 -23 -23 -23 -22 -22 -22 -23 -23 -23 -23 -23 -23 -23 -22 -22 -23
-21 -22 -22 -22 -22 -22 -22 -22 -23 -23 -24 -24 -24 -25 -25 -25 -25 -25 -24 -24 -24 -24 -24 -24 -24 -24 -24 -23 -23 -23 -23 -24 -24 -24 -23 -24 -24 -25 -25 -25 -24 -24 -24
-22 -22 -22 -22 -22 -23 -23 -24 -25 -25 -25 -25 -25 -25 -25 -25 -24 -24 -25 -25 -25 -24 -24 -24 -24 -24 -24 -24 -23 -24 -24 -24 -25 -25 -25 -25 -26 -26 -26 -26 -26 -25 -25
-22 -23 -23 -23 -24 -25 -25 -25 -25 -26 -25 -25 -25 -25 -25 -25 -25 -25 -25 -25 -24 -24 -24 -24 -24 -24 -24 -24 -24 -24 -25 -25 -25 -25 -26 -26 -27 -27 -27 -27 -26 -26 -26
-24 -24 -25 -26 -25 -26 -26 -26 -26 -26 -25 -25 -25 -25 -25 -24 -25 -25 -25 -25 -24 -24 -24 -24 -24 -24 -24 -25 -25 -25 -25 -25 -26 -26 -27 -27 -27 -27 -27 -27 -27 -26 -26
-26 -26 -26 -27 -27 -27 -27 -26 -26 -25 -25 -25 -25 -25 -24 -24 -24 -25 -24 -24 -24 -24 -24 -24 -25 -25 -26 -25 -25 -25 -25 -26 -26 -27 -27 -27 -27 -27 -27 -27 -27 -26 -26
-27 -27 -27 -28 -27 -27 -26 -26 -25 -25 -25 -25 -24 -24 -24 -24 -24 -24 -24 -24 -24 -24 -24 -24 -25 -26 -26 -26 -25 -25 -26 -27 -27 -28 -27 -27 -27 -27 -27 -27 -27 -27 -26
-27 -27 -28 -27 -27 -27 -26 -26 -25 -25 -25 -24 -24 -24 -24 -24 -24 -24 -24 -24 -24 -23 -24 -24 -25 -26 -26 -26 -26 -27 -27 -28 -28 -28 -28 -28 -27 -27 -27 -27 -27 -27 -26
-28 -28 -28 -27 -27 -26 -26 -25 -25 -25 -24 -24 -24 -24 -24 -24 -24 -24 -24 -24 -24 -23 -23 -24 -26 -26 -26 -26 -27 -27 -28 -29 -29 -29 -29 -28 -28 -28 -27 -27 -27 -27 -27
-28 -28 -27 -27 -26 -26 -26 -25 -25 -24 -24 -24 -24 -24 -23 -23 -23 -23 -23 -24 -24 -23 -24 -25 -26 -26 -26 -27 -27 -28 -29 -29 -29 -29 -28 -28 -28 -28 -28 -28 -27 -27 -27
-28 -27 -27 -27 -26 -26 -25 -25 -24 -24 -24 -24 -24 -24 -23 -23 -23 -23 -23 -23 -23 -24 -25 -26 -26 -26 -26 -27 -28 -28 -29 -29 -28 -28 -28 -28 -27 -27 -27 -27 -27 -26 -26
-27 -27 -27 -26 -26 -26 -25 -24 -24 -24 -24 -24 -24 -24 -23 -23 -23 -24 -23 -23 -24 -24 -25 -26 -26 -26 -27 -28 -28 -28 -28 -28 -28 -28 -28 -27 -27 -27 -27 -26 -26 -26 -25
-27 -27 -26 -26 -26 -25 -25 -24 -24 -24 -24 -24 -23 -23 -23 -23 -24 -24 -23 -23 -24 -24 -25 -26 -26 -27 -27 -28 -28 -28 -28 -28 -28 -28 -27 -27 -27 -26 -26 -26 -25 -26 -25
-27 -27 -26 -26 -26 -25 -24 -24 -24 -24 -23 -23 -23 -23 -23 -23 -24 -23 -23 -23 -24 -24 -25 -25 -26 -27 -27 -28 -28 -28 -28 -27 -27 -27 -27 -27 -27 -26 -26 -26 -26 -26 -25
-27 -27 -26 -26 -25 -24 -24 -24 -24 -24 -23 -23 -23 -23 -23 -23 -24 -23 -23 -23 -24 -25 -25 -25 -26 -26 -27 -27 -28 -28 -28 -27 -27 -27 -27 -27 -27 -26 -27 -26 -26 -26 -25
-27 -27 -26 -26 -25 -24 -24 -24 -24 -23 -23 -22 -22 -23 -23 -23 -23 -24 -23 -24 -24 -24 -24 -24 -24 -25 -26 -27 -27 -28 -28 -27 -27 -27 -27 -27 -27 -27 -26 -26 -26 -26 -26
-27 -27 -26 -25 -24 -24 -24 -23 -23 -23 -23 -22 -22 -23 -23 -23 -24 -24 -23 -23 -23 -24 -24 -24 -24 -24 -25 -26 -27 -28 -28 -27 -27 -27 -27 -27 -27 -27 -26 -26 -26 -26 -26
-27 -26 -26 -25 -24 -24 -23 -23 -23 -22 -22 -22 -22 -23 -23 -23 -23 -24 -23 -24 -24 -23 -23 -24 -24 -24 -24 -25 -26 -27 -27 -27 -27 -27 -27 -27 -27 -27 -27 -26 -26 -26 -26
-27 -26 -26 -25 -24 -23 -23 -23 -23 -22 -22 -22 -22 -22 -23 -23 -23 -23 -23 -23 -24 -23 -23 -24 -24 -23 -24 -25 -26 -26 -27 -27 -27 -27 -27 -27 -27 -27 -27 -27 -27 -26 -26
-26 -26 -26 -25 -24 -23 -23 -23 -22 -22 -21 -21 -22 -22 -22 -23 -23 -23 -23 -23 -23 -23 -23 -23 -23 -23 -23 -25 -25 -26 -27 -27 -27 -27 -27 -27 -27 -27 -27 -27 -27 -26 -26
-26 -26 -26 -24 -24 -23 -23 -23 -22 -21 -21 -21 -21 -22 -22 -22 -23 -23 -23 -23 -23 -23 -23 -23 -23 -23 -23 -23 -25 -25 -26 -27 -27 -27 -28 -28 -28 -27 -27 -26 -26 -26 -26

GFSGL_500_temp_072.txt.gz
Temp
-17 -17 -17 -18 -18 -18 -19 -19 -19 -19 -20 -20 -20 -20 -20 -20 -20 -20 -20 -20 -20 -20 -20 -20 -20 -20 -21 -21 -21 -22 -22 -23 -23 -22 -23 -23 -23 -22 -22 -22 -22 -21 -21
-17 -17 -18 -18 -19 -19 -19 -20 -20 -20 -20 -21 -21 -21 -21 -21 -21 -21 -21 -21 -21 -21 -21 -21 -21 -21 -22 -23 -24 -24 -24 -24 -23 -23 -23 -23 -23 -23 -23 -22 -22 -21 -21
-17 -18 -18 -19 -19 -20 -20 -20 -21 -21 -21 -22 -22 -22 -22 -22 -22 -22 -22 -22 -22 -22 -22 -23 -24 -24 -25 -25 -25 -24 -24 -24 -24 -23 -23 -23 -23 -23 -23 -22 -22 -21 -22
-18 -18 -19 -20 -21 -21 -21 -22 -22 -22 -22 -22 -22 -22 -22 -22 -22 -22 -22 -23 -24 -24 -24 -25 -25 -25 -25 -25 -24 -24 -24 -24 -24 -23 -23 -23 -23 -23 -22 -22 -21 -21 -21
-19 -20 -21 -21 -22 -22 -22 -22 -22 -22 -22 -22 -22 -22 -23 -23 -24 -25 -24 -25 -25 -25 -25 -25 -25 -25 -24 -25 -25 -25 -24 -24 -24 -23 -23 -23 -22 -22 -22 -22 -22 -21 -21
-20 -21 -22 -22 -22 -22 -22 -22 -23 -23 -23 -24 -24 -25 -25 -25 -25 -26 -25 -25 -25 -25 -24 -24 -25 -25 -25 -25 -25 -25 -25 -24 -24 -23 -23 -22 -22 -22 -22 -22 -22 -22 -22
-22 -22 -23 -23 -23 -23 -23 -24 -25 -25 -25 -25 -25 -25 -26 -26 -26 -25 -25 -25 -25 -25 -25 -25 -25 -25 -25 -25 -25 -24 -24 -24 -24 -23 -22 -22 -22 -23 -23 -23 -22 -22 -22
-23 -23 -23 -23 -24 -25 -25 -26 -26 -26 -27 -27 -27 -26 -26 -25 -25 -25 -25 -25 -25 -25 -25 -25 -25 -25 -25 -24 -24 -24 -24 -24 -24 -24 -23 -23 -23 -24 -24 -24 -24 -23 -23
-23 -23 -24 -25 -26 -26 -26 -27 -27 -27 -27 -26 -26 -26 -25 -25 -25 -25 -25 -25 -25 -25 -25 -25 -25 -24 -24 -25 -24 -24 -24 -24 -24 -24 -25 -25 -25 -25 -24 -24 -24 -24 -24
-24 -24 -26 -26 -27 -27 -27 -28 -27 -27 -26 -26 -25 -25 -25 -25 -25 -25 -25 -25 -25 -24 -24 -24 -24 -24 -25 -25 -25 -25 -25 -25 -25 -26 -26 -25 -25 -25 -26 -25 -26 -26 -26
-25 -26 -27 -27 -27 -28 -28 -27 -27 -26 -26 -25 -25 -25 -25 -25 -25 -25 -25 -24 -24 -24 -24 -24 -24 -24 -25 -26 -26 -26 -26 -26 -26 -26 -26 -26 -26 -27 -27 -27 -26 -26 -26
-26 -27 -27 -28 -28 -28 -27 -27 -26 -26 -25 -25 -25 -25 -25 -25 -24 -24 -25 -24 -24 -24 -24 -24 -24 -24 -25 -26 -27 -27 -26 -26 -26 -27 -27 -27 -27 -27 -27 -27 -27 -26 -27
-27 -28 -28 -28 -28 -27 -27 -26 -26 -26 -25 -25 -25 -25 -25 -24 -24 -24 -24 -24 -24 -24 -24 -24 -24 -24 -25 -26 -27 -27 -27 -27 -27 -28 -28 -28 -28 -28 -27 -27 -27 -27 -27
-28 -28 -28 -28 -27 -27 -26 -26 -26 -25 -25 -25 -25 -24 -24 -24 -23 -23 -24 -24 -24 -24 -24 -24 -25 -25 -26 -27 -27 -27 -28 -28 -28 -29 -29 -29 -29 -28 -28 -27 -27 -27 -27
-28 -28 -27 -27 -27 -26 -26 -26 -25 -25 -24 -24 -24 -24 -24 -24 -23 -24 -24 -23 -24 -24 -24 -25 -26 -26 -27 -27 -27 -28 -28 -28 -29 -29 -29 -29 -29 -28 -28 -28 -27 -27 -27
-28 -28 -27 -27 -26 -26 -26 -26 -25 -25 -24 -24 -24 -24 -24 -23 -23 -24 -24 -24 -24 -24 -25 -25 -26 -26 -27 -27 -27 -28 -28 -28 -28 -28 -28 -28 -28 -28 -28 -28 -27 -27 -27
-28 -27 -27 -27 -26 -26 -26 -25 -25 -25 -24 -24 -24 -24 -24 -23 -23 -24 -24 -24 -24 -25 -25 -25 -26 -26 -27 -28 -28 -28 -28 -28 -28 -28 -28 -28 -27 -27 -27 -27 -27 -26 -26
-28 -27 -27 -27 -26 -26 -25 -24 -24 -24 -24 -24 -24 -23 -23 -23 -24 -24 -24 -24 -24 -25 -25 -25 -26 -26 -27 -28 -28 -28 -28 -28 -28 -27 -28 -27 -27 -26 -26 -26 -26 -25 -25
-27 -27 -27 -27 -26 -26 -25 -24 -24 -24 -24 -23 -23 -23 -23 -23 -24 -24 -24 -24 -24 -24 -24 -24 -25 -26 -27 -28 -28 -28 -28 -28 -28 -28 -27 -27 -27 -26 -26 -26 -25 -25 -25
-27 -27 -27 -27 -26 -25 -25 -24 -24 -24 -23 -23 -23 -23 -23 -24 -24 -24 -24 -24 -24 -24 -24 -24 -24 -25 -27 -27 -28 -28 -27 -27 -28 -27 -27 -27 -27 -26 -26 -26 -25 -25 -25
-27 -27 -27 -27 -26 -25 -24 -24 -24 -23 -23 -22 -22 -23 -23 -24 -24 -24 -24 -24 -24 -24 -24 -24 -24 -25 -26 -27 -27 -28 -27 -27 -27 -27 -27 -27 -27 -26 -26 -26 -26 -25 -25
-27 -27 -26 -26 -26 -25 -24 -24 -23 -23 -22 -22 -22 -23 -23 -23 -24 -24 -24 -24 -24 -24 -24 -25 -24 -24 -25 -26 -27 -28 -27 -27 -27 -27 -27 -27 -26 -26 -26 -26 -26 -25 -25
-27 -26 -26 -26 -25 -24 -24 -24 -23 -23 -22 -22 -22 -23 -23 -23 -23 -24 -24 -24 -24 -24 -24 -24 -24 -24 -25 -26 -26 -27 -27 -27 -27 -27 -27 -27 -26 -26 -26 -26 -26 -26 -26
-27 -26 -26 -26 -25 -24 -24 -23 -23 -22 -22 -22 -22 -23 -23 -23 -23 -23 -23 -24 -24 -24 -24 -23 -23 -24 -25 -25 -26 -26 -27 -27 -27 -27 -27 -26 -26 -26 -25 -26 -25 -25 -26
-26 -26 -26 -25 -24 -24 -23 -23 -23 -22 -22 -22 -22 -22 -23 -23 -23 -23 -23 -24 -24 -24 -24 -23 -23 -24 -25 -25 -26 -26 -27 -27 -27 -27 -27 -27 -27 -27 -26 -26 -25 -25 -25
-26 -26 -26 -25 -24 -23 -23 -23 -22 -22 -21 -21 -22 -22 -23 -23 -23 -23 -23 -23 -24 -23 -24 -24 -23 -24 -23 -25 -25 -26 -27 -27 -27 -27 -27 -27 -27 -27 -27 -27 -26 -26 -26

GFSGL_500_temp_078.txt.gz
Temp
-15 -16 -16 -17 -17 -17 -18 -18 -18 -18 -19 -19 -20 -21 -21 -22 -22 -22 -22 -23 -23 -23 -23 -23 -23 -23 -22 -22 -22 -22 -22 -22 -21 -21 -21 -21 -20 -20 -20 -20 -19 -19 -19
-16 -17 -17 -18 -18 -19 -19 -19 -19 -20 -20 -21 -22 -22 -22 -23 -23 -23 -23 -23 -23 -24 -24 -24 -24 -24 -24 -24 -24 -23 -23 -23 -23 -22 -22 -22 -21 -21 -21 -21 -20 -20 -19
-16 -17 -17 -18 -18 -18 -19 -19 -20 -21 -22 -22 -23 -23 -23 -23 -24 -24 -24 -25 -25 -25 -25 -25 -25 -26 -25 -25 -25 -25 -25 -25 -25 -25 -24 -25 -24 -24 -23 -23 -24 -23 -22
-17 -17 -18 -18 -18 -19 -20 -21 -22 -22 -23 -23 -23 -24 -24 -25 -25 -26 -26 -26 -26 -26 -26 -26 -26 -26 -26 -26 -26 -26 -25 -25 -25 -25 -25 -25 -25 -25 -25 -25 -25 -25 -24
-17 -18 -19 -19 -20 -21 -22 -23 -23 -23 -24 -24 -25 -25 -26 -26 -27 -27 -27 -27 -27 -26 -26 -26 -26 -26 -26 -25 -25 -25 -25 -25 -25 -25 -25 -25 -25 -26 -26 -25 -25 -25 -25
-18 -19 -20 -21 -22 -23 -23 -24 -24 -24 -25 -26 -26 -26 -27 -27 -27 -27 -27 -26 -26 -26 -25 -25 -25 -25 -26 -26 -26 -26 -26 -26 -25 -25 -25 -25 -25 -26 -26 -25 -25 -25 -24
-19 -20 -22 -23 -23 -24 -24 -25 -25 -26 -26 -27 -27 -27 -27 -27 -26 -26 -26 -26 -25 -25 -25 -25 -25 -25 -25 -25 -26 -26 -26 -26 -26 -26 -25 -25 -25 -25 -25 -25 -25 -25 -24
-22 -23 -23 -24 -24 -25 -26 -26 -27 -27 -27 -27 -27 -27 -27 -26 -26 -26 -25 -25 -25 -25 -25 -25 -25 -25 -25 -25 -25 -25 -25 -25 -26 -25 -25 -25 -25 -25 -25 -25 -25 -24 -24
-23 -24 -24 -25 -26 -26 -27 -27 -27 -27 -27 -27 -27 -27 -26 -26 -26 -25 -25 -25 -25 -25 -25 -25 -25 -25 -25 -25 -24 -24 -25 -25 -25 -25 -25 -25 -24 -24 -24 -24 -24 -24 -24
-24 -25 -26 -27 -27 -27 -27 -27 -27 -28 -27 -27 -26 -26 -26 -25 -25 -25 -25 -25 -25 -25 -24 -24 -24 -24 -24 -24 -24 -24 -25 -25 -25 -25 -25 -26 -26 -25 -24 -24 -24 -24 -24
-26 -26 -27 -27 -27 -28 -28 -28 -28 -27 -27 -26 -26 -26 -25 -25 -25 -25 -25 -24 -24 -24 -25 -25 -25 -25 -25 -25 -24 -24 -24 -25 -26 -26 -27 -27 -26 -26 -27 -26 -25 -25 -25
-27 -27 -27 -28 -28 -28 -28 -28 -27 -27 -26 -26 -26 -25 -25 -25 -25 -25 -25 -24 -24 -24 -24 -25 -25 -25 -25 -25 -25 -25 -25 -26 -27 -28 -28 -27 -27 -27 -26 -26 -27 -27 -26
-27 -28 -28 -28 -28 -28 -28 -27 -27 -26 -26 -25 -25 -25 -25 -25 -25 -24 -24 -24 -25 -24 -25 -25 -25 -25 -25 -25 -26 -26 -27 -27 -27 -27 -27 -27 -27 -27 -27 -26 -27 -27 -26
-28 -28 -28 -28 -28 -28 -27 -27 -26 -26 -25 -25 -25 -25 -25 -25 -25 -24 -24 -24 -24 -24 -25 -25 -24 -25 -25 -26 -27 -27 -27 -27 -28 -28 -28 -28 -28 -28 -27 -27 -27 -27 -27
-28 -28 -28 -28 -27 -27 -27 -27 -26 -25 -24 -24 -24 -24 -24 -24 -24 -24 -24 -24 -24 -24 -24 -24 -24 -25 -25 -26 -27 -27 -28 -28 -28 -29 -29 -29 -29 -28 -28 -28 -28 -27 -27
-28 -28 -28 -28 -27 -27 -27 -27 -26 -25 -24 -24 -24 -23 -24 -24 -24 -24 -24 -24 -24 -24 -24 -25 -25 -25 -26 -27 -27 -28 -28 -28 -29 -29 -29 -29 -29 -28 -28 -28 -28 -28 -27
-28 -28 -28 -27 -27 -27 -26 -26 -25 -25 -24 -24 -24 -23 -23 -24 -24 -24 -24 -24 -24 -24 -25 -25 -25 -25 -26 -27 -28 -28 -28 -28 -28 -28 -28 -28 -28 -28 -27 -27 -27 -27 -27
-28 -28 -27 -27 -27 -26 -26 -26 -25 -24 -24 -24 -23 -23 -24 -24 -24 -24 -24 -24 -24 -24 -24 -24 -25 -25 -26 -27 -27 -28 -28 -28 -28 -28 -28 -28 -28 -27 -27 -27 -26 -26 -27
-28 -28 -27 -27 -26 -26 -26 -25 -24 -24 -24 -23 -23 -23 -23 -24 -24 -24 -24 -24 -24 -24 -24 -24 -25 -25 -26 -27 -27 -28 -27 -27 -27 -27 -27 -27 -27 -26 -26 -26 -26 -26 -26
-28 -27 -27 -26 -26 -26 -25 -24 -24 -24 -23 -23 -23 -23 -23 -23 -24 -24 -24 -24 -24 -24 -24 -24 -25 -25 -26 -26 -27 -27 -27 -27 -27 -27 -27 -27 -27 -26 -25 -25 -26 -26 -26
-27 -27 -26 -26 -26 -25 -25 -24 -24 -23 -23 -22 -22 -23 -23 -24 -24 -24 -24 -24 -24 -24 -24 -24 -25 -25 -25 -26 -27 -27 -27 -27 -27 -27 -27 -26 -26 -25 -25 -25 -25 -25 -26
-27 -26 -26 -25 -25 -25 -24 -24 -23 -23 -22 -22 -22 -23 -23 -23 -24 -24 -24 -24 -24 -24 -24 -24 -24 -25 -25 -26 -27 -27 -27 -26 -26 -26 -26 -26 -26 -25 -25 -25 -25 -25 -25
-27 -26 -25 -25 -25 -24 -24 -23 -23 -22 -22 -22 -22 -23 -23 -23 -24 -24 -24 -24 -24 -24 -24 -24 -24 -25 -25 -26 -27 -27 -26 -26 -26 -26 -26 -26 -26 -26 -25 -25 -25 -25 -25
-26 -25 -25 -25 -24 -24 -23 -23 -22 -22 -22 -22 -22 -23 -23 -23 -23 -23 -24 -24 -24 -24 -24 -24 -24 -24 -25 -26 -26 -27 -26 -26 -26 -26 -26 -26 -26 -26 -25 -25 -25 -25 -25
-26 -25 -25 -24 -24 -23 -23 -22 -22 -22 -22 -22 -23 -23 -23 -23 -23 -23 -23 -23 -24 -24 -24 -24 -24 -24 -25 -26 -26 -27 -26 -26 -26 -26 -26 -26 -26 -26 -26 -25 -25 -25 -25
-25 -24 -24 -24 -23 -23 -22 -22 -22 -22 -22 -22 -23 -23 -23 -23 -23 -23 -23 -24 -24 -24 -24 -24 -24 -24 -24 -25 -26 -27 -27 -27 -26 -26 -26 -26 -26 -25 -25 -25 -25 -25 -25

GFSGL_500_temp_081.txt.gz
Temp
-15 -15 -15 -16 -16 -16 -17 -17 -17 -18 -18 -19 -19 -20 -21 -21 -22 -22 -22 -23 -23 -23 -23 -23 -24 -24 -24 -24 -24 -24 -24 -24 -23 -23 -23 -22 -22 -22 -22 -22 -22 -21 -21
-15 -16 -16 -16 -17 -17 -18 -18 -18 -19 -20 -20 -21 -21 -22 -22 -23 -23 -23 -24 -24 -24 -24 -25 -25 -25 -25 -25 -25 -25 -25 -26 -25 -24 -23 -23 -23 -23 -23 -22 -22 -22 -21
-16 -17 -17 -17 -18 -18 -18 -19 -19 -20 -21 -22 -22 -23 -23 -24 -24 -24 -25 -25 -25 -26 -26 -26 -27 -27 -26 -26 -26 -26 -26 -26 -26 -25 -25 -25 -25 -24 -23 -23 -22 -22 -22
-17 -17 -17 -18 -18 -18 -19 -20 -21 -22 -22 -23 -24 -24 -25 -25 -25 -26 -26 -26 -26 -27 -27 -27 -27 -27 -27 -26 -26 -26 -26 -26 -26 -26 -26 -26 -26 -26 -25 -26 -25 -25 -24
-17 -17 -18 -18 -18 -19 -21 -22 -22 -23 -24 -25 -25 -25 -26 -26 -26 -26 -27 -27 -27 -27 -26 -26 -26 -26 -26 -26 -26 -26 -26 -26 -26 -26 -25 -25 -25 -25 -25 -25 -25 -25 -25
-17 -18 -18 -19 -20 -22 -22 -23 -24 -25 -25 -26 -26 -27 -27 -27 -27 -27 -27 -26 -26 -26 -26 -26 -26 -26 -26 -25 -26 -26 -26 -26 -26 -26 -26 -25 -26 -26 -26 -26 -26 -25 -25
-18 -19 -20 -21 -22 -23 -24 -25 -25 -26 -27 -27 -27 -27 -27 -27 -27 -27 -26 -26 -26 -25 -25 -25 -25 -25 -25 -25 -26 -26 -26 -26 -26 -26 -25 -25 -25 -26 -26 -26 -26 -26 -26
-19 -21 -22 -23 -24 -25 -26 -26 -27 -27 -27 -27 -27 -28 -27 -27 -26 -26 -26 -25 -25 -25 -25 -25 -25 -25 -25 -25 -25 -25 -25 -25 -26 -26 -26 -25 -25 -25 -25 -26 -26 -26 -25
-22 -22 -23 -25 -25 -26 -27 -27 -27 -28 -28 -28 -28 -27 -27 -26 -26 -26 -25 -25 -25 -25 -25 -25 -24 -25 -25 -25 -25 -25 -25 -25 -25 -25 -25 -25 -25 -26 -26 -26 -26 -26 -26
-23 -24 -25 -26 -27 -27 -27 -28 -28 -28 -28 -27 -27 -27 -26 -26 -25 -25 -25 -25 -25 -25 -25 -25 -25 -24 -25 -25 -25 -25 -25 -25 -25 -25 -25 -25 -26 -26 -26 -26 -25 -25 -24
-25 -26 -26 -27 -27 -28 -28 -28 -28 -28 -27 -27 -27 -26 -26 -25 -25 -25 -25 -25 -25 -24 -25 -25 -25 -25 -25 -26 -26 -25 -25 -25 -25 -25 -26 -26 -26 -27 -27 -26 -26 -25 -25
-26 -27 -27 -28 -28 -28 -28 -28 -27 -27 -27 -27 -26 -26 -25 -25 -25 -25 -25 -24 -24 -24 -24 -24 -25 -25 -25 -24 -25 -25 -26 -26 -26 -26 -27 -27 -28 -28 -27 -27 -27 -26 -26
-27 -28 -28 -28 -28 -28 -28 -27 -27 -27 -27 -26 -25 -25 -25 -25 -24 -24 -24 -24 -24 -25 -24 -24 -24 -24 -24 -24 -25 -26 -26 -27 -27 -28 -28 -28 -28 -28 -27 -27 -27 -27 -27
-28 -28 -28 -28 -28 -28 -27 -27 -27 -27 -26 -25 -25 -25 -25 -24 -24 -24 -24 -24 -24 -25 -25 -24 -25 -25 -25 -25 -25 -26 -27 -27 -28 -28 -28 -28 -28 -28 -28 -27 -27 -27 -27
-28 -28 -28 -28 -28 -27 -27 -27 -27 -27 -25 -25 -24 -24 -24 -24 -24 -24 -24 -24 -24 -24 -25 -24 -24 -25 -25 -25 -26 -27 -28 -28 -28 -28 -28 -29 -28 -28 -28 -27 -27 -27 -27
-28 -28 -28 -28 -27 -27 -27 -27 -27 -26 -25 -24 -24 -23 -24 -24 -24 -24 -24 -24 -24 -24 -24 -25 -25 -25 -25 -26 -26 -27 -28 -28 -28 -29 -29 -29 -29 -29 -28 -28 -28 -27 -27
-28 -28 -28 -27 -27 -26 -26 -26 -26 -25 -24 -24 -23 -23 -23 -24 -24 -24 -24 -24 -24 -24 -25 -25 -25 -25 -25 -26 -27 -28 -28 -28 -28 -28 -28 -28 -28 -28 -28 -28 -27 -27 -27
-27 -28 -27 -27 -26 -26 -26 -26 -25 -24 -24 -23 -23 -23 -23 -23 -24 -24 -24 -24 -24 -24 -25 -25 -25 -25 -26 -26 -27 -28 -28 -28 -28 -28 -27 -27 -27 -27 -27 -27 -27 -27 -27
-28 -27 -27 -26 -26 -26 -25 -25 -24 -24 -24 -23 -23 -23 -23 -23 -24 -24 -24 -24 -24 -24 -25 -25 -25 -25 -26 -26 -27 -27 -27 -27 -27 -27 -27 -27 -27 -27 -27 -26 -26 -26 -26
-27 -27 -27 -26 -25 -25 -25 -24 -24 -24 -23 -22 -22 -23 -23 -23 -24 -24 -24 -24 -24 -24 -24 -24 -24 -25 -25 -26 -27 -27 -27 -27 -27 -27 -27 -27 -26 -26 -26 -26 -26 -26 -26
-27 -27 -26 -25 -25 -25 -24 -24 -24 -23 -22 -22 -22 -23 -23 -24 -24 -24 -24 -24 -24 -24 -25 -24 -24 -25 -25 -26 -27 -27 -27 -27 -27 -26 -26 -26 -26 -26 -26 -26 -26 -26 -26
-27 -26 -25 -25 -25 -24 -24 -24 -23 -22 -22 -22 -23 -23 -23 -23 -24 -24 -24 -24 -24 -24 -24 -24 -24 -24 -25 -26 -27 -27 -27 -26 -26 -26 -26 -26 -26 -26 -26 -26 -26 -26 -25
-26 -25 -24 -24 -24 -24 -23 -23 -22 -22 -22 -22 -23 -23 -23 -23 -23 -24 -24 -24 -24 -24 -24 -24 -24 -24 -25 -26 -26 -26 -26 -26 -26 -26 -26 -26 -26 -26 -26 -26 -26 -25 -26
-25 -24 -24 -24 -23 -23 -23 -22 -22 -22 -22 -22 -23 -23 -23 -23 -23 -23 -24 -24 -24 -24 -24 -24 -24 -24 -25 -25 -26 -26 -26 -26 -26 -26 -26 -26 -26 -25 -26 -26 -25 -25 -25
-24 -24 -24 -23 -23 -23 -22 -22 -22 -22 -22 -22 -22 -22 -23 -23 -23 -23 -24 -24 -24 -24 -24 -24 -24 -24 -25 -25 -26 -27 -26 -26 -26 -26 -26 -26 -26 -26 -26 -26 -25 -25 -25
-24 -24 -23 -23 -23 -22 -22 -22 -22 -22 -22 -22 -22 -22 -22 -22 -23 -23 -23 -23 -24 -24 -24 -24 -24 -24 -25 -25 -26 -26 -26 -26 -26 -26 -26 -26 -26 -26 -25 -25 -25 -25 -25

GFSGL_500_temp_084.txt.gz
Temp
-14 -14 -15 -15 -15 -16 -16 -16 -17 -17 -18 -18 -19 -19 -20 -20 -21 -21 -21 -22 -23 -24 -24 -25 -25 -25 -25 -25 -25 -25 -26 -26 -25 -24 -25 -25 -24 -24 -24 -23 -23 -23 -22
-14 -15 -15 -16 -16 -16 -17 -17 -18 -19 -19 -20 -20 -21 -21 -21 -22 -23 -24 -25 -25 -25 -25 -25 -25 -26 -26 -26 -26 -27 -27 -27 -27 -25 -25 -26 -25 -25 -25 -24 -23 -23 -23
-15 -16 -16 -16 -17 -18 -18 -18 -19 -19 -20 -21 -21 -21 -22 -23 -24 -25 -25 -25 -26 -26 -26 -26 -26 -26 -27 -27 -27 -27 -27 -27 -27 -27 -27 -27 -27 -26 -25 -25 -24 -23 -23
-16 -16 -17 -18 -18 -18 -19 -19 -20 -21 -21 -22 -22 -23 -24 -25 -25 -26 -26 -26 -26 -26 -27 -27 -27 -27 -27 -26 -26 -26 -26 -26 -26 -26 -26 -26 -26 -26 -26 -26 -26 -26 -25
-17 -17 -18 -18 -18 -19 -20 -21 -21 -22 -22 -23 -24 -25 -26 -26 -27 -27 -27 -26 -27 -27 -27 -26 -26 -26 -26 -26 -26 -26 -26 -26 -26 -26 -26 -26 -26 -26 -26 -26 -26 -26 -26
-17 -17 -18 -18 -19 -20 -21 -21 -22 -24 -24 -25 -26 -26 -27 -27 -27 -27 -27 -27 -26 -26 -26 -26 -25 -25 -25 -25 -25 -26 -26 -26 -26 -26 -26 -26 -26 -26 -26 -26 -26 -26 -25
-17 -18 -19 -20 -21 -22 -23 -24 -25 -25 -26 -27 -27 -27 -27 -28 -28 -27 -27 -26 -26 -26 -25 -25 -25 -25 -25 -25 -25 -25 -26 -26 -26 -26 -26 -25 -25 -26 -26 -26 -26 -26 -26
-18 -19 -20 -21 -23 -24 -25 -26 -26 -27 -27 -28 -28 -28 -28 -28 -27 -27 -26 -26 -25 -25 -25 -25 -25 -25 -25 -25 -25 -25 -25 -25 -25 -25 -25 -25 -25 -25 -25 -26 -26 -26 -26
-20 -21 -22 -23 -24 -26 -27 -27 -27 -28 -28 -28 -28 -27 -27 -27 -26 -26 -25 -25 -25 -25 -25 -25 -25 -24 -25 -25 -25 -25 -25 -26 -26 -26 -25 -25 -25 -25 -25 -25 -26 -26 -26
-21 -23 -23 -24 -26 -27 -28 -28 -28 -28 -28 -28 -27 -27 -27 -26 -25 -25 -25 -25 -25 -25 -25 -25 -25 -25 -25 -25 -25 -25 -25 -26 -26 -26 -26 -25 -25 -25 -26 -25 -26 -26 -26
-23 -24 -24 -26 -27 -28 -28 -28 -28 -28 -27 -27 -27 -27 -26 -25 -25 -25 -25 -25 -25 -25 -25 -25 -25 -25 -25 -25 -25 -24 -24 -24 -25 -25 -26 -26 -26 -26 -26 -26 -26 -26 -26
-24 -24 -26 -27 -28 -28 -28 -28 -28 -27 -27 -26 -27 -26 -26 -25 -24 -24 -24 -24 -24 -24 -25 -25 -24 -25 -25 -25 -25 -24 -24 -25 -26 -26 -27 -27 -27 -27 -27 -27 -27 -27 -26
-24 -26 -27 -28 -28 -28 -28 -27 -27 -27 -26 -26 -26 -25 -25 -24 -24 -24 -24 -24 -24 -24 -24 -25 -24 -25 -25 -25 -25 -25 -25 -26 -27 -28 -28 -28 -28 -28 -28 -28 -28 -27 -27
-26 -27 -27 -27 -28 -28 -27 -27 -26 -26 -26 -25 -25 -25 -24 -24 -24 -24 -24 -24 -24 -24 -25 -25 -25 -25 -25 -25 -25 -26 -26 -27 -28 -28 -28 -28 -29 -29 -28 -28 -28 -27 -28
-26 -27 -27 -27 -27 -27 -27 -26 -26 -26 -25 -24 -24 -24 -24 -24 -24 -24 -24 -24 -24 -25 -25 -25 -25 -25 -25 -25 -26 -26 -27 -28 -28 -28 -28 -29 -29 -29 -29 -28 -28 -28 -28
-27 -27 -27 -27 -27 -26 -26 -26 -26 -26 -24 -23 -24 -23 -23 -23 -24 -24 -24 -24 -24 -24 -25 -25 -25 -25 -25 -25 -26 -27 -28 -28 -28 -28 -29 -29 -29 -29 -28 -28 -28 -28 -27
-27 -27 -27 -27 -26 -26 -25 -25 -25 -25 -24 -23 -23 -23 -23 -23 -24 -24 -24 -24 -24 -25 -24 -25 -25 -25 -25 -26 -26 -27 -28 -28 -28 -28 -28 -28 -28 -28 -28 -28 -27 -28 -28
-27 -27 -27 -26 -26 -25 -25 -25 -24 -24 -24 -23 -23 -23 -23 -23 -24 -24 -24 -24 -24 -24 -24 -25 -25 -25 -25 -26 -26 -27 -28 -27 -27 -28 -28 -28 -27 -27 -27 -27 -27 -27 -27
-27 -27 -26 -26 -25 -25 -24 -24 -23 -23 -23 -23 -23 -22 -23 -24 -24 -24 -24 -24 -24 -25 -25 -25 -25 -24 -25 -26 -27 -27 -27 -27 -27 -27 -27 -27 -27 -27 -27 -26 -26 -26 -26
-27 -27 -26 -25 -25 -24 -24 -23 -23 -22 -22 -22 -22 -23 -23 -24 -24 -24 -24 -24 -24 -24 -25 -25 -24 -24 -25 -26 -27 -27 -27 -27 -27 -27 -27 -27 -27 -26 -26 -26 -26 -26 -26
-27 -26 -25 -24 -24 -23 -23 -23 -22 -22 -22 -22 -22 -23 -23 -24 -24 -24 -24 -24 -24 -24 -25 -24 -24 -25 -25 -26 -27 -26 -27 -26 -26 -26 -26 -26 -26 -26 -26 -26 -26 -25 -26
-26 -25 -24 -24 -23 -23 -23 -22 -22 -22 -22 -22 -22 -23 -23 -23 -23 -23 -23 -24 -24 -24 -24 -25 -25 -25 -25 -26 -26 -27 -26 -26 -26 -26 -26 -26 -26 -26 -26 -26 -26 -26 -26
-25 -24 -24 -23 -23 -23 -22 -22 -22 -22 -22 -22 -22 -22 -23 -23 -23 -23 -23 -24 -24 -24 -24 -24 -25 -25 -25 -26 -27 -26 -26 -26 -26 -26 -26 -26 -26 -26 -26 -26 -26 -26 -26
-24 -23 -23 -23 -23 -22 -22 -22 -22 -22 -22 -22 -22 -22 -22 -22 -22 -23 -23 -23 -24 -24 -24 -24 -25 -25 -25 -26 -26 -26 -26 -26 -26 -26 -26 -26 -26 -26 -26 -26 -26 -26 -26
-23 -23 -23 -22 -22 -22 -22 -22 -21 -22 -22 -22 -22 -22 -22 -22 -22 -23 -23 -23 -24 -24 -24 -24 -24 -25 -25 -25 -26 -26 -26 -26 -26 -26 -26 -26 -26 -26 -26 -26 -26 -25 -26
-23 -22 -22 -22 -21 -21 -21 -21 -21 -21 -21 -22 -22 -22 -22 -22 -22 -23 -23 -23 -23 -24 -24 -24 -24 -24 -25 -25 -26 -27 -26 -26 -26 -26 -25 -25 -25 -25 -25 -25 -25 -25 -25

GFSGL_500_temp_087.txt.gz
Temp
-14 -14 -14 -15 -15 -15 -15 -16 -16 -17 -17 -17 -18 -18 -19 -19 -20 -20 -20 -21 -21 -22 -23 -24 -24 -25 -25 -25 -26 -26 -26 -26 -26 -25 -26 -27 -27 -26 -25 -25 -24 -24 -23
-14 -15 -15 -15 -15 -16 -16 -16 -17 -18 -18 -19 -19 -20 -20 -20 -21 -21 -22 -23 -24 -24 -25 -25 -26 -26 -26 -26 -26 -26 -26 -27 -26 -26 -26 -27 -27 -27 -27 -26 -25 -25 -24
-15 -15 -15 -15 -16 -17 -17 -18 -18 -19 -19 -20 -20 -20 -21 -22 -23 -24 -24 -25 -25 -26 -26 -27 -27 -27 -27 -27 -27 -26 -26 -26 -26 -25 -26 -26 -26 -26 -27 -27 -26 -26 -25
-15 -15 -16 -16 -17 -17 -18 -19 -19 -19 -20 -20 -22 -23 -23 -24 -25 -25 -26 -26 -27 -27 -27 -27 -27 -27 -27 -26 -26 -26 -26 -26 -26 -25 -25 -26 -26 -26 -25 -26 -26 -26 -26
-15 -16 -17 -17 -18 -18 -18 -19 -20 -21 -22 -23 -23 -24 -25 -26 -26 -27 -27 -27 -27 -27 -28 -27 -27 -26 -26 -26 -26 -25 -25 -25 -25 -25 -25 -25 -26 -26 -26 -26 -26 -26 -26
-16 -17 -17 -18 -18 -18 -19 -20 -22 -23 -24 -25 -26 -26 -27 -27 -27 -27 -27 -27 -27 -27 -26 -26 -26 -26 -25 -25 -25 -25 -25 -25 -25 -25 -25 -25 -26 -26 -26 -26 -26 -26 -26
-17 -17 -17 -18 -19 -20 -21 -23 -24 -24 -26 -27 -27 -27 -27 -28 -28 -27 -27 -26 -26 -26 -25 -25 -25 -25 -25 -25 -25 -25 -25 -25 -25 -25 -25 -25 -25 -25 -25 -25 -26 -26 -26
-17 -18 -18 -19 -20 -22 -23 -24 -25 -26 -27 -27 -28 -27 -27 -27 -27 -27 -27 -26 -25 -25 -25 -25 -25 -25 -25 -25 -25 -25 -25 -25 -25 -25 -26 -26 -26 -25 -25 -25 -26 -26 -26
-18 -18 -19 -21 -23 -23 -24 -25 -26 -27 -28 -28 -27 -27 -27 -27 -27 -26 -26 -25 -25 -25 -25 -25 -25 -25 -25 -24 -24 -24 -25 -26 -26 -26 -26 -25 -26 -26 -26 -25 -25 -25 -26
-18 -19 -21 -23 -24 -24 -25 -26 -27 -27 -27 -27 -27 -27 -26 -26 -26 -25 -25 -25 -25 -24 -25 -25 -24 -24 -25 -25 -25 -25 -25 -25 -25 -26 -25 -25 -25 -25 -25 -25 -25 -25 -25
-20 -22 -24 -24 -24 -26 -26 -27 -27 -27 -26 -26 -26 -26 -26 -25 -24 -24 -24 -24 -24 -24 -24 -24 -25 -25 -25 -25 -25 -25 -25 -25 -25 -25 -25 -25 -26 -26 -26 -26 -26 -26 -25
-22 -24 -24 -25 -26 -27 -27 -27 -26 -26 -26 -26 -26 -26 -25 -24 -24 -24 -24 -24 -24 -24 -24 -25 -25 -25 -25 -25 -25 -25 -25 -25 -25 -26 -26 -26 -26 -27 -27 -27 -27 -27 -26
-24 -24 -25 -26 -26 -27 -27 -26 -26 -25 -25 -25 -25 -25 -25 -24 -24 -24 -24 -24 -24 -24 -25 -25 -25 -25 -25 -25 -25 -25 -25 -25 -26 -26 -27 -27 -28 -28 -28 -28 -28 -28 -28
-24 -25 -25 -26 -26 -26 -26 -25 -25 -25 -25 -24 -24 -24 -24 -24 -24 -24 -24 -24 -24 -24 -25 -25 -25 -25 -25 -25 -25 -25 -26 -26 -27 -27 -28 -28 -28 -29 -29 -29 -28 -28 -28
-25 -25 -26 -26 -26 -26 -25 -25 -25 -24 -24 -24 -24 -23 -23 -23 -23 -24 -24 -24 -24 -25 -25 -25 -25 -25 -25 -25 -25 -26 -26 -27 -28 -28 -28 -28 -29 -29 -29 -29 -28 -28 -28
-25 -26 -26 -26 -26 -25 -25 -25 -24 -24 -23 -23 -22 -22 -23 -23 -23 -24 -24 -24 -24 -24 -25 -25 -25 -25 -25 -25 -25 -26 -27 -28 -28 -28 -28 -28 -28 -28 -28 -28 -28 -28 -28
-26 -26 -26 -26 -26 -25 -24 -24 -24 -24 -23 -22 -22 -22 -22 -23 -23 -24 -24 -24 -24 -25 -25 -25 -25 -25 -25 -25 -26 -27 -28 -28 -28 -28 -28 -28 -28 -28 -28 -28 -28 -28 -27
-26 -26 -26 -26 -25 -24 -24 -24 -23 -23 -23 -22 -22 -22 -22 -23 -23 -24 -24 -24 -24 -24 -25 -25 -25 -25 -25 -25 -26 -27 -27 -27 -27 -27 -27 -27 -27 -27 -27 -27 -27 -27 -27
-26 -26 -26 -25 -24 -23 -23 -23 -23 -22 -22 -22 -21 -22 -22 -23 -23 -23 -24 -24 -24 -24 -25 -25 -25 -25 -25 -25 -26 -27 -27 -27 -27 -27 -26 -26 -27 -27 -27 -27 -27 -27 -26
-26 -25 -25 -24 -23 -23 -23 -22 -22 -22 -21 -21 -22 -22 -22 -23 -23 -23 -23 -24 -24 -24 -25 -25 -25 -25 -25 -25 -26 -27 -26 -26 -26 -26 -26 -26 -27 -27 -27 -26 -26 -26 -26
-24 -24 -23 -23 -23 -23 -22 -22 -21 -21 -21 -21 -22 -22 -22 -23 -23 -23 -23 -24 -24 -24 -24 -24 -25 -25 -25 -26 -26 -26 -26 -26 -26 -26 -26 -26 -26 -26 -26 -26 -26 -26 -26
-23 -23 -23 -22 -22 -22 -22 -21 -21 -21 -21 -21 -21 -22 -22 -22 -23 -23 -23 -23 -23 -24 -24 -24 -24 -25 -25 -25 -26 -26 -26 -26 -26 -26 -26 -26 -26 -26 -26 -26 -26 -26 -26
-22 -22 -22 -22 -22 -22 -21 -21 -21 -21 -21 -21 -21 -22 -22 -22 -22 -23 -23 -23 -23 -24 -24 -24 -24 -24 -25 -25 -26 -26 -26 -26 -26 -26 -26 -26 -26 -26 -26 -26 -26 -26 -26
-22 -22 -22 -22 -21 -21 -21 -21 -21 -21 -21 -21 -21 -22 -22 -22 -22 -23 -23 -23 -23 -23 -24 -24 -24 -24 -25 -25 -26 -26 -26 -26 -26 -26 -26 -26 -26 -26 -26 -26 -26 -26 -26
-22 -22 -21 -21 -21 -21 -21 -21 -21 -21 -21 -21 -21 -22 -22 -22 -22 -22 -23 -23 -23 -23 -24 -24 -24 -24 -25 -25 -26 -26 -26 -26 -26 -26 -26 -26 -26 -26 -26 -25 -26 -26 -26
-22 -21 -21 -21 -21 -21 -21 -21 -21 -21 -21 -21 -21 -21 -21 -21 -22 -22 -22 -23 -23 -23 -24 -24 -24 -24 -25 -25 -25 -26 -26 -26 -26 -26 -26 -25 -25 -25 -25 -25 -25 -26 -26

GFSGL_500_temp_090.txt.gz
Temp
-15 -15 -14 -14 -14 -15 -15 -15 -15 -15 -16 -16 -17 -17 -18 -18 -19 -19 -19 -20 -20 -22 -22 -22 -23 -24 -24 -25 -25 -25 -25 -26 -25 -25 -25 -26 -26 -26 -25 -25 -25 -25 -24
-15 -14 -14 -15 -15 -15 -15 -15 -16 -16 -17 -17 -18 -18 -19 -19 -19 -20 -21 -22 -23 -23 -24 -25 -25 -26 -26 -26 -27 -27 -27 -26 -26 -26 -26 -27 -26 -26 -26 -26 -26 -26 -27
-14 -14 -15 -15 -15 -15 -16 -16 -17 -17 -18 -18 -19 -19 -20 -21 -22 -23 -23 -24 -25 -26 -26 -26 -27 -27 -27 -27 -27 -27 -27 -27 -26 -26 -26 -26 -26 -26 -25 -25 -25 -26 -27
-14 -15 -15 -15 -15 -16 -16 -17 -17 -18 -18 -19 -20 -21 -22 -23 -24 -25 -26 -26 -27 -27 -27 -27 -27 -28 -28 -28 -27 -27 -26 -26 -26 -25 -25 -25 -25 -25 -25 -25 -25 -25 -26
-15 -15 -15 -16 -16 -17 -17 -18 -18 -19 -19 -21 -22 -23 -24 -25 -26 -27 -27 -27 -27 -27 -27 -27 -27 -27 -27 -26 -26 -26 -26 -25 -25 -25 -25 -25 -25 -25 -25 -25 -25 -25 -26
-15 -15 -16 -16 -17 -17 -18 -18 -19 -20 -22 -23 -23 -24 -25 -26 -27 -27 -27 -27 -27 -27 -27 -27 -26 -26 -25 -25 -25 -25 -25 -25 -25 -25 -25 -25 -25 -25 -25 -25 -25 -25 -26
-16 -16 -17 -17 -18 -18 -18 -19 -21 -23 -23 -24 -24 -25 -26 -27 -27 -27 -26 -26 -26 -26 -26 -25 -25 -25 -25 -25 -25 -25 -25 -25 -25 -25 -25 -25 -25 -25 -25 -25 -25 -25 -26
-16 -17 -17 -18 -18 -19 -20 -22 -23 -24 -24 -25 -26 -26 -26 -26 -26 -26 -26 -25 -25 -25 -25 -25 -25 -25 -25 -25 -25 -25 -25 -25 -25 -25 -25 -26 -26 -26 -26 -26 -26 -25 -26
-17 -17 -18 -18 -19 -21 -23 -23 -24 -25 -25 -26 -26 -26 -25 -26 -26 -25 -25 -25 -25 -25 -24 -24 -24 -25 -25 -25 -25 -25 -25 -25 -25 -25 -25 -25 -25 -25 -25 -25 -25 -26 -25
-17 -18 -19 -20 -22 -23 -24 -24 -25 -26 -26 -26 -25 -25 -25 -25 -25 -24 -24 -24 -24 -24 -24 -24 -24 -24 -25 -25 -25 -25 -25 -25 -25 -25 -25 -25 -25 -25 -25 -25 -25 -25 -25
-18 -19 -21 -22 -23 -24 -24 -25 -26 -26 -26 -25 -25 -25 -25 -24 -24 -23 -23 -24 -24 -24 -24 -24 -25 -25 -25 -25 -25 -25 -25 -25 -25 -25 -25 -25 -25 -26 -26 -26 -26 -25 -25
-19 -21 -22 -24 -24 -25 -25 -26 -26 -25 -25 -25 -25 -25 -24 -23 -23 -23 -23 -23 -24 -24 -24 -24 -25 -25 -25 -25 -25 -25 -25 -25 -25 -25 -26 -26 -26 -26 -27 -27 -27 -27 -26
-22 -23 -24 -25 -25 -25 -26 -26 -25 -24 -24 -24 -24 -24 -24 -23 -22 -23 -23 -23 -24 -24 -24 -24 -25 -25 -25 -25 -25 -25 -25 -25 -25 -26 -26 -26 -27 -28 -28 -28 -28 -28 -28
-23 -24 -25 -25 -25 -26 -26 -25 -24 -24 -24 -24 -24 -23 -23 -22 -22 -23 -23 -23 -24 -24 -24 -24 -24 -25 -25 -25 -25 -25 -25 -25 -26 -27 -27 -28 -28 -28 -28 -28 -29 -28 -28
-25 -25 -25 -26 -26 -26 -25 -24 -23 -23 -23 -23 -23 -22 -22 -22 -22 -23 -23 -24 -24 -24 -24 -24 -25 -25 -25 -25 -25 -25 -25 -26 -27 -28 -28 -28 -28 -28 -29 -29 -29 -28 -28
-26 -26 -26 -26 -26 -26 -25 -24 -23 -23 -22 -22 -21 -21 -22 -22 -22 -23 -23 -23 -24 -24 -24 -24 -25 -25 -25 -25 -25 -25 -26 -27 -27 -28 -28 -28 -28 -28 -28 -28 -28 -28 -28
-26 -26 -26 -26 -25 -24 -24 -23 -23 -23 -22 -21 -21 -21 -21 -22 -22 -23 -23 -23 -23 -24 -24 -24 -25 -25 -25 -25 -25 -26 -27 -27 -27 -27 -27 -27 -27 -27 -27 -27 -27 -27 -27
-26 -26 -26 -25 -24 -23 -23 -23 -22 -22 -21 -21 -21 -21 -21 -22 -22 -23 -23 -23 -24 -24 -24 -24 -24 -25 -25 -25 -26 -26 -26 -27 -26 -27 -27 -27 -27 -27 -27 -27 -27 -27 -27
-23 -23 -23 -22 -22 -22 -22 -22 -22 -21 -21 -21 -21 -21 -21 -22 -22 -23 -23 -23 -23 -24 -24 -24 -24 -25 -25 -25 -26 -26 -26 -26 -26 -26 -26 -26 -27 -27 -27 -27 -27 -27 -26
-21 -21 -22 -22 -22 -22 -22 -21 -21 -21 -21 -21 -21 -21 -21 -22 -22 -22 -22 -23 -23 -23 -24 -24 -24 -24 -25 -25 -26 -26 -26 -26 -26 -26 -26 -26 -26 -26 -27 -27 -26 -26 -26
-21 -21 -21 -21 -22 -21 -21 -21 -21 -21 -21 -20 -21 -21 -21 -22 -22 -22 -23 -23 -23 -23 -23 -24 -24 -24 -25 -25 -25 -26 -26 -26 -26 -26 -26 -26 -26 -26 -26 -26 -26 -26 -26
-21 -21 -21 -21 -21 -21 -21 -21 -21 -21 -21 -20 -21 -21 -21 -21 -22 -22 -22 -23 -23 -23 -23 -24 -24 -24 -25 -25 -25 -26 -26 -26 -26 -26 -25 -26 -26 -26 -26 -26 -26 -26 -26
-21 -21 -21 -21 -21 -21 -21 -21 -21 -21 -20 -20 -20 -21 -21 -21 -21 -22 -22 -22 -23 -23 -23 -24 -24 -24 -24 -25 -25 -26 -26 -26 -26 -26 -25 -26 -26 -26 -26 -26 -26 -26 -26
-21 -21 -21 -21 -21 -21 -21 -21 -21 -20 -20 -20 -20 -21 -21 -21 -21 -21 -22 -22 -22 -23 -23 -24 -24 -24 -24 -25 -25 -26 -26 -26 -26 -26 -26 -26 -26 -26 -26 -26 -26 -26 -26
-21 -21 -21 -21 -21 -21 -21 -20 -20 -20 -20 -20 -20 -21 -21 -21 -21 -22 -22 -23 -23 -23 -23 -24 -24 -24 -24 -25 -25 -25 -26 -26 -26 -26 -26 -26 -26 -26 -25 -25 -26 -26 -26
-21 -21 -21 -21 -21 -21 -21 -20 -20 -20 -20 -21 -21 -21 -21 -21 -22 -22 -23 -23 -24 -24 -24 -24 -24 -24 -24 -25 -25 -26 -26 -26 -26 -26 -26 -26 -26 -26 -25 -25 -26 -26 -26

GFSGL_500_temp_093.txt.gz
Temp
-15 -15 -15 -15 -15 -15 -14 -14 -15 -15 -15 -15 -16 -16 -16 -17 -17 -18 -18 -18 -19 -20 -21 -22 -23 -23 -24 -24 -25 -25 -26 -26 -26 -25 -26 -26 -26 -26 -26 -26 -25 -25 -25
-15 -15 -15 -15 -15 -14 -14 -15 -15 -15 -16 -16 -17 -17 -17 -18 -18 -19 -19 -20 -21 -22 -23 -24 -24 -25 -26 -26 -26 -26 -27 -27 -27 -26 -27 -27 -27 -27 -26 -26 -26 -26 -26
-15 -15 -15 -14 -14 -15 -15 -15 -16 -16 -17 -17 -17 -18 -18 -19 -19 -21 -21 -22 -23 -24 -25 -26 -26 -26 -26 -27 -27 -27 -27 -27 -27 -27 -26 -27 -26 -26 -26 -25 -25 -25 -25
-15 -14 -14 -14 -15 -15 -15 -16 -16 -17 -17 -18 -18 -18 -19 -20 -21 -22 -23 -23 -25 -25 -26 -26 -26 -26 -26 -26 -26 -26 -26 -26 -26 -26 -26 -26 -26 -26 -25 -25 -25 -25 -25
-14 -14 -15 -15 -15 -16 -16 -17 -17 -18 -18 -18 -19 -20 -21 -22 -22 -23 -24 -24 -25 -25 -25 -26 -26 -26 -26 -25 -25 -25 -25 -25 -25 -25 -25 -25 -25 -25 -25 -25 -25 -25 -25
-14 -14 -15 -15 -16 -16 -17 -17 -18 -18 -19 -20 -21 -22 -22 -23 -24 -24 -24 -24 -25 -25 -25 -25 -25 -25 -25 -25 -25 -25 -25 -25 -25 -25 -25 -25 -25 -25 -25 -25 -25 -25 -25
-15 -15 -15 -16 -16 -17 -18 -18 -19 -20 -20 -22 -22 -23 -24 -24 -24 -24 -24 -24 -24 -24 -24 -24 -24 -24 -24 -24 -25 -25 -25 -25 -25 -25 -25 -25 -25 -25 -25 -25 -25 -25 -25
-15 -16 -16 -16 -17 -18 -19 -19 -20 -21 -22 -23 -24 -24 -24 -24 -24 -24 -24 -24 -24 -24 -23 -24 -24 -24 -24 -24 -24 -25 -25 -25 -25 -25 -25 -25 -25 -25 -25 -24 -24 -25 -25
-16 -16 -16 -17 -18 -19 -20 -21 -22 -23 -24 -24 -25 -24 -24 -24 -24 -24 -23 -23 -23 -23 -23 -24 -24 -24 -24 -24 -24 -25 -25 -25 -25 -25 -25 -25 -25 -25 -25 -25 -25 -24 -24
-16 -17 -17 -18 -20 -21 -22 -23 -24 -24 -24 -25 -24 -24 -24 -24 -24 -23 -23 -23 -23 -23 -24 -24 -24 -24 -24 -25 -25 -25 -25 -25 -25 -25 -25 -25 -25 -26 -26 -25 -25 -25 -25
-16 -17 -19 -21 -22 -23 -24 -24 -24 -25 -25 -24 -23 -24 -24 -23 -23 -23 -22 -22 -23 -23 -24 -24 -24 -24 -24 -25 -25 -25 -25 -25 -25 -25 -25 -26 -26 -26 -26 -26 -26 -26 -26
-17 -19 -22 -23 -24 -24 -25 -25 -25 -25 -24 -23 -23 -23 -23 -23 -22 -22 -22 -23 -23 -23 -24 -24 -24 -24 -25 -25 -25 -25 -25 -25 -25 -25 -25 -26 -26 -26 -26 -26 -27 -27 -27
-19 -22 -24 -25 -25 -25 -25 -25 -25 -24 -23 -23 -23 -23 -23 -22 -22 -22 -22 -23 -23 -23 -24 -24 -24 -24 -25 -25 -25 -25 -25 -25 -25 -25 -25 -26 -26 -27 -27 -28 -28 -28 -28
-20 -23 -25 -26 -26 -26 -25 -25 -24 -23 -23 -23 -23 -22 -22 -22 -21 -22 -22 -23 -23 -23 -24 -24 -24 -24 -24 -25 -25 -25 -25 -25 -25 -25 -26 -27 -28 -28 -28 -28 -28 -28 -28
-20 -23 -24 -25 -25 -25 -25 -24 -23 -22 -22 -22 -22 -22 -22 -21 -22 -22 -22 -22 -23 -23 -23 -24 -24 -24 -25 -25 -25 -25 -25 -25 -26 -27 -27 -27 -28 -28 -28 -28 -28 -28 -28
-19 -20 -22 -22 -23 -23 -22 -22 -22 -22 -22 -21 -21 -21 -21 -21 -21 -21 -22 -22 -23 -23 -23 -23 -24 -24 -25 -25 -25 -25 -25 -26 -26 -27 -27 -27 -27 -27 -27 -28 -28 -28 -28
-19 -19 -20 -20 -21 -21 -21 -22 -22 -21 -21 -21 -21 -21 -21 -21 -21 -22 -22 -22 -22 -23 -23 -23 -24 -24 -24 -25 -25 -25 -26 -26 -26 -26 -26 -27 -27 -27 -27 -27 -27 -27 -27
-19 -20 -20 -20 -20 -21 -21 -21 -21 -21 -21 -21 -20 -20 -20 -21 -21 -21 -22 -23 -23 -23 -23 -23 -24 -24 -24 -24 -25 -25 -26 -26 -26 -26 -26 -26 -26 -27 -27 -27 -27 -27 -27
-20 -20 -20 -20 -20 -21 -21 -21 -20 -20 -21 -21 -20 -20 -20 -20 -21 -21 -21 -22 -22 -23 -23 -23 -23 -24 -24 -24 -25 -25 -26 -26 -26 -26 -26 -26 -26 -27 -27 -27 -27 -27 -27
-20 -20 -20 -21 -21 -21 -20 -20 -20 -20 -20 -20 -20 -20 -20 -21 -21 -21 -22 -22 -22 -23 -23 -23 -24 -24 -24 -24 -25 -25 -26 -26 -26 -26 -26 -26 -26 -26 -27 -27 -27 -27 -27
-21 -20 -21 -21 -21 -20 -20 -20 -20 -20 -20 -20 -20 -20 -20 -21 -21 -21 -21 -22 -22 -22 -23 -23 -24 -24 -24 -24 -25 -25 -26 -26 -26 -26 -26 -26 -26 -26 -26 -27 -27 -27 -27
-21 -21 -21 -21 -21 -20 -20 -20 -20 -20 -20 -20 -20 -20 -20 -21 -21 -21 -21 -22 -22 -22 -23 -23 -23 -24 -24 -25 -25 -25 -26 -26 -26 -26 -26 -25 -26 -26 -26 -26 -26 -26 -26
-21 -21 -21 -21 -21 -21 -21 -21 -20 -20 -20 -20 -21 -21 -21 -21 -21 -21 -22 -23 -23 -23 -23 -23 -24 -24 -24 -24 -25 -25 -25 -26 -26 -26 -26 -26 -26 -26 -26 -26 -26 -26 -27
-21 -21 -21 -21 -21 -21 -21 -21 -21 -20 -20 -20 -21 -21 -21 -21 -21 -22 -23 -23 -23 -23 -24 -24 -24 -24 -24 -24 -25 -25 -25 -26 -26 -26 -26 -26 -26 -26 -26 -25 -26 -26 -27
-21 -21 -21 -21 -21 -21 -21 -21 -21 -21 -21 -20 -20 -21 -21 -21 -21 -22 -23 -23 -24 -24 -24 -24 -25 -25 -24 -24 -25 -25 -25 -26 -26 -26 -26 -26 -26 -26 -26 -25 -26 -26 -26
-22 -22 -22 -22 -22 -21 -21 -21 -21 -21 -21 -21 -21 -21 -21 -21 -22 -23 -23 -24 -24 -25 -25 -25 -26 -25 -25 -25 -25 -25 -26 -26 -26 -26 -26 -26 -26 -26 -26 -25 -25 -26 -26